     2              OBSERVATION DATA    GPS                 RINEX VERSION / TYPE
ASHTORIN MIT 08                                             PGM / RUN BY / DATE
                                                            COMMENT
Original Marker Name: COLL                                  COMMENT
Campaign Name: STRC/NBC 1997                                COMMENT
4-Character Station Name: COLL                              COMMENT
6-Character Antenna Code: DMRCHT                            COMMENT
Vertical Measurement Point: BCR                             COMMENT
Vertical Offset to Rinex Ref. Point: 0.0349                 COMMENT
Radial Measurement Point: ECF                               COMMENT
Radial Offset to Rinex Ref. Point: 0.1896                   COMMENT
Antenna Height from Field Measurement: 1.4440 m             COMMENT
Additional Antenna Identification Info.:                    COMMENT
Turborogue and Ashtech Choke Ring                           COMMENT
Original XYZ: 0.0000 0.0000 0.0000                          COMMENT
New XYZ position is based on association with SCEC monument COMMENT
E1C8W2I6+0012. Position of that monument is believed to be  COMMENT
valid to within 1 m horizontally; vertical accuracy         COMMENT
should be no worse than 3-times this value.                 COMMENT
                                                            COMMENT
Revised Rinex header created by UCSD GPS archive for        COMMENT
GSAC on 10-Apr-1999 (1999:100) 05:58:05 GMT                 COMMENT
For assistance contact dagnew@ucsd.edu or hjohnson@ucsd.edu COMMENT
                                                            COMMENT
COLLEGE 1967 1979                                           MARKER NAME
                                                            MARKER NUMBER
DBM UNAVCO                                                  OBSERVER / AGENCY
385 ASHTECH Z12-XII3 1E951D0                                REC # / TYPE / VERS
653 DORNE-MARGOL. TYPE T                                    ANT # / TYPE
 -2309840.0000 -4842142.0000  3437815.0000                  APPROX POSITION XYZ
        1.3966        0.0000        0.0000                  ANTENNA: DELTA H/E/N
     1     1     0                                          WAVELENGTH FACT L1/2
     7    L1    L2    C1    P1    P2    D1    D2            # / TYPES OF OBSERV
    30                                                      INTERVAL
  1997     3     5    17    23    0.000000                  TIME OF FIRST OBS
  1997     3     5    23    59   30.000000                  TIME OF LAST OBS
     0                                                      # OF SATELLITES
                                                            END OF HEADER
 97  3  5 17 23  0.0000000  0  6 19  3 31 18 27 16                   0.000000000
    -86417.41319    -61114.95059  20803628.280    20803628.2385   20803633.6685
        -0.000          -0.000
      7281.34919      5154.85054         0.000           0.0005   23236253.6265
        -0.000          -0.000
   -140590.35619    -99447.06552         0.000           0.0005          0.0005
        -0.000          -0.000
    -14466.77819     -9201.16751         0.000           0.0005          0.0005
        -0.000          -0.000
   -190925.43719   -136290.75657  22634117.778    22634117.0475   22634122.4675
        -0.000          -0.000
    157841.82619    112067.77256  23524901.986    23524901.2205   23524909.8775
        -0.000          -0.000
 97  3  5 17 23 30.0000000  0  6 19  3 31 18 27 16                   0.000288063
   -123932.462 9    -90347.45149  20796489.824    20796489.3504   20796494.8324
        -0.000          -0.000
     11015.71819      8064.74846  23236958.459    23236957.1895   23236962.7664
        -0.000          -0.000
   -201826.15919      -473.73952         0.000           0.0005          0.0005
        -0.000          -0.000
    -19981.26019       -42.36952         0.000           0.0005          0.0005
        -0.000          -0.000
   -275056.109 9   -201847.11447  22618107.024    22618107.4904   22618112.8314
        -0.000          -0.000
    234539.900 9    171832.42446  23539497.809    23539496.4654   23539504.6684
        -0.000          -0.000
 97  3  5 17 24  0.0000000  0  7 19  3 31 18 27 10 16                0.000274288
   -161335.174 9   -119492.42149  20789372.083    20789371.8674   20789377.3884
        -0.000          -0.000
     15239.713 9     11356.15546  23237761.698    23237760.9034   23237766.5634
        -0.000          -0.000
   -262577.26819    -47812.48447  21873694.863    21873694.8465   21873700.4354
        -0.000          -0.000
    -25048.01019     -3990.77649  20196763.876    20196763.4625   20196768.3624
        -0.000          -0.000
   -359169.596 9   -267390.05747  22602099.795    22602101.1814   22602106.6614
        -0.000          -0.000
   -225443.40719   -163845.79955  24489173.404    24489171.7895   24489179.2015
        -0.000          -0.000
    311241.448 9    231599.78246  23554093.735    23554092.6414   23554100.6514
        -0.000          -0.000
 97  3  5 17 24 30.0000000  0  8 19  2  3 31 18 27 10 16             0.000260391
   -198629.332 9   -148552.80749  20782275.227    20782275.0204   20782280.5194
        -0.000          -0.000
   -267857.36319   -185730.56555         0.000           0.0005   24081405.3655
        -0.000          -0.000
     19963.793 9     15037.24646  23238660.605    23238659.8304   23238665.5994
        -0.000          -0.000
   -322842.109 9    -94772.08447  21862226.951    21862226.7454   21862232.4654
        -0.000          -0.000
    -29650.502 9     -7577.14149  20195888.042    20195887.7684   20195892.6644
        -0.000          -0.000
   -443262.133 9   -332916.69247  22586098.131    22586098.8094   22586104.3074
        -0.000          -0.000
   -297735.087 9   -220176.98045  24475416.298    24475415.9024   24475422.5144
        -0.000          -0.000
    387952.802 9    291374.78846  23568691.420    23568690.4954   23568698.5414
        -0.000          -0.000
 97  3  5 17 25  0.0000000  0  8 19  2  3 31 18 27 10 16             0.000246359
   -235813.666 9   -177527.61249  20775199.385    20775199.1094   20775204.5934
        -0.000          -0.000
   -372359.14719   -267160.55145  24061515.441    24061513.5015   24061521.3584
        -0.000          -0.000
     25176.956 9     19099.46246  23239652.452    23239651.8944   23239657.7724
        -0.000          -0.000
   -382641.884 9   -141369.30748  21850847.560    21850847.3434   21850852.9694
        -0.000          -0.000
    -33785.255 9    -10799.02949  20195101.183    20195100.8534   20195105.8624
        -0.000          -0.000
   -527354.005 9   -398442.81247  22570096.164    22570096.5684   22570102.2014
        -0.000          -0.000
   -369610.156 9   -276183.52545  24461739.500    24461738.2214   24461744.5584
        -0.000          -0.000
    464673.248 9    351156.87846  23583290.589    23583289.8984   23583298.1054
        -0.000          -0.000
 97  3  5 17 25 30.0000000  0  8 19  2  3 31 18 27 10 16             0.000232273
   -272906.091 9   -206430.79949  20768140.950    20768140.6954   20768146.1524
        -0.000          -0.000
   -476737.490 9   -348494.29545  24041651.636    24041650.6024   24041658.8874
        -0.000          -0.000
     30863.160 9     23530.25446  23240734.361    23240733.9044   23240739.8704
        -0.000          -0.000
   -441982.436 9   -187608.68448  21839555.583    21839555.3204   21839560.8474
        -0.000          -0.000
    -37465.109 9    -13666.46049  20194400.890    20194400.6374   20194405.6274
        -0.000          -0.000
   -611463.411 9   -463982.58847  22554090.691    22554091.0284   22554096.6474
        -0.000          -0.000
   -441077.816 9   -331872.59745  24448139.571    24448138.6164   24448144.8134
        -0.000          -0.000
    541387.929 9    410934.47346  23597888.981    23597888.3714   23597896.5444
        -0.000          -0.000
 97  3  5 17 26  0.0000000  0  8 19  2  3 31 18 27 10 16             0.000218144
   -309914.840 9   -235268.78549  20761098.432    20761098.2014   20761103.6914
        -0.000          -0.000
   -580991.527 9   -429731.20345  24021812.667    24021811.5964   24021820.1224
        -0.000          -0.000
     37017.141 9     28325.54746  23241905.532    23241905.0044   23241911.1214
        -0.000          -0.000
   -500851.638 9   -233480.78748  21828353.194    21828352.8664   21828358.3924
        -0.000          -0.000
    -40697.984 9    -16185.59549  20193785.715    20193785.4334   20193790.4634
        -0.000          -0.000
   -695597.235 9   -529541.39647  22538080.920    22538080.9914   22538086.5654
        -0.000          -0.000
   -512150.844 9   -387254.19745  24434614.808    24434613.7194   24434620.5394
        -0.000          -0.000
    618086.358 9    470699.40046  23612484.440    23612483.7284   23612491.7464
        -0.000          -0.000
 97  3  5 17 26 30.0000000  0  8 19  2  3 31 18 27 10 16             0.000203934
   -346873.180 9   -264067.49049  20754065.465    20754065.2694   20754070.7824
        -0.000          -0.000
   -685158.821 9   -510900.50345  24001990.195    24001988.8184   24001996.8794
        -0.000          -0.000
     43588.380 9     33445.95946  23243155.753    23243155.4384   23243161.5574
        -0.000          -0.000
   -559303.985 9   -279028.05948  21817230.110    21817229.7564   21817235.3004
        -0.000          -0.000
    -43521.671 9    -18385.87849  20193248.380    20193248.0854   20193253.1594
        -0.000          -0.000
   -779800.221 9   -595154.09447  22522057.745    22522057.7044   22522063.2944
        -0.000          -0.000
   -582880.541 9   -442368.24945  24421155.358    24421154.4964   24421161.2284
        -0.000          -0.000
    694722.162 9    530415.54346  23627067.825    23627067.1414   23627074.9964
        -0.000          -0.000
 97  3  5 17 27  0.0000000  0  8 19  2  3 31 18 27 10 16             0.000189663
   -383761.677 9   -292811.77349  20747045.934    20747045.6894   20747051.1894
        -0.000          -0.000
   -789191.115 9   -591964.58145  23982193.442    23982192.4244   23982199.5694
        -0.000          -0.000
     50592.552 9     38903.75746  23244488.831    23244488.4954   23244494.4104
        -0.000          -0.000
   -617319.566 9   -324235.00748  21806190.123    21806189.7494   21806195.2634
        -0.000          -0.000
    -45935.666 9    -20266.92549  20192788.988    20192788.7434   20192793.7984
        -0.000          -0.000
   -864049.654 9   -660802.98847  22506025.508    22506025.4634   22506031.2084
        -0.000          -0.000
   -653249.364 9   -497201.10045  24407764.640    24407763.8064   24407770.3854
        -0.000          -0.000
    771314.936 9    590098.14446  23641642.925    23641642.2824   23641650.1994
        -0.000          -0.000
 97  3  5 17 27 30.0000000  0  8 19  2  3 31 18 27 10 16             0.000175357
   -420542.015 9   -321471.77249  20740046.970    20740046.7144   20740052.1134
        -0.000          -0.000
   -893062.449 9   -672903.29645  23962427.219    23962426.3484   23962433.3544
        -0.000          -0.000
     58069.659 9     44730.06346  23245911.840    23245911.5104   23245917.2514
        -0.000          -0.000
   -674847.461 9   -369061.92548  21795243.040    21795242.6474   21795248.1344
        -0.000          -0.000
    -47902.609 9    -21799.61749  20192414.779    20192414.5124   20192419.5044
        -0.000          -0.000
   -948305.585 9   -726456.93447  22489992.322    22489992.1924   22489997.8354
        -0.000          -0.000
   -723213.512 9   -551718.63645  24394450.812    24394450.0234   24394456.6174
        -0.000          -0.000
    847897.782 9    649772.99746  23656216.063    23656215.5634   23656223.5204
        -0.000          -0.000
 97  3  5 17 28  0.0000000  0  8 19  2  3 31 18 27 10 16             0.000161014
   -457197.259 9   -350034.29649  20733071.809    20733071.5134   20733076.8544
        -0.000          -0.000
   -996779.154 9   -753721.47346  23942690.393    23942689.6514   23942696.9874
        -0.000          -0.000
     66026.019 9     50929.80046  23247425.828    23247425.5624   23247431.3454
        -0.000          -0.000
   -731896.199 9   -413515.48248  21784387.142    21784386.6934   21784392.1674
        -0.000          -0.000
    -49411.890 9    -22975.69249  20192127.634    20192127.3714   20192132.3374
        -0.000          -0.000
  -1032544.596 9   -792097.70647  22473962.333    22473962.0704   22473967.5914
        -0.000          -0.000
   -792759.015 9   -605909.92945  24381216.718    24381216.0054   24381222.6964
        -0.000          -0.000
    924478.779 9    709446.42646  23670789.120    23670788.5044   23670796.5804
        -0.000          -0.000
 97  3  5 17 28 30.0000000  0  8 19  2  3 31 18 27 10 16             0.000146638
   -493709.983 9   -378485.76349  20726123.605    20726123.3434   20726128.6814
        -0.000          -0.000
  -1100340.704 9   -834418.74046  23922983.286    23922982.5544   23922990.2034
        -0.000          -0.000
     74467.103 9     57507.25246  23249032.009    23249031.8904   23249037.7004
        -0.000          -0.000
   -788467.235 9   -457596.80148  21773622.058    21773621.6154   21773627.1394
        -0.000          -0.000
    -50449.432 9    -23784.17649  20191930.227    20191929.9684   20191934.9714
        -0.000          -0.000
  -1116751.106 9   -857713.15947  22457938.327    22457938.0934   22457943.5504
        -0.000          -0.000
   -861865.378 9   -659759.02045  24368066.382    24368065.6794   24368072.3084
        -0.000          -0.000
   1001066.871 9    769125.42246  23685363.546    23685362.8534   23685370.8874
        -0.000          -0.000
 97  3  5 17 29  0.0000000  0  8 19  2  3 31 18 27 10 16             0.000132228
   -530079.069 9   -406825.31049  20719202.828    20719202.5644   20719207.9064
        -0.000          -0.000
  -1203757.812 9   -915003.50346  23903303.605    23903303.0184   23903310.4734
        -0.000          -0.000
     83387.013 9     64457.80346  23250729.420    23250729.2354   23250735.2064
        -0.000          -0.000
   -844550.931 9   -501298.37148  21762949.682    21762949.2244   21762954.7844
        -0.000          -0.000
    -51013.180 9    -24223.46849  20191822.981    20191822.7324   20191827.7844
        -0.000          -0.000
  -1200934.293 9   -923310.41947  22441918.743    22441918.5434   22441923.9384
        -0.000          -0.000
   -930519.978 9   -713256.14045  24355001.723    24355001.1334   24355007.9754
        -0.000          -0.000
   1077650.323 9    828800.74746  23699936.872    23699936.2654   23699944.2344
        -0.000          -0.000
 97  3  5 17 29 30.0000000  0  8 19  2  3 31 18 27 10 16             0.000117782
   -566309.143 9   -435056.53549  20712308.475    20712308.2074   20712313.5684
        -0.000          -0.000
  -1307032.502 9   -995477.27246  23883651.006    23883650.5534   23883657.9474
        -0.000          -0.000
     92786.815 9     71782.31746  23252518.063    23252517.9674   23252524.0324
        -0.000          -0.000
   -900142.527 9   -544616.48048  21752370.961    21752370.4774   21752376.0474
        -0.000          -0.000
    -51095.072 9    -24287.29449  20191807.382    20191807.1734   20191812.2324
        -0.000          -0.000
  -1285092.813 9   -988888.46347  22425903.807    22425903.6304   22425909.1664
        -0.000          -0.000
   -998709.506 8   -766390.86845  24342025.749    24342024.9574   24342031.9154
        -0.000          -0.000
   1154210.343 9    888457.83046  23714505.895    23714505.2194   23714513.1404
        -0.000          -0.000
 97  3  5 17 30  0.0000000  0  8 19  2  3 31 18 27 10 16             0.000103319
   -602392.934 9   -463173.77049  20705441.940    20705441.6914   20705447.0654
        -0.000          -0.000
  -1410124.948 9  -1075809.00846  23864033.107    23864032.7434   23864040.1634
        -0.000          -0.000
    102684.902 9     79495.10646  23254401.881    23254401.5924   23254407.6874
        -0.000          -0.000
   -955219.572 9   -587533.63948  21741890.109    21741889.6634   21741895.1914
        -0.000          -0.000
    -50684.239 9    -23967.17849  20191885.629    20191885.3884   20191890.4494
        -0.000          -0.000
  -1369208.326 9  -1054433.00847  22409897.172    22409896.9714   22409902.5694
        -0.000          -0.000
  -1066422.372 8   -819154.08445  24329140.574    24329139.6574   24329146.5984
        -0.000          -0.000
   1230763.077 9    948109.22146  23729073.578    23729072.7754   23729080.8114
        -0.000          -0.000
 97  3  5 17 30 30.0000000  0  8 19  2  3 31 18 27 10 16             0.000088839
   -638344.549 9   -491188.01549  20698600.568    20698600.3374   20698605.7104
        -0.000          -0.000
  -1513017.894 9  -1155985.28546  23844453.639    23844453.0284   23844460.3214
        -0.000          -0.000
    113077.634 9     87593.34346  23256379.674    23256379.3734   23256385.3434
        -0.000          -0.000
  -1009767.929 9   -630038.83848  21731509.951    21731509.4994   21731514.9854
        -0.000          -0.000
    -49790.070 9    -23270.43149  20192055.869    20192055.6114   20192060.6474
        -0.000          -0.000
  -1453304.383 9  -1119962.38347  22393894.349    22393894.1004   22393899.6854
        -0.000          -0.000
  -1133675.124 8   -871558.83745  24316342.677    24316341.8674   24316348.8904
        -0.000          -0.000
   1307304.439 9   1007751.75946  23743638.982    23743638.2414   23743646.1624
        -0.000          -0.000
 97  3  5 17 31  0.0000000  0  8 19  2  3 31 18 27 10 16             0.000074350
   -674168.860 9   -519103.05749  20691783.457    20691783.2174   20691788.5784
        -0.000          -0.000
  -1615700.498 9  -1235997.65646  23824913.869    23824913.1564   23824920.5284
        -0.000          -0.000
    123974.625 9     96084.53446  23258453.371    23258453.0694   23258458.9894
        -0.000          -0.000
  -1063775.140 9   -672122.35448  21721232.756    21721232.2944   21721237.7964
        -0.000          -0.000
    -48410.203 9    -22195.21849  20192318.422    20192318.1994   20192323.2504
        -0.000          -0.000
  -1537374.083 9  -1185471.22247  22377896.569    22377896.1954   22377901.8304
        -0.000          -0.000
  -1200475.458 8   -923611.05445  24303630.721    24303629.9474   24303637.2964
        -0.000          -0.000
   1383851.264 9   1067398.55046  23758205.428    23758204.6574   23758212.7864
        -0.000          -0.000
 97  3  5 17 31 30.0000000  0  8 19  2  3 31 18 27 10 16             0.000059850
   -709875.707 9   -546926.57349  20684988.646    20684988.4214   20684993.8404
        -0.000          -0.000
  -1718190.602 9  -1315860.04946  23805410.768    23805409.9684   23805417.2734
        -0.000          -0.000
    135374.372 9    104967.42346  23260622.627    23260622.2364   23260628.2404
        -0.000          -0.000
  -1117247.258 9   -713788.91748  21711057.431    21711056.9084   21711062.4224
        -0.000          -0.000
    -46555.317 9    -20749.86349  20192671.410    20192671.1654   20192676.1944
        -0.000          -0.000
  -1621413.173 9  -1250956.20347  22361904.337    22361904.0364   22361909.7034
        -0.000          -0.000
  -1266836.518 8   -975320.98645  24291002.351    24291001.8394   24291009.0074
        -0.000          -0.000
   1460406.974 9   1127052.25846  23772773.369    23772772.7524   23772780.9334
        -0.000          -0.000
 97  3  5 17 32  0.0000000  0  8 19  2  3 31 18 27 10 16             0.000045330
   -745462.356 9   -574656.42249  20678216.720    20678216.5094   20678221.9664
        -0.000          -0.000
  -1820509.444 9  -1395588.97046  23785940.037    23785939.3074   23785946.6774
        -0.000          -0.000
    147267.288 9    114234.63946  23262885.798    23262885.5594   23262891.5004
        -0.000          -0.000
  -1170185.934 9   -755039.80048  21700983.447    21700982.9924   21700988.4984
        -0.000          -0.000
    -44232.272 9    -18939.70849  20193113.486    20193113.2684   20193118.2724
        -0.000          -0.000
  -1705440.268 9  -1316431.84047  22345914.598    22345914.2654   22345919.8964
        -0.000          -0.000
  -1332780.812 8  -1026706.11545  24278453.564    24278453.1764   24278459.9804
        -0.000          -0.000
   1536977.239 9   1186717.35245  23787344.066    23787343.5444   23787351.7654
        -0.000          -0.000
 97  3  5 17 32 30.0000000  0  8 19  2  3 31 18 27 10 16             0.000030780
   -780927.951 9   -602291.95149  20671467.821    20671467.6014   20671473.0944
        -0.000          -0.000
  -1922681.245 9  -1475203.31146  23766497.419    23766496.7574   23766504.0334
        -0.000          -0.000
    159643.565 9    123878.50446  23265241.054    23265240.8094   23265246.6774
        -0.000          -0.000
  -1222601.270 9   -795882.89748  21691009.011    21691008.6574   21691014.1884
        -0.000          -0.000
    -41426.827 9    -16753.65749  20193647.410    20193647.1594   20193652.1574
        -0.000          -0.000
  -1789454.370 9  -1381897.37047  22329927.228    22329926.8944   22329932.4584
        -0.000          -0.000
  -1398307.482 8  -1077765.79845  24265984.550    24265984.1684   24265990.8684
        -0.000          -0.000
   1613555.323 9   1246388.50245  23801916.379    23801915.9074   23801924.2364
        -0.000          -0.000
 97  3  5 17 33  0.0000000  0  8 19  2  3 31 18 27 10 16             0.000016201
   -816257.654 9   -629821.59049  20664744.829    20664744.6454   20664750.1434
        -0.000          -0.000
  -2024714.421 9  -1554709.62047  23747081.202    23747080.4284   23747087.7824
        -0.000          -0.000
    172503.668 9    133899.37846  23267688.355    23267688.0044   23267693.9044
        -0.000          -0.000
  -1274485.328 9   -836312.00048  21681135.947    21681135.5224   21681140.9304
        -0.000          -0.000
    -38128.136 9    -14183.25949  20194275.165    20194274.9144   20194279.9574
        -0.000          -0.000
  -1873443.451 9  -1447343.39347  22313944.424    22313944.1884   22313949.9264
        -0.000          -0.000
  -1463390.401 8  -1128479.72745  24253599.718    24253599.2934   24253606.1764
        -0.000          -0.000
   1690135.162 9   1306061.04945  23816489.183    23816488.6584   23816496.9224
        -0.000          -0.000
 97  3  5 17 33 30.0000000  0  8 19  2  3 31 18 27 10 16             0.000001575
   -851452.402 9   -657246.07249  20658047.537    20658047.3414   20658052.8564
        -0.000          -0.000
  -2126614.645 9  -1634112.31247  23727689.953    23727689.3424   23727696.9334
        -0.000          -0.000
    185823.397 9    144278.40546  23270222.799    23270222.5504   23270228.4304
        -0.000          -0.000
  -1325845.076 9   -876332.54948  21671362.474    21671362.0184   21671367.4674
        -0.000          -0.000
    -34347.656 9    -11237.44149  20194994.607    20194994.3664   20194999.4274
        -0.000          -0.000
  -1957426.674 9  -1512784.84647  22297963.058    22297962.7714   22297968.5104
        -0.000          -0.000
  -1528031.314 8  -1178849.29645  24241299.195    24241298.5194   24241305.4774
        -0.000          -0.000
   1766680.964 9   1365707.03746  23831055.277    23831054.8344   23831063.2164
        -0.000          -0.000
 97  3  5 17 34  0.0000000  0  8 19  2  3 31 18 27 10 16            -0.000013098
   -886506.696 9   -684561.10449  20651376.906    20651376.7094   20651382.2334
        -0.000          -0.000
  -2228361.197 9  -1713395.30547  23708328.157    23708327.6374   23708335.1434
        -0.000          -0.000
    199594.171 9    155008.86446  23272843.115    23272843.0464   23272848.8174
        -0.000          -0.000
  -1376677.728 9   -915942.38348  21661689.215    21661688.8254   21661694.3224
        -0.000          -0.000
    -30081.857 9     -7913.45649  20195806.365    20195806.1644   20195811.2024
        -0.000          -0.000
  -2041399.552 9  -1578218.24347  22281983.743    22281983.3334   22281989.0834
        -0.000          -0.000
  -1592231.190 8  -1228875.15245  24229081.927    24229081.3964   24229088.6564
        -0.000          -0.000
   1843185.037 9   1425320.51946  23845613.545    23845613.2244   23845621.4734
        -0.000          -0.000
 97  3  5 17 34 29.9990000  0  8 19  2  3 31 18 27 10 16            -0.000027810
   -921413.659 9   -711761.33349  20644734.369    20644734.1784   20644739.6734
        -0.000          -0.000
  -2329934.357 9  -1792543.14447  23688999.418    23688998.9484   23689006.4684
        -0.000          -0.000
    213816.149 9    166090.92746  23275549.695    23275549.4034   23275555.1004
        -0.000          -0.000
  -1426976.536 9   -955136.24248  21652117.685    21652117.2814   21652122.7904
        -0.000          -0.000
    -25327.461 9     -4208.73949  20196711.119    20196710.9184   20196715.9454
        -0.000          -0.000
  -2125340.576 9  -1643626.80947  22266010.247    22266009.8524   22266015.5784
        -0.000          -0.000
  -1655961.645 8  -1278535.22745  24216954.683    24216953.9614   24216960.9304
        -0.000          -0.000
   1919639.540 9   1484895.39046  23860162.841    23860162.2934   23860170.2364
        -0.000          -0.000
 97  3  5 17 34 59.9990000  0  8 19  2  3 31 18 27 10 16            -0.000042561
   -956163.696 9   -738839.28549  20638121.704    20638121.4964   20638126.9524
        -0.000          -0.000
  -2431329.499 9  -1871552.26947  23669704.604    23669704.0754   23669711.5254
        -0.000          -0.000
    228492.512 9    177527.06546  23278342.571    23278342.3094   23278347.8774
        -0.000          -0.000
  -1476738.030 9   -993911.42348  21642648.339    21642647.9464   21642653.4604
        -0.000          -0.000
    -20095.820 9      -132.14849  20197706.677    20197706.4794   20197711.5244
        -0.000          -0.000
  -2209262.845 9  -1709020.77547  22250040.436    22250040.0984   22250045.6834
        -0.000          -0.000
  -1719226.057 8  -1327832.18545  24204915.907    24204915.3054   24204922.4634
        -0.000          -0.000
   1996047.123 9   1544433.68846  23874703.135    23874702.4374   23874710.1494
        -0.000          -0.000
 97  3  5 17 35 29.9990000  0  8 19  2  3 31 18 27 10 16            -0.000057355
   -990774.588 9   -765808.81149  20631535.538    20631535.3254   20631540.7324
        -0.000          -0.000
  -2532550.505 9  -1950425.71847  23650443.005    23650442.4194   23650449.6804
        -0.000          -0.000
    243618.017 9    189313.14946  23281220.984    23281220.6364   23281226.1574
        -0.000          -0.000
  -1525984.891 9  -1032285.58148  21633276.987    21633276.5944   21633282.0304
        -0.000          -0.000
    -14397.204 9      4308.32249  20198791.090    20198790.8984   20198795.9454
        -0.000          -0.000
  -2293177.231 9  -1774408.59747  22234071.975    22234071.6634   22234077.2814
        -0.000          -0.000
  -1782049.749 8  -1376785.72545  24192960.928    24192960.0334   24192967.6254
        -0.000          -0.000
   2072408.521 9   1603935.97846  23889234.351    23889233.7174   23889241.4394
        -0.000          -0.000
 97  3  5 17 35 59.9990000  0  8 19  2  3 31 18 27 10 16            -0.000072179
  -1025252.128 9   -792674.42249  20624974.747    20624974.4974   20624979.8814
        -0.000          -0.000
  -2633596.197 9  -2029162.56047  23631214.594    23631213.9314   23631221.3734
        -0.000          -0.000
    259220.320 9    201470.79346  23284190.076    23284189.7414   23284195.3124
        -0.000          -0.000
  -1574725.603 9  -1070265.33548  21624002.043    21624001.5754   21624006.9934
        -0.000          -0.000
     -8214.353 9      9126.11549  20199967.647    20199967.4634   20199972.5444
        -0.000          -0.000
  -2377074.053 9  -1839782.74047  22218106.932    22218106.6654   22218112.2834
        -0.000          -0.000
  -1844428.950 8  -1425392.89645  24181090.491    24181089.7194   24181097.1634
        -0.000          -0.000
   2148752.479 9   1663424.70246  23903762.137    23903761.5304   23903769.3344
        -0.000          -0.000
 97  3  5 17 36 29.9990000  0  8 19  2  3 31 18 27 10 16            -0.000087023
  -1059597.557 9   -819437.09349  20618438.989    20618438.7824   20618444.1694
        -0.000          -0.000
  -2734459.214 9  -2107757.09047  23612020.847    23612020.3094   23612027.7624
        -0.000          -0.000
    275314.868 9    214011.99746  23287252.688    23287252.3714   23287258.1054
        -0.000          -0.000
  -1622964.317 9  -1107853.93248  21614822.532    21614822.0804   21614827.5104
        -0.000          -0.000
     -1537.238 9     14329.05249  20201238.310    20201238.0944   20201243.1804
        -0.000          -0.000
  -2460951.027 9  -1905141.41547  22202145.841    22202145.5344   22202151.1144
        -0.000          -0.000
  -1906355.994 9  -1473647.74645  24169306.392    24169305.6574   24169312.5234
        -0.000          -0.000
   2225086.215 9   1722905.46146  23918288.266    23918287.5544   23918295.3274
        -0.000          -0.000
 97  3  5 17 36 59.9990000  0  8 19  2  3 31 18 27 10 16            -0.000101889
  -1093813.448 9   -846098.81649  20611927.911    20611927.7194   20611933.1204
        -0.000          -0.000
  -2835145.838 9  -2186214.12346  23592860.954    23592860.2434   23592867.6844
        -0.000          -0.000
    291905.126 9    226939.47246  23290409.622    23290409.3154   23290415.2154
        -0.000          -0.000
  -1670706.904 9  -1145055.94148  21605737.345    21605736.9304   21605742.4074
        -0.000          -0.000
      5625.155 9     19910.13049  20202601.327    20202601.1004   20202606.1934
        -0.000          -0.000
  -2544819.904 9  -1970493.77547  22186186.090    22186185.8044   22186191.4224
        -0.000          -0.000
  -1967840.453 9  -1521557.68445  24157606.539    24157605.7474   24157612.2194
        -0.000          -0.000
   2301402.571 9   1782372.65146  23932810.691    23932810.1404   23932817.9424
        -0.000          -0.000
 97  3  5 17 37 29.9990000  0  8 19  2  3 31 18 27 10 16            -0.000116769
  -1127894.803 9   -872655.70849  20605442.371    20605442.2294   20605447.6614
        -0.000          -0.000
  -2935646.240 9  -2264526.08946  23573736.252    23573735.6534   23573742.9044
        -0.000          -0.000
    309002.745 9    240262.28446  23293663.275    23293662.9524   23293668.7894
        -0.000          -0.000
  -1717947.447 9  -1181866.74748  21596747.851    21596747.4334   21596752.8424
        -0.000          -0.000
     13269.015 9     25866.37749  20204055.943    20204055.7234   20204060.7864
        -0.000          -0.000
  -2628661.399 9  -2035824.80747  22170231.544    22170231.3084   22170236.9014
        -0.000          -0.000
  -2028869.659 9  -1569112.95445  24145993.095    24145992.3374   24145999.0824
        -0.000          -0.000
   2377693.888 9   1841820.36646  23947328.310    23947327.9004   23947335.6974
        -0.000          -0.000
 97  3  5 17 37 59.9990000  0  8 19  2  3 31 18 27 10 16            -0.000131673
  -1161836.793 9   -899104.01149  20598983.376    20598983.2314   20598988.7244
        -0.000          -0.000
  -3035970.708 9  -2342700.94246  23554644.891    23554644.3494   23554651.8154
        -0.000          -0.000
    326593.012 9    253968.98446  23297010.593    23297010.3654   23297016.0574
        -0.000          -0.000
  -1764682.435 9  -1218283.62048  21587854.454    21587854.0404   21587859.4134
        -0.000          -0.000
     21384.714 9     32190.28949  20205600.255    20205600.0744   20205605.1784
        -0.000          -0.000
  -2712464.367 9  -2101125.81247  22154284.381    22154284.1584   22154289.6784
        -0.000          -0.000
  -2089448.705 9  -1616317.43046  24134465.362    24134464.5984   24134471.3454
        -0.000          -0.000
   2453938.732 9   1901231.84646  23961837.315    23961836.8754   23961844.6734
        -0.000          -0.000
 97  3  5 17 38 29.9990000  0  8 19  2  3 31 18 27 10 16            -0.000146616
  -1195628.116 9   -925434.91249  20592553.109    20592552.9724   20592558.4504
        -0.000          -0.000
  -3136120.892 9  -2420740.01246  23535586.986    23535586.4034   23535593.8514
        -0.000          -0.000
    344647.738 9    268037.60046  23300446.319    23300446.1064   23300451.7234
        -0.000          -0.000
  -1810897.612 9  -1254295.44248  21579059.966    21579059.5784   21579064.9614
        -0.000          -0.000
     29948.791 9     38863.58649  20207229.957    20207229.7964   20207234.8344
        -0.000          -0.000
  -2796229.451 9  -2166397.29747  22138344.489    22138344.2334   22138349.7674
        -0.000          -0.000
  -2149584.739 9  -1663176.66846  24123021.813    24123021.0504   24123027.9724
        -0.000          -0.000
   2530102.710 9   1960580.30846  23976331.133    23976330.3924   23976338.2104
        -0.000          -0.000
 97  3  5 17 38 59.9990000  0  8 19  2  3 31 18 27 10 16            -0.000161581
  -1229245.576 9   -951630.33349  20586156.031    20586155.8414   20586161.2984
        -0.000          -0.000
  -3236074.174 9  -2498625.63946  23516566.610    23516565.8704   23516573.3694
        -0.000          -0.000
    363196.731 9    282491.33546  23303975.942    23303975.8634   23303981.4674
        -0.000          -0.000
  -1856552.558 9  -1289870.72148  21570372.100    21570371.7324   21570377.1134
        -0.000          -0.000
     38986.096 9     45905.62849  20208949.709    20208949.5654   20208954.5904
        -0.000          -0.000
  -2879926.925 9  -2231616.09647  22122417.308    22122417.1194   22122422.7134
        -0.000          -0.000
  -2209251.431 9  -1709670.20846  24111667.752    24111666.8604   24111673.7384
        -0.000          -0.000
   2606204.650 9   2019880.43346  23990813.057    23990812.1864   23990819.9934
        -0.000          -0.000
 97  3  5 17 39 29.9990000  0  8 19  2  3 31 18 27 10 16            -0.000176582
  -1262719.363 9   -977713.80249  20579786.234    20579786.0414   20579791.4494
        -0.000          -0.000
  -3335842.943 9  -2576367.49246  23497581.191    23497580.4434   23497587.9044
        -0.000          -0.000
    382214.024 9    297310.00346  23307594.932    23307594.8374   23307600.3714
        -0.000          -0.000
  -1901657.604 9  -1325017.51048  21561788.968    21561788.5744   21561793.9094
        -0.000          -0.000
     48485.681 9     53307.89849  20210757.497    20210757.2944   20210762.3404
        -0.000          -0.000
  -2963561.113 9  -2296785.58447  22106502.255    22106502.1074   22106507.6774
        -0.000          -0.000
  -2268478.360 9  -1755821.07346  24100397.118    24100396.3634   24100403.1864
        -0.000          -0.000
   2682226.388 9   2079118.05546  24005279.563    24005278.7414   24005286.6244
        -0.000          -0.000
 97  3  5 17 39 59.9990000  0  8 19  2  3 31 18 27 10 16            -0.000191616
  -1296059.130 9  -1003692.83349  20573441.877    20573441.7034   20573447.1554
        -0.000          -0.000
  -3435423.272 9  -2653962.51546  23478631.343    23478630.7724   23478638.2554
        -0.000          -0.000
    401693.723 9    312488.96346  23311301.775    23311301.5924   23311307.3784
        -0.000          -0.000
  -1946203.340 9  -1359728.47748  21553312.217    21553311.7934   21553317.2074
        -0.000          -0.000
     58460.345 9     61080.35149  20212655.580    20212655.4304   20212660.4704
        -0.000          -0.000
  -3047147.551 9  -2361917.85848  22090596.343    22090596.1784   22090601.7094
        -0.000          -0.000
  -2327265.288 9  -1801629.05246  24089210.571    24089209.6374   24089216.4264
        -0.000          -0.000
   2758188.524 9   2138309.22346  24019734.365    24019733.9444   24019741.8644
        -0.000          -0.000
 97  3  5 17 40 29.9990000  0  8 19  2  3 31 18 27 10 16            -0.000206666
  -1329266.175 9  -1029568.44849  20567122.764    20567122.5974   20567128.0974
        -0.000          -0.000
  -3534791.865 9  -2731392.55446  23459721.950    23459721.6024   23459729.0554
        -0.000          -0.000
    421655.855 9    328043.83846  23315100.569    23315100.3124   23315106.2204
        -0.000          -0.000
  -1990178.093 9  -1393994.51948  21544944.037    21544943.6464   21544949.1014
        -0.000          -0.000
     68918.337 9     69229.42049  20214645.721    20214645.5524   20214650.5694
        -0.000          -0.000
  -3130697.058 9  -2427021.35948  22074697.403    22074697.2354   22074702.7314
        -0.000          -0.000
  -2385587.786 9  -1847075.18846  24078111.870    24078111.0404   24078118.0774
        -0.000          -0.000
   2834094.945 8   2197456.99845  24034178.705    24034178.4744   24034186.5834
        -0.000          -0.000
 97  3  5 17 40 59.9990000  0  8 19  2  3 31 18 27 10 16            -0.000221727
  -1362354.839 9  -1055351.81949  20560826.157    20560825.9974   20560831.5174
        -0.000          -0.000
  -3633973.862 9  -2808677.18646  23440848.638    23440848.0984   23440855.4164
        -0.000          -0.000
    442101.819 9    343975.72446  23318991.286    23318990.9784   23318997.0774
        -0.000          -0.000
  -2033594.126 9  -1427825.19148  21536682.228    21536681.8454   21536687.3544
        -0.000          -0.000
     79858.973 9     77754.58049  20216727.666    20216727.4914   20216732.5434
        -0.000          -0.000
  -3214230.294 9  -2492112.16448  22058801.640    22058801.3804   22058806.8814
        -0.000          -0.000
  -2443446.199 9  -1892159.65046  24067101.868    24067101.0034   24067107.9234
        -0.000          -0.000
   2909954.125 8   2256567.94245  24048614.441    24048614.1414   24048622.3184
        -0.000          -0.000
 97  3  5 17 41 29.9990000  0  8 19  2  3 31 18 27 10 16            -0.000236802
  -1395295.961 9  -1081020.23149  20554557.640    20554557.4864   20554563.0394
        -0.000          -0.000
  -3732968.814 9  -2885816.06247  23422010.672    23422010.1304   23422017.3374
        -0.000          -0.000
    463022.001 9    360277.14046  23322972.302    23322972.0424   23322978.0914
        -0.000          -0.000
  -2076439.453 9  -1461211.15348  21528528.969    21528528.6604   21528534.0904
        -0.000          -0.000
     91294.418 9     86665.30349  20218903.754    20218903.5944   20218908.7034
        -0.000          -0.000
  -3297754.191 9  -2557195.71247  22042907.464    22042907.2434   22042912.6674
        -0.000          -0.000
  -2500827.283 9  -1936872.16846  24056182.625    24056181.6234   24056188.8294
        -0.000          -0.000
   2985784.217 8   2315656.27345  24063044.230    24063043.8724   24063052.5374
        -0.000          -0.000
 97  3  5 17 41 59.9990000  0  8 19  2  3 31 18 27 10 16            -0.000251883
  -1428067.197 9  -1106556.26349  20548321.566    20548321.3834   20548326.9134
        -0.000          -0.000
  -3831778.441 9  -2962810.53947  23403207.823    23403207.2074   23403214.3034
        -0.000          -0.000
    484430.953 9    376959.44446  23327046.285    23327046.1424   23327052.0184
        -0.000          -0.000
  -2118705.958 9  -1494146.08348  21520485.988    21520485.5884   21520490.9654
        -0.000          -0.000
    103237.156 9     95971.31449  20221176.402    20221176.2614   20221181.3854
        -0.000          -0.000
  -3381274.387 9  -2622276.36748  22027013.971    22027013.8564   22027019.2974
        -0.000          -0.000
  -2557711.212 9  -1981197.30546  24045357.766    24045356.9554   24045364.4884
        -0.000          -0.000
   3061591.485 8   2374726.76045  24077469.221    24077469.3854   24077478.4034
        -0.000          -0.000
 97  3  5 17 42 29.9990000  0  8 19  2  3 31 18 27 10 16            -0.000266977
  -1460669.573 9  -1131960.71549  20542117.565    20542117.4184   20542122.9414
        -0.000          -0.000
  -3930415.973 9  -3039670.91947  23384437.447    23384436.9714   23384443.9954
        -0.000          -0.000
    506328.644 9    394022.55146  23331213.182    23331213.0774   23331218.8644
        -0.000          -0.000
  -2160399.700 9  -1526634.71048  21512551.914    21512551.5704   21512556.9194
        -0.000          -0.000
    115688.829 9    105673.89949  20223545.910    20223545.7504   20223550.8704
        -0.000          -0.000
  -3464778.508 9  -2687344.49348  22011123.659    22011123.5164   22011129.0784
        -0.000          -0.000
  -2614092.978 9  -2025131.17946  24034628.993    24034628.0534   24034635.4344
        -0.000          -0.000
   3137344.721 8   2433755.16645  24091884.481    24091884.9044   24091893.7974
        -0.000          -0.000
 97  3  5 17 42 59.9990000  0  8 19  2  3 31 18 27 10 16            -0.000282093
  -1493097.973 9  -1157229.60949  20535946.717    20535946.5404   20535951.9884
        -0.000          -0.000
  -4028881.558 9  -3116397.31147  23365700.139    23365699.6624   23365706.5184
        -0.000          -0.000
    528697.552 9    411452.85046  23335469.924    23335469.6904   23335475.5034
        -0.000          -0.000
  -2201516.442 9  -1558673.71948  21504727.656    21504727.2974   21504732.6664
        -0.000          -0.000
    128653.811 9    115776.46649  20226013.094    20226012.9534   20226018.0294
        -0.000          -0.000
  -3548260.430 9  -2752395.33148  21995237.615    21995237.4744   21995243.0044
        -0.000          -0.000
  -2669985.686 9  -2068683.92946  24023993.132    24023992.1864   24023999.3484
        -0.000          -0.000
   3213045.888 8   2492742.95045  24106290.404    24106290.5814   24106299.2824
        -0.000          -0.000
 97  3  5 17 43 29.9990000  0  8 19  2  3 31 18 27 10 16            -0.000297238
  -1525359.830 9  -1182368.72049  20529807.535    20529807.3104   20529812.7654
        -0.000          -0.000
  -4127142.138 9  -3192963.92547  23347001.722    23347001.2684   23347008.1484
        -0.000          -0.000
    551524.073 9    429239.72846  23339813.680    23339813.4434   23339819.3204
        -0.000          -0.000
  -2242052.934 9  -1590260.58948  21497013.934    21497013.5274   21497018.9464
        -0.000          -0.000
    142133.424 9    126280.04549  20228578.228    20228578.0474   20228583.1444
        -0.000          -0.000
  -3631702.425 9  -2817415.06548  21979359.224    21979359.0464   21979364.4764
        -0.000          -0.000
  -2725391.272 9  -2111857.12346  24013449.603    24013448.7964   24013455.9714
        -0.000          -0.000
   3288678.222 9   2551677.18645  24120683.443    24120683.4084   24120691.4814
        -0.000          -0.000
 97  3  5 17 43 59.9990000  0  8 19  2  3 31 18 27 10 16            -0.000312417
  -1557489.637 9  -1207404.93749  20523693.383    20523693.2334   20523698.7244
        -0.000          -0.000
  -4225192.680 9  -3269366.92947  23328343.216    23328342.8354   23328349.7274
        -0.000          -0.000
    574803.529 9    447379.54946  23344243.777    23344243.4874   23344249.3184
        -0.000          -0.000
  -2282040.007 9  -1621419.34048  21489404.582    21489404.2254   21489409.6504
        -0.000          -0.000
    156103.169 9    137165.54549  20231236.572    20231236.3874   20231241.4794
        -0.000          -0.000
  -3715095.510 9  -2882396.66648  21963489.964    21963489.8224   21963495.3174
        -0.000          -0.000
  -2780318.683 9  -2154657.73246  24002997.200    24002996.4224   24003003.7174
        -0.000          -0.000
   3364202.916 9   2610527.51045  24135055.617    24135055.4094   24135063.2944
        -0.000          -0.000
 97  3  5 17 44 29.9990000  0  8 19  2  3 31 18 27 10 16            -0.000327624
  -1589470.860 9  -1232325.37549  20517607.587    20517607.4364   20517612.8974
        -0.000          -0.000
  -4323006.976 9  -3345585.82547  23309729.747    23309729.4104   23309736.2764
        -0.000          -0.000
    598539.498 9    465875.09946  23348760.387    23348760.3194   23348766.1864
        -0.000          -0.000
  -2321463.043 9  -1652138.57348  21481902.701    21481902.2894   21481907.6684
        -0.000          -0.000
    170568.381 9    148437.11649  20233989.197    20233989.0414   20233994.1544
        -0.000          -0.000
  -3798408.846 9  -2947316.13648  21947635.965    21947635.8084   21947641.2924
        -0.000          -0.000
  -2834756.064 9  -2197076.47846  23992638.051    23992637.3124   23992644.6514
        -0.000          -0.000
   3439638.280 9   2669308.22145  24149410.612    24149410.3114   24149418.5354
        -0.000          -0.000
 97  3  5 17 44 59.9990000  0  8 19  2  3 31 18 27 10 16            -0.000342853
  -1621297.754 9  -1257125.55949  20511551.175    20511551.0394   20511556.4104
        -0.000          -0.000
  -4420574.995 9  -3421612.80347  23291163.363    23291162.8934   23291169.7754
        -0.000          -0.000
    622722.037 9    484718.60146  23353362.309    23353362.2034   23353368.0604
        -0.000          -0.000
  -2360323.429 9  -1682419.38748  21474507.838    21474507.4484   21474512.8254
        -0.000          -0.000
    185508.372 9    160078.64949  20236832.297    20236832.1324   20236837.2174
        -0.000          -0.000
  -3881645.527 9  -3012175.88248  21931796.502    21931796.3244   21931801.7964
        -0.000          -0.000
  -2888711.732 9  -2239119.87946  23982370.813    23982370.0814   23982377.2614
        -0.000          -0.000
   3514996.965 9   2728029.17945  24163750.578    24163750.5544   24163759.0764
        -0.000          -0.000
 97  3  5 17 45 29.9990000  0  8 19  2  3 31 18 27 10 16            -0.000358097
  -1652972.735 9  -1281807.36649  20505523.723    20505523.5224   20505528.8534
        -0.000          -0.000
  -4517909.330 9  -3497457.68947  23272641.321    23272640.8374   23272647.8274
        -0.000          -0.000
    647365.812 9    503921.52446  23358052.017    23358051.7684   23358057.5854
        -0.000          -0.000
  -2398624.424 9  -1712264.31048  21467219.401    21467219.0244   21467224.3824
        -0.000          -0.000
    200906.793 9    172077.39749  20239762.591    20239762.4144   20239767.4984
        -0.000          -0.000
  -3964796.910 9  -3076969.15848  21915973.427    21915973.1584   21915978.5804
        -0.000          -0.000
  -2942175.734 9  -2280780.18046  23972196.931    23972196.1244   23972203.4234
        -0.000          -0.000
   3590269.987 9   2786683.39646  24178074.685    24178074.5274   24178083.1614
        -0.000          -0.000
 97  3  5 17 45 59.9990000  0  8 19  2  3 31 18 27 10 16            -0.000373347
  -1684475.061 9  -1306354.64549  20499529.010    20499528.8224   20499534.1354
        -0.000          -0.000
  -4615027.669 9  -3573134.29147  23254160.230    23254159.7114   23254166.7694
        -0.000          -0.000
    672495.098 9    523502.77646  23362833.752    23362833.6974   23362839.4134
        -0.000          -0.000
  -2436367.485 9  -1741674.47148  21460037.094    21460036.7264   21460042.0344
        -0.000          -0.000
    216758.082 9    184429.02749  20242779.012    20242778.8064   20242783.9214
        -0.000          -0.000
  -4047863.059 9  -3141696.03548  21900166.472    21900166.1814   21900171.5854
        -0.000          -0.000
  -2995139.376 9  -2322050.56146  23962118.002    23962117.3814   23962124.7944
        -0.000          -0.000
   3665465.392 9   2845277.12746  24192384.111    24192383.8514   24192392.4204
        -0.000          -0.000
 97  3  5 17 46 29.9990000  0  8 19  2  3 31 18 27 10 16            -0.000388603
  -1715791.603 9  -1330757.15449  20493569.578    20493569.4174   20493574.7814
        -0.000          -0.000
  -4711944.111 9  -3648653.55847  23235717.470    23235717.1084   23235724.2164
        -0.000          -0.000
    698102.875 9    543456.85746  23367706.819    23367706.6944   23367712.5114
        -0.000          -0.000
  -2473532.467 9  -1770634.18748  21452964.807    21452964.4524   21452969.7314
        -0.000          -0.000
    233064.910 9    197135.62449  20245882.061    20245881.8884   20245886.9914
        -0.000          -0.000
  -4130861.663 9  -3206370.26848  21884372.357    21884372.1044   21884377.5114
        -0.000          -0.000
  -3047614.423 9  -2362940.25246  23952132.569    23952131.8544   23952139.2434
        -0.000          -0.000
   3740594.908 9   2903819.48246  24206680.977    24206680.6034   24206689.1934
        -0.000          -0.000
 97  3  5 17 46 59.9990000  0  8 19  2  3 31 18 27 10 16            -0.000403862
  -1746915.797 9  -1355009.78349  20487646.754    20487646.6374   20487652.0534
        -0.000          -0.000
  -4808654.391 9  -3724012.17147  23217314.128    23217313.6884   23217320.7964
        -0.000          -0.000
    724205.993 9    563796.92046  23372674.104    23372674.0644   23372679.8424
        -0.000          -0.000
  -2510115.723 9  -1799140.60648  21446003.307    21446002.9014   21446008.1794
        -0.000          -0.000
    249845.432 9    210211.32949  20249075.396    20249075.1874   20249080.2504
        -0.000          -0.000
  -4213797.088 9  -3270995.26348  21868590.332    21868590.0304   21868595.4584
        -0.000          -0.000
  -3099598.582 9  -2403447.39946  23942240.505    23942239.7124   23942246.9744
        -0.000          -0.000
   3815662.251 9   2962313.40846  24220966.049    24220965.6944   24220973.9794
        -0.000          -0.000
 97  3  5 17 47 29.9990000  0  8 19  2  3 31 18 27 10 16            -0.000419134
  -1777857.302 9  -1379120.05649  20481758.793    20481758.6834   20481764.1024
        -0.000          -0.000
  -4905175.996 9  -3799223.76047  23198946.726    23198946.1734   23198953.3224
        -0.000          -0.000
    750794.498 9    584515.21546  23377733.929    23377733.7314   23377739.5074
        -0.000          -0.000
  -2546129.629 9  -1827203.37148  21439150.126    21439149.7454   21439155.0254
        -0.000          -0.000
    267103.780 9    223659.37849  20252359.560    20252359.3734   20252364.4294
        -0.000          -0.000
  -4296692.691 9  -3335589.22948  21852815.724    21852815.4914   21852820.9554
        -0.000          -0.000
  -3151112.479 9  -2443588.09646  23932437.767    23932436.9884   23932444.1174
        -0.000          -0.000
   3890662.796 9   3020755.27746  24235238.269    24235237.8944   24235246.2024
        -0.000          -0.000
 97  3  5 17 47 59.9990000  0  8 19  2  3 31 18 27 10 16            -0.000434425
  -1808607.735 9  -1403081.44549  20475907.274    20475907.1444   20475912.5484
        -0.000          -0.000
  -5001498.062 9  -3874279.85347  23180617.006    23180616.4934   23180623.7914
        -0.000          -0.000
    777854.642 9    605600.99846  23382883.397    23382883.2464   23382888.9904
        -0.000          -0.000
  -2581565.073 9  -1854815.40548  21432406.950    21432406.5444   21432411.9034
        -0.000          -0.000
    284877.211 9    237508.77749  20255741.815    20255741.5724   20255746.6464
        -0.000          -0.000
  -4379549.905 9  -3400153.29448  21837048.552    21837048.3464   21837053.8004
        -0.000          -0.000
  -3202157.646 8  -2483363.58746  23922724.078    23922723.4334   23922730.4924
        -0.000          -0.000
   3965614.984 9   3079159.47146  24249501.235    24249500.9104   24249509.1714
        -0.000          -0.000
 97  3  5 17 48 29.9990000  0  8 19  2  3 31 18 27 10 16            -0.000449737
  -1839177.965 9  -1426902.41449  20470090.017    20470089.8924   20470095.2464
        -0.000          -0.000
  -5097604.884 9  -3949168.26647  23162328.427    23162327.9844   23162335.3164
        -0.000          -0.000
    805375.995 9    627046.18446  23388120.535    23388120.3424   23388126.0114
        -0.000          -0.000
  -2616406.806 9  -1881964.79848  21425776.875    21425776.4544   21425781.8104
        -0.000          -0.000
    303193.290 9    251781.01849  20259227.311    20259227.0494   20259232.1104
        -0.000          -0.000
  -4462370.492 9  -3464688.82248  21821288.246    21821288.1074   21821293.5834
        -0.000          -0.000
  -3252737.359 9  -2522776.35146  23913098.765    23913098.1974   23913105.3274
        -0.000          -0.000
   4040528.572 9   3137533.60546  24263756.658    24263756.5214   24263764.9554
        -0.000          -0.000
 97  3  5 17 48 59.9990000  0  8 19  2  3 31 18 27 10 16            -0.000465069
  -1869590.084 9  -1450600.17249  20464302.834    20464302.7284   20464308.0604
        -0.000          -0.000
  -5193505.527 9  -4023895.99647  23144079.097    23144078.7674   23144085.9984
        -0.000          -0.000
    833352.137 9    648845.73346  23393444.153    23393443.9754   23393449.8274
        -0.000          -0.000
  -2650669.438 9  -1908662.94148  21419256.867    21419256.4874   21419261.7824
        -0.000          -0.000
    322041.720 9    266468.08049  20262814.011    20262813.7564   20262818.9134
        -0.000          -0.000
  -4545156.919 9  -3529197.72648  21805534.552    21805534.3734   21805539.8594
        -0.000          -0.000
  -3302848.973 9  -2561824.37046  23903562.995    23903562.4184   23903569.5814
        -0.000          -0.000
   4115384.279 9   3195862.59246  24278001.349    24278001.2194   24278009.6374
        -0.000          -0.000
 97  3  5 17 49 29.9990000  0  8 19  2  3 31 18 27 10 16            -0.000480427
  -1899861.978 9  -1474188.66649  20458542.333    20458542.1864   20458547.5134
        -0.000          -0.000
  -5289206.825 9  -4098468.38847  23125868.045    23125867.5054   23125874.6554
        -0.000          -0.000
    861763.314 9    670984.27946  23398850.555    23398850.4544   23398856.3524
        -0.000          -0.000
  -2684349.928 9  -1934907.47848  21412847.677    21412847.2944   21412852.5954
        -0.000          -0.000
    341408.436 9    281559.00449  20266499.338    20266499.1154   20266504.3194
        -0.000          -0.000
  -4627903.626 9  -3593675.67448  21789788.483    21789788.2534   21789793.7004
        -0.000          -0.000
  -3352478.505 9  -2600496.76246  23894118.920    23894118.2964   23894125.6574
        -0.000          -0.000
   4190158.027 8   3254127.70646  24292230.569    24292230.3584   24292238.6574
        -0.000          -0.000
 97  3  5 17 49 59.9990000  0  8 19  2  3 31 18 27 10 16            -0.000495810
  -1929985.750 9  -1497661.74849  20452809.949    20452809.8644   20452815.1584
        -0.000          -0.000
  -5384700.848 9  -4172879.27747  23107696.143    23107695.4364   23107702.6254
        -0.000          -0.000
    890610.699 9    693462.72346  23404340.127    23404339.8634   23404345.9434
        -0.000          -0.000
  -2717428.251 9  -1960682.79648  21406553.062    21406552.6624   21406557.9274
        -0.000          -0.000
    361294.691 9    297054.76149  20270283.615    20270283.3854   20270288.5624
        -0.000          -0.000
  -4710587.328 9  -3658104.53548  21774054.410    21774054.1264   21774059.4674
        -0.000          -0.000
  -3401605.811 9  -2638777.80646  23884770.527    23884769.8484   23884777.0504
        -0.000          -0.000
   4264834.251 8   3312316.85946  24306440.964    24306440.8714   24306449.3364
        -0.000          -0.000
 97  3  5 17 50 29.9990000  0  8 19  2  3 31 18 27 10 16            -0.000511213
  -1959960.231 9  -1521018.49249  20447106.010    20447105.9134   20447111.1764
        -0.000          -0.000
  -5479989.845 9  -4247130.41447  23089562.936    23089562.4684   23089569.7464
        -0.000          -0.000
    919904.898 9    716289.33445  23409914.725    23409914.3244   23409920.2994
        -0.000          -0.000
  -2749908.401 9  -1985992.00248  21400372.277    21400371.9614   21400377.2524
        -0.000          -0.000
    381657.564 9    312921.91549  20274158.633    20274158.3824   20274163.4734
        -0.000          -0.000
  -4793203.485 9  -3722480.75048  21758333.139    21758332.8794   21758338.1964
        -0.000          -0.000
  -3450230.079 9  -2676666.86546  23875517.706    23875517.0334   23875524.2274
        -0.000          -0.000
   4339386.867 8   3370409.65945  24320627.399    24320627.5614   24320636.4054
        -0.000          -0.000
 97  3  5 17 50 59.9990000  0  8 19  2  3 31 18 27 10 16            -0.000526628
  -1989766.985 9  -1544244.54049  20441434.012    20441433.8804   20441439.1644
        -0.000          -0.000
  -5575070.766 9  -4321219.41347  23071469.625    23071469.2044   23071476.3464
        -0.000          -0.000
    949661.149 8    739475.99745  23415577.336    23415576.8244   23415583.0184
        -0.000          -0.000
  -2781790.648 9  -2010835.31348  21394305.329    21394304.9714   21394310.2434
        -0.000          -0.000
    402474.890 9    329143.18849  20278120.032    20278119.8104   20278124.9074
        -0.000          -0.000
  -4875742.938 9  -3786797.19548  21742626.344    21742626.0934   21742631.4874
        -0.000          -0.000
  -3498344.149 9  -2714158.36246  23866361.827    23866361.1624   23866368.1584
        -0.000          -0.000
   4413806.497 8   3428398.82345  24334788.776    24334788.8964   24334798.2024
        -0.000          -0.000
 97  3  5 17 51 29.9990000  0  8 19  2  3 31 18 27 10 16            -0.000542062
  -2019393.273 9  -1567329.97149  20435796.270    20435796.1534   20435801.4774
        -0.000          -0.000
  -5669931.065 9  -4395136.47547  23053418.320    23053417.8214   23053424.9624
        -0.000          -0.000
    979874.580 9    763018.89045  23421326.320    23421326.2934   23421332.4584
        -0.000          -0.000
  -2813073.166 9  -2035211.30648  21388352.503    21388352.1024   21388357.3904
        -0.000          -0.000
    423752.681 9    345723.26249  20282169.041    20282168.8674   20282173.9674
        -0.000          -0.000
  -4958205.106 9  -3851053.43048  21726934.290    21726934.0474   21726939.4564
        -0.000          -0.000
  -3545957.192 9  -2751259.48046  23857301.595    23857300.8244   23857307.6654
        -0.000          -0.000
   4488092.948 8   3486284.24045  24348925.550    24348925.2294   24348934.5654
        -0.000          -0.000
 97  3  5 17 51 59.9990000  0  8 19  2  3 31 18 27 10 16            -0.000557525
  -2048852.775 9  -1590285.43249  20430190.274    20430190.1644   20430195.5374
        -0.000          -0.000
  -5764582.810 9  -4468891.04347  23035406.717    23035406.1304   23035413.2874
        -0.000          -0.000
   1010534.677 9    786909.83445  23427160.810    23427160.6754   23427166.8654
        -0.000          -0.000
  -2843791.276 9  -2059147.49848  21382506.951    21382506.5994   21382511.8834
        -0.000          -0.000
    445467.661 9    362644.00049  20286301.263    20286301.0964   20286306.2484
        -0.000          -0.000
  -5040623.870 9  -3915275.83948  21711250.540    21711250.2844   21711255.6164
        -0.000          -0.000
  -3593106.703 9  -2787999.38246  23848329.333    23848328.6064   23848335.4874
        -0.000          -0.000
   4562232.107 8   3544054.82745  24363034.231    24363033.8924   24363043.1184
        -0.000          -0.000
 97  3  5 17 52 29.9990000  0  8 19  2  3 31 18 27 10 16            -0.000572982
  -2078096.060 9  -1613072.42149  20424625.423    20424625.3264   20424630.7144
        -0.000          -0.000
  -5858962.852 9  -4542433.91447  23017446.745    23017446.2434   23017453.3694
        -0.000          -0.000
   1041699.052 8    811193.74545  23433091.493    23433091.2494   23433097.3304
        -0.000          -0.000
  -2873907.934 9  -2082615.03148  21376775.953    21376775.6364   21376780.9254
        -0.000          -0.000
    467683.356 9    379954.91049  20290528.829    20290528.6394   20290533.7874
        -0.000          -0.000
  -5122954.107 9  -3979429.26248  21695583.643    21695583.3804   21695588.7144
        -0.000          -0.000
  -3639744.919 9  -2824340.86846  23839454.410    23839453.6804   23839460.5804
        -0.000          -0.000
   4636287.811 8   3601760.39445  24377126.831    24377126.5064   24377135.6124
        -0.000          -0.000
 97  3  5 17 52 59.9990000  0  8 19  2  3 31 18 27 10 16            -0.000588454
  -2107158.296 9  -1635718.32949  20419095.085    20419094.9654   20419100.3884
        -0.000          -0.000
  -5953096.279 9  -4615784.59047  22999533.880    22999533.3144   22999540.3994
        -0.000          -0.000
   1073328.298 8    835839.84045  23439110.016    23439110.1024   23439116.2534
        -0.000          -0.000
  -2903456.754 9  -2105640.09848  21371153.101    21371152.7294   21371158.0444
        -0.000          -0.000
    490400.083 9    397656.22849  20294851.695    20294851.5364   20294856.6934
        -0.000          -0.000
  -5205227.428 9  -4043538.33748  21679927.531    21679927.3194   21679932.6124
        -0.000          -0.000
  -3685899.502 9  -2860305.52046  23830671.444    23830670.8504   23830677.4564
        -0.000          -0.000
   4710245.497 8   3659389.63945  24391200.831    24391200.4534   24391209.3834
        -0.000          -0.000
 97  3  5 17 53 29.9990000  0  8 19  2  3 31 18 27 10 16            -0.000603946
  -2136049.021 9  -1658230.58949  20413597.388    20413597.2414   20413602.7104
        -0.000          -0.000
  -6046988.909 9  -4688947.65047  22981666.788    22981666.1734   22981673.0764
        -0.000          -0.000
   1105398.779 9    860829.77745  23445212.800    23445213.0474   23445219.1084
        -0.000          -0.000
  -2932439.430 9  -2128224.01248  21365637.890    21365637.5174   21365642.7974
        -0.000          -0.000
    513627.155 9    415755.23049  20299271.721    20299271.5374   20299276.6994
        -0.000          -0.000
  -5287440.536 9  -4107600.49048  21664282.883    21664282.6894   21664288.0044
        -0.000          -0.000
  -3731566.397 9  -2895890.14646  23821981.339    23821980.6064   23821987.2784
        -0.000          -0.000
   4784109.976 8   3716946.22345  24405256.618    24405256.4824   24405265.6624
        -0.000          -0.000
 97  3  5 17 53 59.9990000  0  8 19  2  3 31 18 27 10 16            -0.000619450
  -2164756.487 9  -1680600.06049  20408134.581    20408134.4324   20408139.8874
        -0.000          -0.000
  -6140639.305 9  -4761921.95647  22963845.545    22963845.0014   22963851.8444
        -0.000          -0.000
   1137919.843 8    886170.82845  23451401.815    23451401.5634   23451407.5374
        -0.000          -0.000
  -2960853.571 9  -2150364.91148  21360230.855    21360230.4504   21360235.6954
        -0.000          -0.000
    537369.242 9    434255.53549  20303789.703    20303789.5194   20303794.6954
        -0.000          -0.000
  -5369582.628 9  -4171607.30848  21648651.763    21648651.5704   21648656.8904
        -0.000          -0.000
  -3776730.746 9  -2931083.17146  23813386.733    23813385.9964   23813393.0484
        -0.000          -0.000
   4857884.660 8   3774432.86345  24419295.489    24419295.4644   24419304.6824
        -0.000          -0.000
 97  3  5 17 54 29.9990000  0  8 19  2  3 31 18 27 10 16            -0.000634979
  -2193298.740 9  -1702840.78749  20402703.254    20402703.1024   20402708.5764
        -0.000          -0.000
  -6234079.247 9  -4834732.28147  22946064.434    22946064.0004   22946070.6834
        -0.000          -0.000
   1170864.326 9    911841.81845  23457670.753    23457670.7424   23457676.7534
        -0.000          -0.000
  -2988697.177 9  -2172061.24548  21354932.434    21354932.0184   21354937.2364
        -0.000          -0.000
    561611.099 9    453145.27649  20308402.745    20308402.5754   20308407.7374
        -0.000          -0.000
  -5451660.819 9  -4235564.32348  21633032.803    21633032.5434   21633037.8824
        -0.000          -0.000
  -3821398.928 9  -2965889.56846  23804886.665    23804886.0204   23804893.2434
        -0.000          -0.000
   4931549.099 8   3831833.57945  24433313.442    24433313.3594   24433322.5174
        -0.000          -0.000
 97  3  5 17 54 59.9990000  0  8 19  2  3 31 18 27 10 16            -0.000650526
  -2221681.734 9  -1724957.41449  20397302.206    20397302.0124   20397307.4804
        -0.000          -0.000
  -6327332.067 9  -4907396.76647  22928319.275    22928318.6954   22928325.3924
        -0.000          -0.000
   1204225.926 9    937837.84145  23464019.554    23464019.4074   23464025.2694
        -0.000          -0.000
  -3015951.879 9  -2193298.68348  21349746.136    21349745.6694   21349750.9054
        -0.000          -0.000
    586325.232 9    472403.01449  20313105.745    20313105.5494   20313110.7334
        -0.000          -0.000
  -5533668.445 9  -4299466.37248  21617427.181    21617426.9874   21617432.3814
        -0.000          -0.000
  -3865559.982 9  -3000300.79646  23796483.240    23796482.5484   23796489.6614
        -0.000          -0.000
   5005095.096 8   3889142.00745  24447308.894    24447308.9004   24447317.8144
        -0.000          -0.000
 97  3  5 17 55 29.9990000  0  8 19  2  3 31 18 27 10 16            -0.000666084
  -2249886.737 9  -1746935.34649  20391934.986    20391934.8474   20391940.2964
        -0.000          -0.000
  -6420388.820 9  -4979908.49747  22910611.178    22910610.5654   22910617.2204
        -0.000          -0.000
   1238019.768 8    964170.65645  23470450.626    23470450.0464   23470455.9214
        -0.000          -0.000
  -3042587.953 9  -2214054.07548  21344677.476    21344677.0474   21344682.3314
        -0.000          -0.000
    611511.402 9    492028.58149  20317898.503    20317898.2924   20317903.5084
        -0.000          -0.000
  -5615595.191 9  -4363305.38448  21601837.105    21601836.9094   21601842.2934
        -0.000          -0.000
  -3909196.112 9  -3034303.01346  23788179.697    23788178.9764   23788185.7834
        -0.000          -0.000
   5078517.971 9   3946354.45945  24461280.937    24461280.7874   24461289.8774
        -0.000          -0.000
 97  3  5 17 55 59.9990000  0  8 19  2  3 31 18 27 10 16            -0.000681640
  -2277906.629 9  -1768769.03849  20386602.958    20386602.8484   20386608.2574
        -0.000          -0.000
  -6513245.281 9  -5052264.13647  22892940.960    22892940.4484   22892947.1904
        -0.000          -0.000
   1272276.114 8    990863.88345  23476969.127    23476968.6534   23476974.8864
        -0.000          -0.000
  -3068587.867 9  -2234313.75848  21339729.821    21339729.4034   21339734.7314
        -0.000          -0.000
    637174.691 9    512025.92249  20322782.036    20322781.8814   20322787.1194
        -0.000          -0.000
  -5697437.813 9  -4427078.85848  21586262.942    21586262.7414   21586268.1444
        -0.000          -0.000
  -3952304.663 9  -3067894.07546  23779976.303    23779975.6064   23779982.6674
        -0.000          -0.000
   5151823.556 9   4003475.59745  24475230.813    24475230.4904   24475239.3054
        -0.000          -0.000
 97  3  5 17 56 29.9990000  0  8 19  2  3 31 18 27 10 16            -0.000697191
  -2305750.669 9  -1790465.70049  20381304.406    20381304.3464   20381309.6854
        -0.000          -0.000
  -6605909.114 9  -5124469.67847  22875307.675    22875307.1054   22875313.7764
        -0.000          -0.000
   1306989.248 8   1017913.06145  23483574.606    23483574.4994   23483580.7294
        -0.000          -0.000
  -3093942.470 9  -2254070.59848  21334904.975    21334904.6224   21334909.9244
        -0.000          -0.000
    663298.867 9    532382.40049  20327753.390    20327753.1994   20327758.4094
        -0.000          -0.000
  -5779205.973 9  -4490794.30348  21570702.998    21570702.8434   21570708.1694
        -0.000          -0.000
  -3994897.353 9  -3101083.20946  23771871.356    23771870.6164   23771877.5884
        -0.000          -0.000
   5225016.395 9   4060508.80745  24489159.413    24489158.9784   24489167.6704
        -0.000          -0.000
 97  3  5 17 56 59.9990000  0  8 19  2  3 31 18 27 10 16            -0.000712740
  -2333402.456 9  -1812012.55149  20376042.486    20376042.3694   20376047.7114
        -0.000          -0.000
  -6698368.968 9  -5196516.28747  22857713.061    22857712.4954   22857719.2224
        -0.000          -0.000
   1342167.711 8   1045324.82345  23490269.009    23490268.9554   23490275.2684
        -0.000          -0.000
  -3118663.553 9  -2273333.77648  21330200.793    21330200.3894   21330205.5664
        -0.000          -0.000
    689879.120 9    553094.26149  20332811.533    20332811.3484   20332816.5114
        -0.000          -0.000
  -5860907.904 9  -4554458.13848  21555155.583    21555155.4364   21555160.8574
        -0.000          -0.000
  -4036991.325 9  -3133883.71146  23763861.136    23763860.4024   23763867.3134
        -0.000          -0.000
   5298089.416 9   4117448.68845  24503064.887    24503064.3514   24503072.8844
        -0.000          -0.000
 97  3  5 17 57 29.9990000  0  7 19  2  3 31 18 27 10               -0.000728148
  -2360837.748 9  -1833390.70149  20370821.664    20370821.5544   20370826.9484
        -0.000          -0.000
  -6790585.820 9  -5268373.54347  22840164.673    22840164.2134   22840171.0384
        -0.000          -0.000
   1377828.946 9   1073112.73345  23497055.578    23497055.2674   23497061.3854
        -0.000          -0.000
  -3142762.208 9  -2292111.93948  21325615.073    21325614.6544   21325619.7674
        -0.000          -0.000
    716947.757 9    574186.67949  20337962.550    20337962.3424   20337967.5484
        -0.000          -0.000
  -5942541.729 9  -4618068.89548  21539621.139    21539621.0414   21539626.4954
        -0.000          -0.000
  -4078596.774 9  -3166303.54846  23755943.778    23755943.1424   23755950.1214
        -0.000          -0.000
 97  3  5 17 57 59.9990000  0  7 19  2  3 31 18 27 10               -0.000743720
  -2388064.001 9  -1854605.97549  20365640.573    20365640.5214   20365645.9954
        -0.000          -0.000
  -6882559.238 9  -5340041.11047  22822662.868    22822662.3004   22822669.1444
        -0.000          -0.000
   1413956.487 8   1101264.02645  23503930.903    23503930.2384   23503936.2624
        -0.000          -0.000
  -3166269.868 9  -2310429.59648  21321141.620    21321141.2514   21321146.4514
        -0.000          -0.000
    744490.069 9    595648.19549  20343203.718    20343203.5034   20343208.7234
        -0.000          -0.000
  -6024108.673 9  -4681627.54448  21524099.473    21524099.3564   21524104.8024
        -0.000          -0.000
  -4119735.842 9  -3198359.98446  23748115.394    23748114.6834   23748121.6304
        -0.000          -0.000
 97  3  5 17 58 29.9990000  0  7 19  2  3 31 18 27 10               -0.000759318
  -2415063.624 9  -1875644.64849  20360502.752    20360502.7074   20360508.1784
        -0.000          -0.000
  -6974269.699 9  -5411503.77147  22805211.012    22805210.3814   22805217.1744
        -0.000          -0.000
   1450532.007 8   1129764.36645  23510890.871    23510890.1804   23510896.3914
        -0.000          -0.000
  -3189192.204 9  -2328291.15248  21316779.654    21316779.2814   21316784.4774
        -0.000          -0.000
    772502.174 9    617475.77949  20348534.233    20348534.0234   20348539.2584
        -0.000          -0.000
  -6105600.640 9  -4745127.76648  21508592.009    21508591.8824   21508597.3234
        -0.000          -0.000
  -4160409.718 9  -3230053.93346  23740375.342    23740374.7504   23740381.7174
        -0.000          -0.000
 97  3  5 17 58 59.9990000  0  7 19  2  3 31 18 27 10               -0.000774933
  -2441845.234 9  -1896513.44349  20355406.409    20355406.3554   20355411.8184
        -0.000          -0.000
  -7065708.561 9  -5482754.80347  22787810.582    22787810.0274   22787816.9394
        -0.000          -0.000
   1487551.644 8   1158610.81245  23517935.563    23517934.8524   23517940.9264
        -0.000          -0.000
  -3211540.536 9  -2345705.42248  21312526.922    21312526.5254   21312531.6984
        -0.000          -0.000
    801001.985 9    639683.39749  20353957.487    20353957.3294   20353962.6084
        -0.000          -0.000
  -6187012.668 9  -4808565.70448  21493099.884    21493099.6874   21493105.1164
        -0.000          -0.000
  -4200610.837 9  -3261379.50446  23732725.331    23732724.6574   23732731.6454
        -0.000          -0.000
 97  3  5 17 59 29.9990000  0  7 19  2  3 31 18 27 10               -0.000790558
  -2468430.200 9  -1917229.00649  20350347.533    20350347.4384   20350352.8974
        -0.000          -0.000
  -7156872.845 9  -5553791.86547  22770462.495    22770462.0074   22770468.9034
        -0.000          -0.000
   1525004.680 8   1187794.93845  23525062.679    23525061.8694   23525068.0354
        -0.000          -0.000
  -3233313.666 9  -2362671.48748  21308383.544    21308383.1834   21308388.3864
        -0.000          -0.000
    829995.618 9    662275.81149  20359474.809    20359474.6694   20359479.9544
        -0.000          -0.000
  -6268335.777 9  -4871934.36148  21477624.684    21477624.4504   21477629.8354
        -0.000          -0.000
  -4240321.002 9  -3292322.54246  23725168.811    23725168.0774   23725175.1304
        -0.000          -0.000
 97  3  5 17 59 59.9990000  0  7 19  2  3 31 18 27 10               -0.000806190
  -2494822.311 9  -1937794.28949  20345325.348    20345325.2244   20345330.6704
        -0.000          -0.000
  -7247774.515 9  -5624624.30047  22753164.592    22753164.0624   22753170.9044
        -0.000          -0.000
   1562880.056 9   1217308.15345  23532269.650    23532269.0894   23532275.4604
        -0.000          -0.000
  -3254489.683 9  -2379172.27348  21304353.877    21304353.5034   21304358.8004
        -0.000          -0.000
    859479.356 9    685250.12549  20365085.432    20365085.2854   20365090.5094
        -0.000          -0.000
  -6349560.399 9  -4935226.27348  21462168.189    21462167.9104   21462173.2954
        -0.000          -0.000
  -4279517.166 9  -3322865.03646  23717710.201    23717709.4014   23717716.3944
        -0.000          -0.000
 97  3  5 18  0 29.9990000  0  7 19  2  3 31 18 27 10               -0.000821808
  -2521034.434 9  -1958219.33349  20340337.367    20340337.2484   20340342.6934
        -0.000          -0.000
  -7338420.456 9  -5695257.46347  22735915.230    22735914.6344   22735921.5044
        -0.000          -0.000
   1601187.568 9   1247158.12645  23539559.334    23539558.9524   23539565.0614
        -0.000          -0.000
  -3275042.888 9  -2395187.74448  21300442.690    21300442.3514   21300447.6174
        -0.000          -0.000
    889463.709 9    708614.52549  20370791.320    20370791.1554   20370796.3704
        -0.000          -0.000
  -6430696.961 9  -4998449.55248  21446728.386    21446728.1194   21446733.5754
        -0.000          -0.000
  -4318176.549 9  -3352989.24346  23710353.580    23710352.8144   23710359.7994
        -0.000          -0.000
 97  3  5 18  0 59.9990000  0  7 19  2  3 31 18 27 10               -0.000837416
  -2547107.942 9  -1978536.36049  20335375.835    20335375.7024   20335381.1384
        -0.000          -0.000
  -7428848.752 9  -5765721.05347  22718707.236    22718706.7174   22718713.5084
        -0.000          -0.000
   1639911.068 9   1277332.23145  23546928.482    23546927.9304   23546933.8944
        -0.000          -0.000
  -3294993.996 9  -2410734.04448  21296646.190    21296645.8494   21296651.0744
        -0.000          -0.000
    919938.407 9    732361.01049  20376590.536    20376590.3404   20376595.5204
        -0.000          -0.000
  -6511759.431 9  -5061615.10848  21431302.802    21431302.4484   21431307.8884
        -0.000          -0.000
  -4356310.810 9  -3382704.25546  23703096.822    23703096.0294   23703103.0564
        -0.000          -0.000
 97  3  5 18  1 29.9990000  0  7 19  2  3 31 18 27 10               -0.000853022
  -2573024.555 9  -1998731.12549  20330444.096    20330443.9574   20330449.3524
        -0.000          -0.000
  -7519058.158 9  -5836014.06647  22701541.099    22701540.4314   22701547.1974
        -0.000          -0.000
   1679047.769 9   1307828.32245  23554375.894    23554375.3954   23554381.4814
        -0.000          -0.000
  -3314328.775 9  -2425800.09248  21292967.002    21292966.6164   21292971.7664
        -0.000          -0.000
    950888.081 9    756477.61049  20382480.134    20382479.9334   20382485.1274
        -0.000          -0.000
  -6592740.997 9  -5124717.61848  21415892.424    21415892.1564   21415897.6304
        -0.000          -0.000
  -4393919.372 9  -3412009.68646  23695940.163    23695939.3134   23695946.3454
        -0.000          -0.000
 97  3  5 18  1 59.9990000  0  7 19  2  3 31 18 27 10               -0.000868620
  -2598770.559 9  -2018792.95249  20325544.799    20325544.6984   20325550.0514
        -0.000          -0.000
  -7609042.948 9  -5906132.05947  22684417.445    22684416.8054   22684423.5934
        -0.000          -0.000
   1718611.724 9   1338657.35045  23561904.874    23561904.4234   23561910.2694
        -0.000          -0.000
  -3333022.944 9  -2440366.97448  21289409.589    21289409.2194   21289414.4134
        -0.000          -0.000
    982306.956 9    780959.82849  20388458.956    20388458.7544   20388463.9774
        -0.000          -0.000
  -6673637.152 9  -5187753.58148  21400498.421    21400498.2134   21400503.6514
        -0.000          -0.000
  -4431006.400 9  -3440908.67746  23688882.700    23688881.8384   23688888.9024
        -0.000          -0.000
 97  3  5 18  2 29.9990000  0  7 19  2  3 31 18 27 10               -0.000884212
  -2624353.547 9  -2038727.76249  20320676.554    20320676.3894   20320681.7794
        -0.000          -0.000
  -7698798.546 9  -5976071.45847  22667337.219    22667336.7894   22667343.6344
        -0.000          -0.000
   1758603.899 9   1369820.01945  23569515.497    23569514.8244   23569520.6914
        -0.000          -0.000
  -3351087.091 9  -2454442.93048  21285972.015    21285971.6584   21285976.9174
        -0.000          -0.000
   1014179.855 9    805795.81949  20394524.144    20394523.9654   20394529.1914
        -0.000          -0.000
  -6754449.780 9  -5250724.45848  21385120.332    21385120.1394   21385125.4864
        -0.000          -0.000
  -4467591.521 9  -3469416.59646  23681920.796    23681919.9984   23681927.2634
        -0.000          -0.000
 97  3  5 18  2 59.9990000  0  7 19  2  3 31 18 27 10               -0.000899814
  -2649753.069 9  -2058519.60749  20315843.080    20315842.9754   20315848.4254
        -0.000          -0.000
  -7788319.962 9  -6045828.37147  22650301.845    22650301.4324   22650308.2904
        -0.000          -0.000
   1799017.590 9   1401311.14745  23577205.742    23577205.0114   23577211.1244
        -0.000          -0.000
  -3368536.383 9  -2468039.77148  21282651.480    21282651.1574   21282656.4144
        -0.000          -0.000
   1046502.885 9    830982.56649  20400675.109    20400674.8874   20400680.1234
        -0.000          -0.000
  -6835176.256 9  -5313628.19048  21369758.639    21369758.3744   21369763.7154
        -0.000          -0.000
  -4503685.795 9  -3497542.01046  23675052.394    23675051.5634   23675058.8754
        -0.000          -0.000
 97  3  5 18  3 29.9990000  0  7 19  2  3 31 18 27 10               -0.000915412
  -2674942.593 9  -2078147.82549  20311049.625    20311049.5034   20311055.0514
        -0.000          -0.000
  -7877588.408 9  -6115388.14647  22633314.778    22633314.2024   22633321.1554
        -0.000          -0.000
   1839866.019 9   1433141.04646  23584978.812    23584978.1404   23584984.3724
        -0.000          -0.000
  -3385355.984 9  -2481145.95348  21279450.941    21279450.5434   21279455.8094
        -0.000          -0.000
   1079280.408 9    856523.46149  20406912.517    20406912.2784   20406917.5134
        -0.000          -0.000
  -6915824.382 9  -5376470.89048  21354411.729    21354411.5384   21354416.8134
        -0.000          -0.000
  -4539278.594 9  -3525276.69846  23668279.232    23668278.4914   23668285.7384
        -0.000          -0.000
 97  3  5 18  3 59.9990000  0  7 19  2  3 31 18 27 10               -0.000931008
  -2699917.663 9  -2097608.92849  20306296.944    20306296.8734   20306302.4704
        -0.000          -0.000
  -7966606.199 9  -6184752.63047  22616375.197    22616374.7204   22616381.6334
        -0.000          -0.000
   1881158.609 9   1465317.03446  23592836.200    23592835.8994   23592842.0514
        -0.000          -0.000
  -3401561.473 9  -2493773.60548  21276367.167    21276366.7284   21276371.9314
        -0.000          -0.000
   1112526.877 9    882429.77249  20413239.120    20413238.9394   20413244.1624
        -0.000          -0.000
  -6996394.109 9  -5439252.49748  21339079.859    21339079.6334   21339084.8624
        -0.000          -0.000
  -4574367.448 9  -3552618.68346  23661602.203    23661601.4044   23661608.5554
        -0.000          -0.000
 97  3  5 18  4 29.9990000  0  7 19  2  3 31 18 27 10               -0.000946610
  -2724643.494 9  -2116875.82049  20301591.837    20301591.7404   20301597.3494
        -0.000          -0.000
  -8055365.863 9  -6253915.98547  22599484.818    22599484.3524   22599491.1614
        -0.000          -0.000
   1922893.298 9   1497837.51546  23600777.861    23600777.6614   23600784.0184
        -0.000          -0.000
  -3417158.191 9  -2505926.89948  21273399.139    21273398.7424   21273404.0114
        -0.000          -0.000
   1146280.158 9    908730.99849  20419662.218    20419662.0024   20419667.2734
        -0.000          -0.000
  -7076866.528 9  -5501958.27148  21323766.464    21323766.2844   21323771.5034
        -0.000          -0.000
  -4608932.883 9  -3579552.79746  23655024.710    23655023.9074   23655031.0654
        -0.000          -0.000
 97  3  5 18  4 59.9990000  0  7 19  2  3 31 18 27 10               -0.000962246
  -2749108.570 9  -2135939.53249  20296936.399    20296936.2434   20296941.8204
        -0.000          -0.000
  -8143894.260 9  -6322899.13947  22582638.312    22582637.8554   22582644.7604
        -0.000          -0.000
   1965051.970 9   1530688.37946  23608800.528    23608800.1784   23608806.6114
        -0.000          -0.000
  -3432164.569 9  -2517620.17748  21270543.498    21270543.1594   21270548.3344
        -0.000          -0.000
   1180540.269 9    935427.16249  20426181.681    20426181.4794   20426186.7214
        -0.000          -0.000
  -7157245.707 9  -5564591.39548  21308470.851    21308470.6334   21308475.8954
        -0.000          -0.000
  -4642988.009 9  -3606089.27446  23648544.152    23648543.3344   23648550.5334
        -0.000          -0.000
 97  3  5 18  5 29.9990000  0  7 19  2  3 31 18 27 10               -0.000977917
  -2773303.433 9  -2154792.67749  20292332.333    20292332.1514   20292337.6854
        -0.000          -0.000
  -8232191.899 9  -6391702.46947  22565835.884    22565835.3674   22565842.2504
        -0.000          -0.000
   2007643.710 9   1563876.71546  23616905.524    23616905.3464   23616911.5444
        -0.000          -0.000
  -3446573.674 9  -2528848.05148  21267801.545    21267801.1784   21267806.3514
        -0.000          -0.000
   1215312.494 9    962522.37049  20432798.562    20432798.3884   20432803.7004
        -0.000          -0.000
  -7237505.839 9  -5627131.75948  21293197.760    21293197.5764   21293202.9534
        -0.000          -0.000
  -4676533.120 9  -3632228.37446  23642160.739    23642160.0534   23642167.0924
        -0.000          -0.000
 97  3  5 18  5 59.9990000  0  7 19  2  3 31 18 27 10               -0.000993630
  -2797231.087 9  -2173437.60349  20287779.094    20287778.9534   20287784.4344
        -0.000          -0.000
  -8320262.117 9  -6460328.58247  22549076.667    22549076.1704   22549082.9264
        -0.000          -0.000
   2050670.217 9   1597403.84845  23625093.314    23625093.1084   23625099.2724
        -0.000          -0.000
  -3460383.436 9  -2539608.90848  21265173.645    21265173.2674   21265178.4884
        -0.000          -0.000
   1250591.272 9    990012.29849  20439511.919    20439511.7604   20439517.0844
        -0.000          -0.000
  -7317627.854 9  -5689564.49248  21277950.973    21277950.8114   21277956.1734
        -0.000          -0.000
  -4709572.434 9  -3657973.30646  23635873.663    23635872.9264   23635879.9464
        -0.000          -0.000
 97  3  5 18  6 29.9990000  0  7 19  2  3 31 18 27 10               -0.001009376
  -2820894.584 9  -2191876.69649  20283276.161    20283275.9704   20283281.3974
        -0.000          -0.000
  -8408100.773 9  -6528774.24747  22532361.444    22532360.9214   22532367.7954
        -0.000          -0.000
   2094131.849 8   1631270.03245  23633363.677    23633363.5224   23633369.9334
        -0.000          -0.000
  -3473568.209 9  -2549882.77148  21262664.622    21262664.2444   21262669.5574
        -0.000          -0.000
   1286373.179 9   1017894.27749  20446321.067    20446320.8774   20446326.2404
        -0.000          -0.000
  -7397607.150 9  -5751886.02648  21262731.346    21262731.2374   21262736.6034
        -0.000          -0.000
  -4742101.289 9  -3683320.50146  23629683.496    23629682.8704   23629689.9904
        -0.000          -0.000
 97  3  5 18  6 59.9980000  0  7 19  2  3 31 18 27 10               -0.001025124
  -2844335.944 9  -2210142.69549  20278815.510    20278815.3084   20278820.6394
        -0.000          -0.000
  -8495699.620 9  -6597033.06547  22515691.961    22515691.4314   22515698.3224
        -0.000          -0.000
   2138035.214 9   1665480.40845  23641718.822    23641718.2384   23641724.5704
        -0.000          -0.000
  -3486127.826 9  -2559669.48848  21260274.683    21260274.3084   21260279.5584
        -0.000          -0.000
   1322633.723 9   1046149.22349  20453221.232    20453221.0704   20453226.3714
        -0.000          -0.000
  -7477450.674 9  -5814101.75148  21247537.668    21247537.5264   21247542.9184
        -0.000          -0.000
  -4774120.863 9  -3708270.84946  23623590.520    23623589.8394   23623596.7774
        -0.000          -0.000
 97  3  5 18  7 29.9980000  0  7 19  2  3 31 18 27 10               -0.001040853
  -2867597.857 9  -2228268.86449  20274388.931    20274388.7234   20274393.9984
        -0.000          -0.000
  -8583054.957 9  -6665102.13047  22499068.789    22499068.2794   22499075.2144
        -0.000          -0.000
   2182375.773 8   1700031.48445  23650156.621    23650156.0094   23650162.3674
        -0.000          -0.000
  -3498059.837 9  -2568967.15648  21258004.176    21258003.7604   21258008.9444
        -0.000          -0.000
   1359361.859 9   1074768.52949  20460210.421    20460210.2514   20460215.5374
        -0.000          -0.000
  -7557179.565 9  -5876228.16748  21232365.797    21232365.5994   21232370.9654
        -0.000          -0.000
  -4805619.975 9  -3732815.61946  23617596.535    23617595.8484   23617602.7534
        -0.000          -0.000
 97  3  5 18  7 59.9980000  0  7 19  2  3 31 18 27 10               -0.001056541
  -2890695.576 9  -2246267.08949  20269993.588    20269993.3564   20269998.6584
        -0.000          -0.000
  -8670145.282 9  -6732964.70847  22482496.099    22482495.6324   22482502.4604
        -0.000          -0.000
   2227143.289 8   1734915.22845  23658675.293    23658674.7814   23658681.5964
        -0.000          -0.000
  -3509350.831 9  -2577765.34248  21255855.515    21255855.1684   21255860.3014
        -0.000          -0.000
   1396558.722 9   1103753.07249  20467288.774    20467288.6014   20467293.8934
        -0.000          -0.000
  -7636800.419 9  -5938270.38748  21217214.400    21217214.2384   21217219.6614
        -0.000          -0.000
  -4836582.744 9  -3756942.47846  23611704.326    23611703.7074   23611710.9724
        -0.000          -0.000
 97  3  5 18  8 29.9980000  0  7 19  2  3 31 18 27 10               -0.001072180
  -2913626.171 9  -2264135.08449  20265629.999    20265629.7964   20265635.1324
        -0.000          -0.000
  -8756952.347 9  -6800606.54247  22465977.370    22465976.8384   22465983.5294
        -0.000          -0.000
   2272336.717 8   1770130.85245  23667275.275    23667274.9464   23667281.5464
        -0.000          -0.000
  -3520002.459 9  -2586065.31848  21253828.573    21253828.2114   21253833.3774
        -0.000          -0.000
   1434223.279 9   1133102.04749  20474456.161    20474455.9694   20474461.2874
        -0.000          -0.000
  -7716312.702 9  -6000228.00748  21202083.701    21202083.5934   21202089.0004
        -0.000          -0.000
  -4867002.895 9  -3780646.48946  23605915.600    23605914.9554   23605922.1234
        -0.000          -0.000
 97  3  5 18  8 59.9980000  0  7 19  2  3 31 18 27 10               -0.001087791
  -2936401.087 9  -2281881.77649  20261296.054    20261295.8574   20261301.1934
        -0.000          -0.000
  -8843487.396 9  -6868036.42447  22449510.265    22449509.6684   22449516.3144
        -0.000          -0.000
   2317929.889 9   1805657.96745  23675951.266    23675951.0604   23675957.5544
        -0.000          -0.000
  -3530039.084 9  -2593886.07648  21251918.643    21251918.3134   21251923.4904
        -0.000          -0.000
   1472324.610 9   1162791.37149  20481706.544    20481706.3904   20481711.7994
        -0.000          -0.000
  -7795726.389 9  -6062108.80348  21186971.828    21186971.7254   21186977.0964
        -0.000          -0.000
  -4896902.505 9  -3803944.88746  23600225.984    23600225.2944   23600232.5234
        -0.000          -0.000
 97  3  5 18  9 29.9980000  0  7 19  2  3 31 18 27 10               -0.001103386
  -2958969.075 9  -2299467.23449  20257001.422    20257001.2804   20257006.6454
        -0.000          -0.000
  -8929739.840 9  -6935246.09947  22433096.807    22433096.3304   22433102.9974
        -0.000          -0.000
   2363928.133 8   1841500.71745  23684704.393    23684704.2704   23684710.5444
        -0.000          -0.000
  -3539436.473 9  -2601208.72648  21250130.386    21250130.0614   21250135.2324
        -0.000          -0.000
   1510863.640 9   1192821.75549  20489040.341    20489040.1524   20489045.5424
        -0.000          -0.000
  -7875035.881 9  -6123908.40648  21171879.741    21171879.6534   21171885.0244
        -0.000          -0.000
  -4926279.872 9  -3826836.35146  23594635.688    23594635.0944   23594642.2194
        -0.000          -0.000
 97  3  5 18  9 59.9980000  0  7 19  2  3 31 18 27 10               -0.001118975
  -2981291.167 9  -2316861.06749  20252753.712    20252753.5504   20252758.9404
        -0.000          -0.000
  -9015697.450 9  -7002226.02747  22416739.705    22416739.1944   22416745.8574
        -0.000          -0.000
   2410345.418 8   1877669.97145  23693537.931    23693537.5144   23693543.4634
        -0.000          -0.000
  -3548185.147 9  -2608025.87348  21248465.620    21248465.2444   21248470.3714
        -0.000          -0.000
   1549849.479 9   1223200.30848  20496459.130    20496458.9574   20496464.3294
        -0.000          -0.000
  -7954223.002 9  -6185612.64848  21156810.943    21156810.8354   21156816.2584
        -0.000          -0.000
  -4955146.231 9  -3849329.65446  23589142.802    23589142.0974   23589149.2034
        -0.000          -0.000
 97  3  5 18 10 29.9980000  0  7 19  2  3 31 18 27 10               -0.001134574
  -3003354.390 9  -2334053.18949  20248555.262    20248555.0574   20248560.4714
        -0.000          -0.000
  -9101370.765 9  -7068984.42947  22400436.553    22400436.0514   22400442.7564
        -0.000          -0.000
   2457181.905 8   1914165.94145  23702450.774    23702450.3954   23702456.2404
        -0.000          -0.000
  -3556293.197 9  -2614343.83448  21246922.630    21246922.2824   21246927.4594
        -0.000          -0.000
   1589276.744 9   1253922.82648  20503961.895    20503961.7434   20503967.1064
        -0.000          -0.000
  -8033297.780 9  -6247229.34748  21141763.590    21141763.3924   21141768.8024
        -0.000          -0.000
  -4983518.481 9  -3871437.89846  23583743.541    23583742.9444   23583750.2694
        -0.000          -0.000
 97  3  5 18 10 59.9980000  0  7 19  2  3 31 18 27 10               -0.001150189
  -3025163.100 9  -2351046.99249  20244405.233    20244405.0104   20244410.4204
        -0.000          -0.000
  -9186775.294 9  -7135533.39347  22384184.540    22384184.0924   22384190.7854
        -0.000          -0.000
   2504425.432 8   1950979.04945  23711441.035    23711440.4624   23711446.6154
        -0.000          -0.000
  -3563771.514 9  -2620171.10748  21245499.636    21245499.2674   21245504.3944
        -0.000          -0.000
   1629157.675 9   1284998.84848  20511550.999    20511550.8494   20511556.2194
        -0.000          -0.000
  -8112262.958 9  -6308760.65448  21126736.979    21126736.8044   21126742.2034
        -0.000          -0.000
  -5011400.231 9  -3893163.95346  23578437.739    23578437.2874   23578444.6004
        -0.000          -0.000
 97  3  5 18 11 29.9980000  0  7 19  2  3 31 18 27 10               -0.001165810
  -3046728.322 9  -2367851.06349  20240301.452    20240301.2414   20240306.6754
        -0.000          -0.000
  -9271924.627 9  -7201883.49747  22367981.294    22367980.7794   22367987.2764
        -0.000          -0.000
   2552079.821 8   1988112.29045  23720509.016    23720508.4344   23720514.7754
        -0.000          -0.000
  -3570637.806 9  -2625521.47648  21244193.079    21244192.7314   21244197.8804
        -0.000          -0.000
   1669513.768 9   1316445.12148  20519230.466    20519230.3134   20519235.7174
        -0.000          -0.000
  -8191126.017 9  -6370212.38048  21111729.857    21111729.6644   21111735.0044
        -0.000          -0.000
  -5038783.866 9  -3914501.85246  23573226.772    23573226.3254   23573233.4974
        -0.000          -0.000
 97  3  5 18 11 59.9980000  0  7 19  2  3 31 18 27 10               -0.001181420
  -3068056.047 9  -2384470.07049  20236242.895    20236242.7014   20236248.1664
        -0.000          -0.000
  -9356814.114 9  -7268031.12947  22351827.391    22351826.8524   22351833.3194
        -0.000          -0.000
   2600155.263 8   2025573.66145  23729657.745    23729656.9704   23729663.4464
        -0.000          -0.000
  -3576897.129 9  -2630398.87448  21243001.895    21243001.5964   21243006.8024
        -0.000          -0.000
   1710374.917 9   1348284.94748  20527006.102    20527005.9494   20527011.3694
        -0.000          -0.000
  -8269865.752 9  -6431568.01548  21096746.162    21096746.0174   21096751.3244
        -0.000          -0.000
  -5065648.304 9  -3935435.21546  23568114.874    23568114.2544   23568121.3094
        -0.000          -0.000
 97  3  5 18 12 29.9980000  0  7 19  2  3 31 18 27 10               -0.001197013
  -3089144.758 9  -2400902.83449  20232229.799    20232229.6394   20232235.1044
        -0.000          -0.000
  -9441450.152 9  -7333981.26547  22335721.651    22335721.1024   22335727.5864
        -0.000          -0.000
   2648651.345 8   2063362.76945  23738886.625    23738886.9904   23738891.7964
        -0.000          -0.000
  -3582547.193 9  -2634801.52848  21241926.752    21241926.4104   21241931.6184
        -0.000          -0.000
   1751758.296 9   1380531.70448  20534881.131    20534880.9584   20534886.4154
        -0.000          -0.000
  -8348476.963 9  -6492823.49248  21081786.985    21081786.7834   21081792.0874
        -0.000          -0.000
  -5091973.312 9  -3955948.20946  23563105.353    23563104.7524   23563111.6664
        -0.000          -0.000
 97  3  5 18 12 59.9980000  0  7 19  2  3 31 18 27 10               -0.001212599
  -3110012.683 9  -2417163.55549  20228258.736    20228258.6084   20228264.0804
        -0.000          -0.000
  -9525854.444 9  -7399750.81447  22319660.064    22319659.4624   22319666.0104
        -0.000          -0.000
   2697548.623 8   2101464.52745  23748190.947    23748191.5004   23748196.6924
        -0.000          -0.000
  -3587600.185 9  -2638738.93948  21240965.158    21240964.8564   21240970.0924
        -0.000          -0.000
   1793654.742 9   1413178.25548  20542853.745    20542853.5984   20542859.1134
        -0.000          -0.000
  -8426960.761 9  -6553979.69648  21066852.074    21066851.8024   21066857.1054
        -0.000          -0.000
  -5117758.384 9  -3976040.45646  23558198.487    23558197.9484   23558205.0224
        -0.000          -0.000
 97  3  5 18 13 29.9980000  0  7 19  2  3 31 18 27 10               -0.001228168
  -3130637.610 9  -2433234.93349  20224333.984    20224333.8354   20224339.3134
        -0.000          -0.000
  -9610011.614 9  -7465327.80947  22303645.442    22303644.8184   22303651.3934
        -0.000          -0.000
   2746850.975 8   2139881.88945  23757572.885    23757573.0854   23757578.9484
        -0.000          -0.000
  -3592025.417 9  -2642187.18148  21240123.115    21240122.7994   21240127.9524
        -0.000          -0.000
   1836058.372 9   1446220.01248  20550922.969    20550922.8224   20550928.2724
        -0.000          -0.000
  -8505313.179 9  -6615033.52248  21051942.015    21051941.8344   21051947.1274
        -0.000          -0.000
  -5142994.985 9  -3995705.37646  23553396.283    23553395.7134   23553402.6424
        -0.000          -0.000
 97  3  5 18 13 59.9980000  0  7 19  2  3 31 18 27 10               -0.001243733
  -3151026.513 9  -2449122.39849  20220454.106    20220453.9814   20220459.4404
        -0.000          -0.000
  -9693911.030 9  -7530703.94547  22287679.930    22287679.3114   22287685.8824
        -0.000          -0.000
   2796538.409 8   2178599.32245  23767028.292    23767028.5284   23767034.0624
        -0.000          -0.000
  -3595818.069 9  -2645142.50248  21239401.429    21239401.0594   21239406.2664
        -0.000          -0.000
   1878940.347 9   1479634.50348  20559083.239    20559083.0534   20559088.4304
        -0.000          -0.000
  -8583542.283 9  -6675991.25548  21037055.593    21037055.3204   21037060.6474
        -0.000          -0.000
  -5167710.122 9  -4014963.96046  23548693.166    23548692.5004   23548699.4634
        -0.000          -0.000
 97  3  5 18 14 29.9980000  0  7 19  2  3 31 18 27 10               -0.001259288
  -3171160.981 9  -2464811.60449  20216622.673    20216622.5534   20216627.9574
        -0.000          -0.000
  -9777529.322 9  -7595861.02447  22271767.853    22271767.2274   22271773.8684
        -0.000          -0.000
   2846622.726 8   2217626.00545  23776559.139    23776559.2714   23776564.9204
        -0.000          -0.000
  -3598952.936 9  -2647585.26648  21238804.775    21238804.4524   21238809.6394
        -0.000          -0.000
   1922301.241 9   1513422.17748  20567334.532    20567334.3714   20567339.7404
        -0.000          -0.000
  -8661628.346 9  -6736837.53348  21022196.358    21022196.0764   21022201.4454
        -0.000          -0.000
  -5191894.723 9  -4033809.11346  23544090.851    23544090.2064   23544097.3284
        -0.000          -0.000
 97  3  5 18 14 59.9980000  0  7 19  2  3 31 18 27 10               -0.001274830
  -3191040.987 9  -2480302.52749  20212839.753    20212839.5624   20212844.8834
        -0.000          -0.000
  -9860838.464 9  -7660777.22247  22255914.585    22255914.0314   22255920.6424
        -0.000          -0.000
   2897115.305 8   2256970.77145  23786167.285    23786167.5204   23786173.4794
        -0.000          -0.000
  -3601429.587 9  -2649515.15048  21238333.486    21238333.1684   21238338.4624
        -0.000          -0.000
   1966118.370 9   1547565.36248  20575672.661    20575672.5184   20575677.9534
        -0.000          -0.000
  -8739564.273 9  -6797566.82048  21007365.767    21007365.3744   21007370.7304
        -0.000          -0.000
  -5215562.584 9  -4052251.61146  23539587.085    23539586.4044   23539593.6204
        -0.000          -0.000
 97  3  5 18 15 29.9980000  0  7 19  2  3 31 18 27 10               -0.001290377
  -3210695.322 9  -2495617.60049  20209099.732    20209099.5224   20209104.8164
        -0.000          -0.000
  -9943859.542 9  -7725468.96347  22240116.202    22240115.6484   22240122.1954
        -0.000          -0.000
   2947992.695 8   2296615.37045  23795848.917    23795848.8874   23795855.1074
        -0.000          -0.000
  -3603287.678 9  -2650963.02948  21237979.984    21237979.6234   21237984.9114
        -0.000          -0.000
   2010352.911 9   1582033.80648  20584090.248    20584090.1014   20584095.5494
        -0.000          -0.000
  -8817384.394 9  -6858205.86848  20992557.024    20992556.7154   20992562.0624
        -0.000          -0.000
  -5238762.252 9  -4070329.27846  23535172.297    23535171.6494   23535178.8394
        -0.000          -0.000
 97  3  5 18 15 59.9980000  0  7 19  2  3 31 18 27 10               -0.001305917
  -3230123.231 9  -2510756.23949  20205402.672    20205402.4914   20205407.8204
        -0.000          -0.000
 -10026576.682 9  -7789923.84647  22224375.494    22224374.9764   22224381.6154
        -0.000          -0.000
   2999277.112 8   2336577.16045  23805608.324    23805607.8204   23805614.1904
        -0.000          -0.000
  -3604528.263 9  -2651929.73848  21237743.989    21237743.6054   21237748.8414
        -0.000          -0.000
   2055024.501 9   1616842.80248  20592590.929    20592590.8364   20592596.2834
        -0.000          -0.000
  -8895056.443 9  -6918729.53848  20977776.377    20977776.1984   20977781.5434
        -0.000          -0.000
  -5261481.821 9  -4088032.87046  23530849.045    23530848.3324   23530855.5344
        -0.000          -0.000
 97  3  5 18 16 29.9980000  0  7 19  2  3 31 18 27 10               -0.001321442
  -3249308.557 9  -2525705.85749  20201751.820    20201751.6384   20201756.9584
        -0.000          -0.000
 -10108996.045 9  -7854146.70047  22208691.556    22208691.0734   22208697.7184
        -0.000          -0.000
   3050986.637 9   2376870.23945  23815448.452    23815447.7384   23815453.9834
        -0.000          -0.000
  -3605141.456 9  -2652407.55848  21237627.338    21237626.9574   21237632.1324
        -0.000          -0.000
   2100149.922 9   1652005.43748  20601178.056    20601177.9614   20601183.4384
        -0.000          -0.000
  -8972569.245 9  -6979129.11848  20963026.195    20963025.9994   20963031.3404
        -0.000          -0.000
  -5283698.274 9  -4105344.42046  23526621.325    23526620.5494   23526627.8714
        -0.000          -0.000
 97  3  5 18 16 59.9980000  0  7 19  2  3 31 18 27 10               -0.001336955
  -3268252.351 9  -2540467.27249  20198146.977    20198146.7944   20198152.1004
        -0.000          -0.000
 -10191135.283 9  -7918151.27447  22193061.084    22193060.5844   22193067.1454
        -0.000          -0.000
   3103109.856 8   2417485.66645  23825367.168    23825366.6324   23825372.5754
        -0.000          -0.000
  -3605133.664 9  -2652401.50448  21237628.732    21237628.4164   21237633.5824
        -0.000          -0.000
   2145736.355 9   1687527.29948  20609852.964    20609852.8364   20609858.2794
        -0.000          -0.000
  -9049925.015 9  -7039406.34948  20948305.792    20948305.6604   20948310.9714
        -0.000          -0.000
  -5305407.262 9  -4122260.53546  23522490.448    23522489.5604   23522496.7134
        -0.000          -0.000
 97  3  5 18 17 29.9980000  0  7 19  2  3 31 18 27 10               -0.001352463
  -3286975.238 9  -2555056.55249  20194584.068    20194583.9114   20194589.2964
        -0.000          -0.000
 -10273042.856 9  -7981975.33748  22177474.668    22177474.1344   22177480.6864
        -0.000          -0.000
   3155616.098 9   2458399.57945  23835358.725    23835358.3354   23835364.2464
        -0.000          -0.000
  -3604511.678 9  -2651916.85448  21237747.072    21237746.7544   21237751.9464
        -0.000          -0.000
   2191792.753 9   1723415.36748  20618617.207    20618617.0784   20618622.5404
        -0.000          -0.000
  -9127142.814 9  -7099576.06048  20933611.691    20933611.5824   20933616.9364
        -0.000          -0.000
  -5326605.721 9  -4138778.85346  23518456.490    23518455.6524   23518462.7514
        -0.000          -0.000
 97  3  5 18 17 59.9980000  0  7 19  2  3 31 18 27 10               -0.001367949
  -3305455.066 9  -2569456.43549  20191067.392    20191067.2954   20191072.7674
        -0.000          -0.000
 -10354712.223 9  -8045613.78348  22161933.588    22161932.9834   22161939.4734
        -0.000          -0.000
   3208525.416 9   2499627.57245  23845427.149    23845426.5944   23845432.6274
        -0.000          -0.000
  -3603246.717 9  -2650931.19348  21237987.803    21237987.5274   21237992.7834
        -0.000          -0.000
   2238336.242 9   1759682.98548  20627474.177    20627474.0174   20627479.5374
        -0.000          -0.000
  -9204205.209 9  -7159624.68548  20918947.238    20918947.1144   20918952.4864
        -0.000          -0.000
  -5347259.270 9  -4154872.57946  23514526.168    23514525.4234   23514532.4424
        -0.000          -0.000
 97  3  5 18 18 29.9980000  0  7 19  2  3 31 18 27 10               -0.001383429
  -3323673.480 9  -2583652.61749  20187600.569    20187600.4854   20187605.9504
        -0.000          -0.000
 -10436163.987 9  -8109082.65848  22146433.732    22146433.1734   22146439.6794
        -0.000          -0.000
   3261822.651 9   2541157.83745  23855569.244    23855568.8134   23855574.9274
        -0.000          -0.000
  -3601345.258 9  -2649449.54448  21238349.674    21238349.3474   21238354.6284
        -0.000          -0.000
   2285346.794 9   1796314.54948  20636420.056    20636419.9044   20636425.4074
        -0.000          -0.000
  -9281135.016 9  -7219569.98248  20904308.019    20904307.8394   20904313.2624
        -0.000          -0.000
  -5367377.661 9  -4170549.26546  23510697.807    23510697.1134   23510704.1814
        -0.000          -0.000
 97  3  5 18 18 59.9980000  0  7 19  2  3 31 18 27 10               -0.001398904
  -3341631.540 9  -2597645.92549  20184183.337    20184183.2114   20184188.6414
        -0.000          -0.000
 -10517394.137 9  -8172378.85348  22130976.070    22130975.5554   22130982.1224
        -0.000          -0.000
   3315498.107 9   2582982.80545  23865783.232    23865782.8634   23865789.4444
        -0.000          -0.000
  -3598813.447 9  -2647476.72048  21238831.499    21238831.1534   21238836.3804
        -0.000          -0.000
   2332820.723 9   1833307.19448  20645453.975    20645453.8604   20645459.4104
        -0.000          -0.000
  -9357925.600 9  -7279406.79848  20889695.357    20889695.1454   20889700.5374
        -0.000          -0.000
  -5386958.102 9  -4185806.78946  23506971.939    23506971.1624   23506978.2474
        -0.000          -0.000
 97  3  5 18 19 29.9980000  0  7 19  2  3 31 18 27 10               -0.001414373
  -3359342.676 9  -2611446.82249  20180813.086    20180812.9244   20180818.3594
        -0.000          -0.000
 -10598394.518 9  -8235496.00648  22115562.242    22115561.6554   22115568.2524
        -0.000          -0.000
   3369555.157 9   2625105.11645  23876069.861    23876069.5614   23876076.3584
        -0.000          -0.000
  -3595668.701 9  -2645026.28348  21239430.010    21239429.5994   21239434.8204
        -0.000          -0.000
   2380735.433 9   1870643.29948  20654571.935    20654571.8174   20654577.3164
        -0.000          -0.000
  -9434588.565 9  -7339144.17448  20875106.904    20875106.6954   20875112.0404
        -0.000          -0.000
  -5406025.338 9  -4200664.38946  23503343.588    23503342.8644   23503349.8654
        -0.000          -0.000
 97  3  5 18 19 59.9980000  0  7 19  2  3 31 18 27 10               -0.001429839
  -3376791.984 9  -2625043.70349  20177492.596    20177492.4834   20177497.8874
        -0.000          -0.000
 -10679128.077 9  -8298405.25648  22100199.096    22100198.5614   22100205.0554
        -0.000          -0.000
   3423998.591 9   2667528.50045  23886430.242    23886429.9884   23886436.7254
        -0.000          -0.000
  -3591915.095 9  -2642101.39748  21240144.213    21240143.8844   21240149.1054
        -0.000          -0.000
   2429073.268 9   1908309.11048  20663770.421    20663770.2694   20663775.6864
        -0.000          -0.000
  -9511116.412 9  -7398776.25748  20860544.144    20860543.9464   20860549.2824
        -0.000          -0.000
  -5424587.957 9  -4215128.78846  23499811.248    23499810.4214   23499817.7694
        -0.000          -0.000
 97  3  5 18 20 29.9980000  0  7 19  2  3 31 18 27 10               -0.001445295
  -3393983.698 9  -2638439.85749  20174221.158    20174221.0574   20174226.4064
        -0.000          -0.000
 -10759567.879 9  -8361085.58948  22084891.961    22084891.4184   22084897.8484
        -0.000          -0.000
   3478827.348 9   2710252.13845  23896864.000    23896863.7054   23896870.4934
        -0.000          -0.000
  -3587554.236 9  -2638703.33748  21240974.040    21240973.7404   21240979.0484
        -0.000          -0.000
   2477852.223 9   1946318.65048  20673052.790    20673052.6234   20673058.0734
        -0.000          -0.000
  -9587491.162 9  -7458289.05048  20846010.535    20846010.2974   20846015.6264
        -0.000          -0.000
  -5442644.925 9  -4229199.18146  23496375.065    23496374.2394   23496381.6684
        -0.000          -0.000
 97  3  5 18 20 59.9980000  0  7 19  2  3 31 18 27 10               -0.001460729
  -3410950.163 9  -2651660.49449  20170992.567    20170992.4434   20170997.7744
        -0.000          -0.000
 -10839698.027 9  -8423524.62948  22069643.691    22069643.1344   22069649.6494
        -0.000          -0.000
   3534034.449 8   2753270.57645  23907369.704    23907369.3434   23907376.0254
        -0.000          -0.000
  -3582592.158 9  -2634836.77748  21241918.316    21241918.0264   21241923.3284
        -0.000          -0.000
   2527069.174 9   1984669.48748  20682418.465    20682418.2804   20682423.8004
        -0.000          -0.000
  -9663713.809 9  -7517683.31548  20831505.824    20831505.5994   20831510.9144
        -0.000          -0.000
  -5460199.977 9  -4242878.47046  23493034.565    23493033.8214   23493041.0714
        -0.000          -0.000
 97  3  5 18 21 29.9980000  0  7 19  2  3 31 18 27 10               -0.001476137
  -3427675.029 9  -2664692.86949  20167809.852    20167809.7764   20167815.1304
        -0.000          -0.000
 -10919506.447 9  -8485712.98148  22054456.576    22054456.0884   22054462.6284
        -0.000          -0.000
   3589633.162 8   2796594.16645  23917949.519    23917949.4284   23917956.2714
        -0.000          -0.000
  -3577013.615 9  -2630489.85748  21242979.877    21242979.5814   21242984.8954
        -0.000          -0.000
   2576726.593 9   2023363.54348  20691867.911    20691867.7884   20691873.2904
        -0.000          -0.000
  -9739785.268 9  -7576959.77448  20817029.818    20817029.6704   20817034.9714
        -0.000          -0.000
  -5477255.202 9  -4256168.26646  23489789.065    23489788.3384   23489795.6004
        -0.000          -0.000
 97  3  5 18 21 59.9980000  0  7 19  2  3 31 18 27 10               -0.001491518
  -3444150.107 9  -2677530.60449  20164674.746    20164674.6864   20164680.0774
        -0.000          -0.000
 -10999004.451 9  -8547659.44848  22039328.624    22039328.1014   22039334.6584
        -0.000          -0.000
   3645611.643 8   2840213.68945  23928601.814    23928601.6244   23928608.4284
        -0.000          -0.000
  -3570813.769 9  -2625658.79148  21244159.792    21244159.4444   21244164.6804
        -0.000          -0.000
   2626832.720 9   2062407.24748  20701402.836    20701402.6974   20701408.2204
        -0.000          -0.000
  -9815704.696 9  -7636117.76948  20802582.961    20802582.7224   20802588.0094
        -0.000          -0.000
  -5493792.383 9  -4269054.38746  23486642.285    23486641.5174   23486648.7384
        -0.000          -0.000
 97  3  5 18 22 29.9980000  0  7 19  2  3 31 18 27 10               -0.001506878
  -3460380.766 9  -2690177.87649  20161586.244    20161586.1144   20161591.5364
        -0.000          -0.000
 -11078225.008 9  -8609389.71948  22024253.492    22024252.9574   22024259.4804
        -0.000          -0.000
   3701961.825 8   2884122.86545  23939324.638    23939324.5604   23939331.3784
        -0.000          -0.000
  -3563992.365 9  -2620343.40848  21245457.778    21245457.4764   21245462.7654
        -0.000          -0.000
   2677393.172 9   2101804.96548  20711024.210    20711024.0964   20711029.6064
        -0.000          -0.000
  -9891466.286 9  -7695152.77048  20788165.990    20788165.7724   20788171.0614
        -0.000          -0.000
  -5509809.309 9  -4281535.13346  23483594.279    23483593.5664   23483600.6204
        -0.000          -0.000
 97  3  5 18 22 59.9980000  0  7 19  2  3 31 18 27 10               -0.001522227
  -3476345.853 9  -2702618.20649  20158548.167    20158548.0184   20158553.4664
        -0.000          -0.000
 -11157173.429 9  -8670907.93348  22009230.075    22009229.5384   22009235.9834
        -0.000          -0.000
   3758685.942 8   2928323.45145  23950118.694    23950118.9484   23950125.5064
        -0.000          -0.000
  -3556535.218 9  -2614532.63248  21246876.855    21246876.5734   21246881.8614
        -0.000          -0.000
   2728387.205 9   2141540.54548  20720728.053    20720727.9094   20720733.4894
        -0.000          -0.000
  -9967062.852 9  -7754059.18048  20773780.308    20773780.1914   20773785.4594
        -0.000          -0.000
  -5525304.400 9  -4293609.27746  23480645.769    23480645.0674   23480652.0854
        -0.000          -0.000
 97  3  5 18 23 29.9980000  0  7 19  2  3 31 18 27 10               -0.001537570
  -3492027.518 9  -2714837.69449  20155563.979    20155563.8844   20155569.3964
        -0.000          -0.000
 -11235853.488 9  -8732217.03648  21994257.694    21994257.1334   21994263.6214
        -0.000          -0.000
   3815786.124 8   2972817.03545  23960984.461    23960984.7154   23960991.4144
        -0.000          -0.000
  -3548433.107 9  -2608219.29648  21248418.620    21248418.3164   21248423.6494
        -0.000          -0.000
   2779830.572 9   2181626.24948  20730517.441    20730517.3214   20730522.9294
        -0.000          -0.000
 -10042480.157 9  -7812825.90448  20759428.948    20759428.7774   20759434.0354
        -0.000          -0.000
  -5540281.845 9  -4305280.01246  23477795.395    23477794.7914   23477802.2654
        -0.000          -0.000
 97  3  5 18 23 59.9980000  0  7 19  2  3 31 18 27 10               -0.001552914
  -3507441.573 9  -2726848.64649  20152630.771    20152630.6844   20152636.2364
        -0.000          -0.000
 -11314268.372 9  -8793319.51448  21979335.757    21979335.2134   21979341.7254
        -0.000          -0.000
   3873237.228 8   3017584.06645  23971917.366    23971917.3174   23971924.1794
        -0.000          -0.000
  -3539695.550 9  -2601410.80348  21250081.349    21250081.0354   21250086.3034
        -0.000          -0.000
   2831723.882 9   2222062.55948  20740392.563    20740392.3154   20740397.9514
        -0.000          -0.000
 -10117716.516 9  -7871451.63848  20745112.019    20745111.8084   20745117.0454
        -0.000          -0.000
  -5554749.380 9  -4316553.43346  23475042.354    23475041.7264   23475049.1444
        -0.000          -0.000
 97  3  5 18 24 29.9980000  0  7 19  2  3 31 18 27 10               -0.001568263
  -3522578.962 9  -2738644.01649  20149750.265    20149750.1684   20149755.6954
        -0.000          -0.000
 -11392409.829 9  -8854208.91948  21964465.970    21964465.3874   21964471.8724
        -0.000          -0.000
   3931037.844 8   3062623.45645  23982916.727    23982916.6124   23982923.4654
        -0.000          -0.000
  -3530308.907 9  -2594096.52548  21251867.504    21251867.2484   21251872.5584
        -0.000          -0.000
   2884063.161 9   2262846.38048  20750352.343    20750352.1704   20750357.8154
        -0.000          -0.000
 -10192767.424 9  -7929932.85448  20730830.332    20730830.0954   20730835.3044
        -0.000          -0.000
  -5568717.709 9  -4327437.85346  23472384.327    23472383.7374   23472391.0044
        -0.000          -0.000
 97  3  5 18 24 59.9980000  0  7 19  2  3 31 18 27 10               -0.001583602
  -3537422.356 9  -2750210.30249  20146925.712    20146925.6044   20146931.1204
        -0.000          -0.000
 -11470252.754 9  -8914865.70248  21949652.933    21949652.3624   21949658.8344
        -0.000          -0.000
   3989200.987 8   3107945.30745  23993984.901    23993984.9504   23993992.0424
        -0.000          -0.000
  -3520265.294 9  -2586270.33148  21253778.806    21253778.5054   21253783.7584
        -0.000          -0.000
   2936863.942 9   2303989.81148  20760400.011    20760399.8544   20760405.4794
        -0.000          -0.000
 -10267637.524 9  -7988273.19048  20716583.043    20716582.8384   20716587.9864
        -0.000          -0.000
  -5582178.962 9  -4337927.16846  23469822.931    23469822.2804   23469829.4794
        -0.000          -0.000
 97  3  5 18 25 29.9980000  0  7 19  2  3 31 18 27 10               -0.001598911
  -3551993.146 9  -2761564.16649  20144152.984    20144152.8834   20144158.3714
        -0.000          -0.000
 -11547801.971 9  -8975293.63848  21934895.772    21934895.2284   21934901.6454
        -0.000          -0.000
   4047717.536 8   3153542.53345  24005120.397    24005120.5104   24005127.4964
        -0.000          -0.000
  -3509588.993 9  -2577951.12948  21255810.539    21255810.1894   21255815.4714
        -0.000          -0.000
   2990135.203 9   2345499.84948  20770537.213    20770537.0664   20770542.6854
        -0.000          -0.000
 -10342351.321 9  -8046491.71448  20702365.358    20702365.2414   20702370.4284
        -0.000          -0.000
  -5595136.294 9  -4348023.80046  23467357.192    23467356.5684   23467363.8694
        -0.000          -0.000
 97  3  5 18 25 59.9980000  0  7 19  2  3 31 18 27 10               -0.001614186
  -3566279.398 9  -2772696.31349  20141434.451    20141434.3354   20141439.8374
        -0.000          -0.000
 -11625057.230 9  -9035492.51548  21920194.548    21920194.0254   21920200.4884
        -0.000          -0.000
   4106616.040 8   3199437.42745  24016328.256    24016328.6724   24016335.6014
        -0.000          -0.000
  -3498274.317 9  -2569134.49648  21257963.591    21257963.2684   21257968.5714
        -0.000          -0.000
   3043877.390 9   2387376.84248  20780764.100    20780763.9064   20780769.5864
        -0.000          -0.000
 -10416900.349 9  -8104581.85348  20688179.194    20688179.0424   20688184.2444
        -0.000          -0.000
  -5607565.920 9  -4357709.24746  23464992.099    23464991.4044   23464998.6704
        -0.000          -0.000
 97  3  5 18 26 29.9980000  0  7 19  2  3 31 18 27 10               -0.001629434
  -3580298.928 9  -2783620.62549  20138766.666    20138766.5424   20138772.0094
        -0.000          -0.000
 -11702047.958 9  -9095485.25348  21905543.686    21905543.1784   21905549.6084
        -0.000          -0.000
   4165885.106 8   3245621.01245  24027606.643    24027606.9244   24027614.3654
        -0.000          -0.000
  -3486352.553 9  -2559844.80848  21260232.175    21260231.8284   21260237.2024
        -0.000          -0.000
   3098054.453 9   2429592.70048  20791073.651    20791073.4794   20791079.1644
        -0.000          -0.000
 -10491305.716 9  -8162560.04948  20674020.407    20674020.1944   20674025.3954
        -0.000          -0.000
  -5619493.905 9  -4367003.79846  23462722.267    23462721.5564   23462728.7244
        -0.000          -0.000
 97  3  5 18 26 59.9980000  0  7 19  2  3 31 18 27 10               -0.001644646
  -3594082.115 9  -2794360.77449  20136143.812    20136143.7084   20136149.1664
        -0.000          -0.000
 -11778769.585 9  -9155268.30848  21890944.058    21890943.4954   21890949.9334
        -0.000          -0.000
   4225525.541 8   3292093.98845  24038956.390    24038956.0774   24038963.5704
        -0.000          -0.000
  -3473851.715 9  -2550103.89648  21262611.063    21262610.7314   21262616.0524
        -0.000          -0.000
   3152663.522 9   2472145.18248  20801465.393    20801465.2254   20801470.9304
        -0.000          -0.000
 -10565569.552 9  -8220427.95548  20659888.445    20659888.2374   20659893.4134
        -0.000          -0.000
  -5630931.624 9  -4375916.33146  23460545.733    23460544.9724   23460551.9544
        -0.000          -0.000
 97  3  5 18 27 29.9980000  0  7 19  2  3 31 18 27 10               -0.001659821
  -3607605.545 9  -2804898.51349  20133570.503    20133570.3694   20133575.7614
        -0.000          -0.000
 -11855209.254 9  -9214831.66348  21876398.012    21876397.4954   21876403.8804
        -0.000          -0.000
   4285565.327 8   3338878.17245  24050381.514    24050381.2584   24050388.6074
        -0.000          -0.000
  -3460755.973 9  -2539899.42448  21265103.105    21265102.7654   21265108.0204
        -0.000          -0.000
   3207717.675 9   2515044.49048  20811941.846    20811941.7424   20811947.4184
        -0.000          -0.000
 -10639650.929 9  -8278153.68548  20645791.109    20645790.9864   20645796.2264
        -0.000          -0.000
  -5641866.510 9  -4384437.05246  23458464.967    23458464.1244   23458471.3654
        -0.000          -0.000
 97  3  5 18 27 59.9980000  0  7 19  2  3 31 18 27 10               -0.001674977
  -3620857.873 9  -2815225.00149  20131048.632    20131048.5154   20131053.9004
        -0.000          -0.000
 -11931381.225 9  -9274186.41748  21861902.969    21861902.4204   21861908.8464
        -0.000          -0.000
   4345989.938 8   3385962.23645  24061879.881    24061879.6584   24061886.9904
        -0.000          -0.000
  -3447051.323 9  -2529220.47648  21267711.012    21267710.6304   21267715.8854
        -0.000          -0.000
   3263199.558 9   2558277.08848  20822499.811    20822499.6634   20822505.3164
        -0.000          -0.000
 -10713529.091 9  -8335721.07048  20631732.545    20631732.3894   20631737.6584
        -0.000          -0.000
  -5652299.485 9  -4392566.67346  23456479.604    23456478.8774   23456486.0854
        -0.000          -0.000
 97  3  5 18 28 29.9980000  0  7 19  2  3 31 18 27 10               -0.001690118
  -3633839.816 9  -2825340.81249  20128578.407    20128578.2154   20128583.5554
        -0.000          -0.000
 -12007262.382 9  -9333314.57248  21847463.222    21847462.7064   21847469.0724
        -0.000          -0.000
   4406775.099 8   3433327.18945  24073446.516    24073446.9194   24073454.0574
        -0.000          -0.000
  -3432734.484 9  -2518064.49148  21270435.424    21270435.0844   21270440.3094
        -0.000          -0.000
   3319112.156 9   2601845.31648  20833139.757    20833139.5874   20833145.1804
        -0.000          -0.000
 -10787203.486 9  -8393129.66448  20617712.735    20617712.5754   20617717.8814
        -0.000          -0.000
  -5662226.962 9  -4400302.35346  23454590.555    23454589.7954   23454597.0774
        -0.000          -0.000
 97  3  5 18 28 59.9980000  0  7 19  2  3 31 18 27 10               -0.001705234
  -3646536.397 9  -2835234.25449  20126162.200    20126162.1384   20126167.4744
        -0.000          -0.000
 -12082840.675 9  -9392206.72648  21833081.275    21833080.7134   21833086.9904
        -0.000          -0.000
   4467919.969 8   3480972.44645  24085082.405    24085082.6844   24085089.3914
        -0.000          -0.000
  -3417789.204 9  -2506418.81248  21273279.440    21273279.0954   21273284.3344
        -0.000          -0.000
   3375470.511 9   2645760.88248  20843864.371    20843864.2434   20843869.8444
        -0.000          -0.000
 -10860661.777 9  -8450369.87848  20603734.144    20603733.9324   20603739.2344
        -0.000          -0.000
  -5671629.276 9  -4407628.83746  23452801.395    23452800.6644   23452807.8994
        -0.000          -0.000
 97  3  5 18 29 29.9980000  0  7 19  2  3 31 18 27 10               -0.001720340
  -3658935.885 9  -2844896.20049  20123802.699    20123802.5824   20123807.9424
        -0.000          -0.000
 -12158130.923 9  -9450874.42748  21818753.969    21818753.3824   21818759.6324
        -0.000          -0.000
   4529399.565 9   3528878.54845  24096781.785    24096781.7254   24096788.8114
        -0.000          -0.000
  -3402204.247 9  -2494274.69748  21276245.142    21276244.8024   21276250.1104
        -0.000          -0.000
   3432252.283 9   2690006.38548  20854669.547    20854669.4434   20854675.0534
        -0.000          -0.000
 -10933917.907 9  -8507452.56448  20589793.937    20589793.7624   20589799.0964
        -0.000          -0.000
  -5680500.323 9  -4414541.34346  23451113.132    23451112.4424   23451119.6664
        -0.000          -0.000
 97  3  5 18 29 59.9980000  0  7 19  2  3 31 18 27 10               -0.001735433
  -3671065.296 9  -2854347.69449  20121494.592    20121494.5194   20121499.8484
        -0.000          -0.000
 -12233123.451 9  -9509310.13648  21804483.155    21804482.6314   21804488.9824
        -0.000          -0.000
   4591180.815 8   3577019.68645  24108538.565    24108538.4664   24108545.2094
        -0.000          -0.000
  -3385981.246 9  -2481633.38448  21279332.450    21279332.0354   21279337.2864
        -0.000          -0.000
   3489444.801 9   2734571.95748  20865552.891    20865552.8184   20865558.4804
        -0.000          -0.000
 -11007004.034 9  -8564402.77048  20575886.090    20575885.9114   20575891.2554
        -0.000          -0.000
  -5688845.945 9  -4421044.47946  23449524.975    23449524.3214   23449531.4244
        -0.000          -0.000
 97  3  5 18 30 29.9980000  0  6 19  2 31 18 27 10                  -0.001750713
  -3682915.768 9  -2863581.82149  20119239.587    20119239.3914   20119244.7994
        -0.000          -0.000
 -12307801.057 9  -9567500.45648  21790272.414    21790271.9394   21790278.3474
        -0.000          -0.000
  -3369123.735 9  -2468497.65248  21282540.331    21282539.8944   21282545.1084
        -0.000          -0.000
   3547073.433 9   2779477.34848  20876519.343    20876519.2664   20876524.8704
        -0.000          -0.000
 -11079926.823 9  -8621225.70248  20562009.366    20562009.1474   20562014.5144
        -0.000          -0.000
  -5696678.493 9  -4427147.77346  23448034.716    23448033.9444   23448040.9844
        -0.000          -0.000
 97  3  5 18 30 59.9980000  0  6 19  2 31 18 27 10                  -0.001765698
  -3694480.700 9  -2872593.47549  20117038.840    20117038.7634   20117044.0674
        -0.000          -0.000
 -12382180.433 9  -9625458.38948  21776118.634    21776118.0874   21776124.4474
        -0.000          -0.000
  -3351630.862 9  -2454866.82548  21285869.049    21285868.6304   21285873.8624
        -0.000          -0.000
   3605133.735 9   2824719.10948  20887567.908    20887567.7884   20887573.3764
        -0.000          -0.000
 -11152683.881 9  -8677919.48848  20548164.086    20548163.9224   20548169.2984
        -0.000          -0.000
  -5704015.961 9  -4432865.31046  23446638.414    23446637.7704   23446644.8964
        -0.000          -0.000
 97  3  5 18 31 29.9980000  0  6 19  2 31 18 27 10                  -0.001780635
  -3705761.027 9  -2881383.33449  20114892.210    20114892.0604   20114897.4254
        -0.000          -0.000
 -12456260.228 9  -9683182.87348  21762021.679    21762021.1574   21762027.5444
        -0.000          -0.000
  -3333498.908 9  -2440738.03348  21289319.303    21289318.9614   21289324.2774
        -0.000          -0.000
   3663637.037 9   2870306.06448  20898700.708    20898700.6714   20898706.2284
        -0.000          -0.000
 -11225279.342 9  -8734487.36348  20534349.646    20534349.4864   20534354.7964
        -0.000          -0.000
  -5710860.989 9  -4438199.15046  23445335.885    23445335.2324   23445342.3764
        -0.000          -0.000
 97  3  5 18 31 59.9980000  0  6 19  2 31 18 27 10                  -0.001795544
  -3716749.980 9  -2889946.17849  20112801.141    20112801.0774   20112806.2564
        -0.000          -0.000
 -12530048.586 9  -9740680.26348  21747980.172    21747979.6474   21747986.0504
        -0.000          -0.000
  -3314738.700 9  -2426119.67548  21292889.320    21292888.9504   21292894.2764
        -0.000          -0.000
   3722593.819 9   2916246.37648  20909919.916    20909919.8244   20909925.3834
        -0.000          -0.000
 -11297694.687 9  -8790914.88548  20520569.452    20520569.2854   20520574.5984
        -0.000          -0.000
  -5717225.007 9  -4443158.11746  23444124.870    23444124.2114   23444131.2564
        -0.000          -0.000
 97  3  5 18 32 29.9980000  0  6 19  2 31 18 27 10                  -0.001810449
  -3727438.984 9  -2898275.26949  20110767.010    20110766.8664   20110772.1494
        -0.000          -0.000
 -12603570.046 9  -9797969.68248  21733989.485    21733988.9734   21733995.3324
        -0.000          -0.000
  -3295367.845 9  -2411025.50048  21296575.476    21296575.0884   21296580.4434
        -0.000          -0.000
   3781991.154 9   2962529.98448  20921222.831    20921222.7794   20921228.3804
        -0.000          -0.000
 -11369905.707 9  -8847183.19448  20506828.171    20506828.0084   20506833.3014
        -0.000          -0.000
  -5723112.174 9  -4447745.52246  23443004.426    23443003.7774   23443011.0084
        -0.000          -0.000
 97  3  5 18 32 59.9980000  0  6 19  2 31 18 27 10                  -0.001825339
  -3737837.391 9  -2906377.93949  20108788.272    20108788.1554   20108793.3894
        -0.000          -0.000
 -12676815.191 9  -9855043.79748  21720051.425    21720050.8924   21720057.2194
        -0.000          -0.000
  -3275385.201 9  -2395454.60448  21300378.046    21300377.6864   21300382.9614
        -0.000          -0.000
   3841808.982 9   3009141.24748  20932605.784    20932605.7094   20932611.4074
        -0.000          -0.000
 -11441898.315 9  -8903281.30848  20493128.507    20493128.2824   20493133.5454
        -0.000          -0.000
  -5728499.924 9  -4451943.76946  23441979.159    23441978.5064   23441985.8444
        -0.000          -0.000
 97  3  5 18 33 29.9980000  0  6 19  2 31 18 27 10                  -0.001840215
  -3747949.898 9  -2914257.82249  20106863.834    20106863.7584   20106869.0774
        -0.000          -0.000
 -12749784.453 9  -9911902.92948  21706165.854    21706165.2954   21706171.5644
        -0.000          -0.000
  -3254799.614 9  -2379413.87648  21304295.293    21304294.9834   21304300.2424
        -0.000          -0.000
   3902037.685 9   3056072.66448  20944067.011    20944066.9044   20944072.5984
        -0.000          -0.000
 -11513664.588 9  -8959203.05948  20479471.792    20479471.6174   20479476.8964
        -0.000          -0.000
  -5733383.141 9  -4455748.91546  23441050.015    23441049.2994   23441056.3984
        -0.000          -0.000
 97  3  5 18 33 59.9980000  0  6 19  2 31 18 27 10                  -0.001855103
  -3757773.154 9  -2921912.31149  20104994.508    20104994.5124   20104999.8224
        -0.000          -0.000
 -12822485.871 9  -9968553.34248  21692331.215    21692330.6624   21692336.9594
        -0.000          -0.000
  -3233632.958 9  -2362920.36547  21308323.168    21308322.8454   21308328.0914
        -0.000          -0.000
   3962653.443 9   3103305.70048  20955601.922    20955601.7594   20955607.4144
        -0.000          -0.000
 -11585201.110 9  -9014945.77648  20465858.894    20465858.6614   20465863.9904
        -0.000          -0.000
  -5737771.558 9  -4459168.45246  23440214.953    23440214.2274   23440221.5464
        -0.000          -0.000
 97  3  5 18 34 29.9980000  0  6 19  2 31 18 27 10                  -0.001869990
  -3767298.895 9  -2929334.97149  20103181.852    20103181.8374   20103187.1444
        -0.000          -0.000
 -12894906.558 9 -10024985.01048  21678549.941    21678549.4034   21678555.6694
        -0.000          -0.000
  -3211880.169 9  -2345970.13848  21312462.647    21312462.2904   21312467.5384
        -0.000          -0.000
   4023658.527 9   3150842.09148  20967210.773    20967210.6324   20967216.3424
        -0.000          -0.000
 -11656514.192 9  -9070514.38648  20452288.427    20452288.1964   20452293.5294
        -0.000          -0.000
  -5741659.959 9  -4462198.42946  23439475.140    23439474.4404   23439481.8014
        -0.000          -0.000
 97  3  5 18 34 59.9980000  0  6 19  2 31 18 27 10                  -0.001884858
  -3776522.425 9  -2936522.14349  20101426.695    20101426.7124   20101431.9724
        -0.000          -0.000
 -12967030.534 9 -10081185.46248  21664825.190    21664824.6844   21664830.9404
        -0.000          -0.000
  -3189523.439 9  -2328549.31948  21316716.950    21316716.6144   21316721.9114
        -0.000          -0.000
   4085066.949 9   3198692.78548  20978896.391    20978896.2424   20978901.9794
        -0.000          -0.000
 -11727619.857 9  -9125921.37548  20438757.425    20438757.1834   20438762.5254
        -0.000          -0.000
  -5745047.577 9  -4464838.12846  23438830.557    23438829.8364   23438837.2134
        -0.000          -0.000
 97  3  5 18 35 29.9980000  0  6 19  2 31 18 27 10                  -0.001899721
  -3785437.570 9  -2943469.01249  20099730.303    20099730.2664   20099735.4514
        -0.000          -0.000
 -13038871.750 9 -10137165.59148  21651154.270    21651153.7584   21651159.9854
        -0.000          -0.000
  -3166574.234 9  -2310666.80347  21321084.107    21321083.7514   21321089.0004
        -0.000          -0.000
   4146875.295 9   3246855.09648  20990658.084    20990657.9704   20990663.7114
        -0.000          -0.000
 -11798534.270 9  -9181179.33148  20425262.765    20425262.6054   20425267.9214
        -0.000          -0.000
  -5747962.653 9  -4467109.64446  23438275.815    23438275.0204   23438282.4184
        -0.000          -0.000
 97  3  5 18 35 59.9980000  0  6 19  2 31 18 27 10                  -0.001914568
  -3794033.476 9  -2950167.11549  20098094.658    20098094.5684   20098099.7414
        -0.000          -0.000
 -13110404.636 9 -10192905.46748  21637541.999    21637541.4724   21637547.7214
        -0.000          -0.000
  -3143015.129 9  -2292309.06847  21325567.122    21325566.8374   21325572.1004
        -0.000          -0.000
   4209097.469 9   3295339.87848  21002498.569    21002498.4934   21002504.2034
        -0.000          -0.000
 -11869251.265 9  -9236283.45748  20411805.761    20411805.6214   20411810.9654
        -0.000          -0.000
  -5750397.202 9  -4469006.68746  23437812.416    23437811.5904   23437819.2324
        -0.000          -0.000
 97  3  5 18 36 29.9980000  0  6 19  2 31 18 27 10                  -0.001929378
  -3802328.516 9  -2956630.77549  20096516.202    20096516.0624   20096521.2464
        -0.000          -0.000
 -13181619.786 9 -10248397.75548  21623990.205    21623989.7044   21623995.8934
        -0.000          -0.000
  -3118831.543 9  -2273464.70847  21330169.213    21330168.8814   21330174.0134
        -0.000          -0.000
   4271732.653 9   3344146.48548  21014417.705    21014417.5914   21014423.3674
        -0.000          -0.000
 -11939776.985 9  -9291238.54148  20398385.190    20398385.0324   20398390.3424
        -0.000          -0.000
  -5752350.739 9  -4470528.91946  23437440.827    23437439.9484   23437447.3454
        -0.000          -0.000
 97  3  5 18 36 59.9980000  0  6 19  2 31 18 27 10                  -0.001944134
  -3810308.796 9  -2962849.16949  20094997.535    20094997.4334   20095002.6564
        -0.000          -0.000
 -13252487.010 9 -10303618.93248  21610504.573    21610504.0804   21610510.1994
        -0.000          -0.000
  -3093997.345 9  -2254113.39147  21334895.010    21334894.6594   21334899.8574
        -0.000          -0.000
   4334807.492 9   3393295.67248  21026420.409    21026420.3624   21026426.1804
        -0.000          -0.000
 -12010077.894 9  -9346018.44748  20385007.414    20385007.2134   20385012.4954
        -0.000          -0.000
  -5753794.498 9  -4471653.93546  23437166.125    23437165.3284   23437172.6694
        -0.000          -0.000
 97  3  5 18 37 29.9980000  0  6 19  2 31 18 27 10                  -0.001958854
  -3817984.513 9  -2968830.23749  20093536.857    20093536.7544   20093542.0344
        -0.000          -0.000
 -13323027.508 9 -10358585.51248  21597081.072    21597080.5934   21597086.7444
        -0.000          -0.000
  -3068537.882 9  -2234274.83447  21339739.673    21339739.3564   21339744.6224
        -0.000          -0.000
   4398292.406 9   3442764.41148  21038501.286    21038501.1794   21038507.0124
        -0.000          -0.000
 -12080155.811 9  -9400624.59648  20371672.034    20371671.8554   20371677.0394
        -0.000          -0.000
  -5754738.088 9  -4472389.20246  23436986.557    23436985.8224   23436993.2434
        -0.000          -0.000
 97  3  5 18 37 59.9980000  0  6 19  2 31 18 27 10                  -0.001973524
  -3825374.669 9  -2974588.78949  20092130.482    20092130.4084   20092135.7604
        -0.000          -0.000
 -13393250.134 9 -10413304.40748  21583718.109    21583717.6234   21583723.7774
        -0.000          -0.000
  -3042454.087 9  -2213949.79047  21344703.210    21344702.8904   21344708.1944
        -0.000          -0.000
   4462195.402 9   3492558.92848  21050661.610    21050661.5304   21050667.4194
        -0.000          -0.000
 -12150009.138 9  -9455055.72748  20358379.341    20358379.1674   20358384.3354
        -0.000          -0.000
  -5755177.815 9  -4472731.86046  23436902.843    23436902.1204   23436909.5324
        -0.000          -0.000
 97  3  5 18 38 29.9980000  3  2
COLL                                                        MARKER NAME
--> THIS IS THE START OF A NEW SITE <---                    COMMENT
 97  3  5 18 38 29.9980000  0  6 19  2 31 18 27 10                  -0.001988104
  -3832416.086 9  -2980075.60349  20090790.530    20090790.4554   20090795.8484
        -0.000          -0.000
 -13463101.440 9 -10467733.98248  21570425.822    21570425.3454   21570431.5294
        -0.000          -0.000
  -3015688.184 9  -2193093.24447  21349796.607    21349796.3034   21349801.5624
        -0.000          -0.000
   4526580.337 9   3542728.96948  21062913.687    21062913.6184   21062919.4774
        -0.000          -0.000
 -12219569.783 9  -9509258.81748  20345142.318    20345142.1714   20345147.3474
        -0.000          -0.000
  -5755050.468 9  -4472632.65346  23436927.218    23436926.5424   23436933.7684
        -0.000          -0.000
 97  3  5 18 38 59.9980000  0  6 19  2 31 18 27 10                  -0.002002642
  -3839149.411 9  -2985322.33449  20089509.162    20089509.1124   20089514.5304
        -0.000          -0.000
 -13532656.397 9 -10521932.62348  21557189.913    21557189.4484   21557195.6434
        -0.000          -0.000
  -2988308.999 9  -2171758.81147  21355006.702    21355006.4174   21355011.6154
        -0.000          -0.000
   4591381.214 9   3593223.12948  21075244.959    21075244.8414   21075250.6994
        -0.000          -0.000
 -12288881.903 9  -9563268.23448  20331952.637    20331952.4724   20331957.6794
        -0.000          -0.000
  -5754412.885 8  -4472135.87445  23437048.406    23437047.7504   23437055.1674
        -0.000          -0.000
 97  3  5 18 39 29.9970000  0  7 19  2 31 18  7 27 10               -0.002017170
  -3845592.623 9  -2990343.00749  20088283.159    20088283.0814   20088288.4314
        -0.000          -0.000
 -13601950.477 9 -10575927.98048  21544003.687    21544003.2174   21544009.3704
        -0.000          -0.000
  -2960348.514 9  -2149971.40547  21360327.428    21360327.1234   21360332.3424
        -0.000          -0.000
   4656560.724 9   3644012.33148  21087648.244    21087648.0954   21087653.9164
        -0.000          -0.000
  -2704321.41919  -1452763.77255  23878790.136    23878789.7385   23878798.6635
        -0.000          -0.000
 -12357971.050 9  -9617103.90848  20318805.406    20318805.2644   20318810.4364
        -0.000          -0.000
  -5753295.654 8  -4471265.28145  23437260.657    23437260.0334   23437267.8074
        -0.000          -0.000
 97  3  5 18 39 59.9970000  0  7 19  2 31 18  7 27 10               -0.002031685
  -3851759.905 9  -2995148.66149  20087109.579    20087109.4634   20087114.8324
        -0.000          -0.000
 -13671009.305 9 -10629740.02548  21530862.186    21530861.7054   21530867.8804
        -0.000          -0.000
  -2931818.136 9  -2127739.93947  21365756.564    21365756.3254   21365761.5654
        -0.000          -0.000
   4722103.658 9   3695084.71648  21100120.631    21100120.5014   21100126.3154
        -0.000          -0.000
  -2834383.354 9  -1554110.49945  23854039.911    23854039.5134   23854048.6524
        -0.000          -0.000
 -12426852.588 9  -9670777.80748  20305697.750    20305697.5784   20305702.7264
        -0.000          -0.000
  -5751719.537 8  -4470037.12745  23437560.945    23437560.1544   23437567.8374
        -0.000          -0.000
 97  3  5 18 40 29.9970000  0  7 19  2 31 18  7 27 10               -0.002046154
  -3857603.263 9  -2999701.90749  20085997.581    20085997.5034   20086002.8444
        -0.000          -0.000
 -13739809.309 9 -10683350.39448  21517769.952    21517769.4684   21517775.6344
        -0.000          -0.000
  -2902707.025 9  -2105055.96047  21371296.243    21371295.9804   21371301.2224
        -0.000          -0.000
   4788010.020 9   3746440.29148  21112662.300    21112662.1584   21112667.8854
        -0.000          -0.000
  -2964376.232 9  -1655403.41445  23829302.945    23829302.5674   23829311.7254
        -0.000          -0.000
 -12495502.243 9  -9724271.01948  20292634.129    20292633.9424   20292639.1104
        -0.000          -0.000
  -5749661.219 8  -4468433.30245  23437952.690    23437951.9534   23437959.4094
        -0.000          -0.000
 97  3  5 18 40 59.9970000  0  7 19  2 31 18  7 27 10               -0.002060587
  -3863115.780 9  -3003997.36149  20084948.519    20084948.4994   20084953.8254
        -0.000          -0.000
 -13808350.743 9 -10736759.28748  21504726.994    21504726.4874   21504732.6374
        -0.000          -0.000
  -2873020.924 9  -2081923.93347  21376945.349    21376945.0394   21376950.2834
        -0.000          -0.000
   4854281.020 9   3798080.00048  21125273.305    21125273.1984   21125278.8504
        -0.000          -0.000
  -3094313.969 9  -1756653.36945  23804576.486    23804576.0554   23804585.3004
        -0.000          -0.000
 -12563934.972 9  -9777595.20248  20279611.738    20279611.5974   20279616.8024
        -0.000          -0.000
  -5747129.384 8  -4466460.42945  23438434.535    23438433.7704   23438441.2314
        -0.000          -0.000
 97  3  5 18 41 29.9970000  0  7 19  2 31 18  7 27 10               -0.002074991
  -3868301.682 9  -3008038.29749  20083961.648    20083961.6034   20083966.9654
        -0.000          -0.000
 -13876604.583 9 -10789944.07448  21491738.676    21491738.1894   21491744.3854
        -0.000          -0.000
  -2842747.213 9  -2058334.02647  21382706.131    21382705.8914   21382711.0924
        -0.000          -0.000
   4920943.057 9   3850024.42148  21137958.656    21137958.5564   21137964.3164
        -0.000          -0.000
  -3224191.708 9  -1857856.61045  23779861.289    23779860.9254   23779870.2764
        -0.000          -0.000
 -12632155.234 9  -9830753.82648  20266629.883    20266629.7244   20266634.9214
        -0.000          -0.000
  -5744124.633 8  -4464119.11645  23439006.154    23439005.5054   23439012.9704
        -0.000          -0.000
 97  3  5 18 41 59.9970000  0  7 19  2 31 18  7 27 10               -0.002089380
  -3873175.138 9  -3011835.78249  20083034.196    20083034.1654   20083039.5344
        -0.000          -0.000
 -13944568.800 9 -10842903.16948  21478805.560    21478805.0534   21478811.2634
        -0.000          -0.000
  -2811900.770 9  -2034297.84647  21388576.026    21388575.6984   21388581.0014
        -0.000          -0.000
   4987995.575 9   3902273.10448  21150718.303    21150718.2124   21150724.0454
        -0.000          -0.000
  -3354021.410 9  -1959022.43845  23755155.313    23755155.0694   23755164.5604
        -0.000          -0.000
 -12700175.940 9  -9883756.95848  20253685.963    20253685.7854   20253690.9964
        -0.000          -0.000
  -5740665.349 8  -4461423.57045  23439664.186    23439663.4894   23439671.1544
        -0.000          -0.000
 97  3  5 18 42 29.9970000  0  7 19  2 31 18  7 27 10               -0.002103762
  -3877734.129 9  -3015388.22149  20082166.657    20082166.6354   20082171.9954
        -0.000          -0.000
 -14012214.343 9 -10895613.95148  21465932.998    21465932.5044   21465938.7314
        -0.000          -0.000
  -2780476.034 9  -2009811.04547  21394555.913    21394555.7074   21394560.9624
        -0.000          -0.000
   5055468.240 9   3954849.17548  21163558.105    21163557.9244   21163563.6394
        -0.000          -0.000
  -3483810.070 9  -2060156.27145  23730457.279    23730456.9874   23730466.4784
        -0.000          -0.000
 -12767991.189 9  -9936599.99148  20240781.167    20240780.9694   20240786.1404
        -0.000          -0.000
  -5736739.522 9  -4458364.52545  23440411.250    23440410.6114   23440418.1714
        -0.000          -0.000
 97  3  5 18 42 59.9970000  0  7 19  2 31 18  7 27 10               -0.002118133
  -3882007.499 9  -3018718.10449  20081353.401    20081353.4184   20081358.7654
        -0.000          -0.000
 -14079542.721 9 -10948077.58048  21453120.798    21453120.2844   21453126.5244
        -0.000          -0.000
  -2748470.104 9  -1984871.37247  21400646.611    21400646.2714   21400651.5014
        -0.000          -0.000
   5123369.238 9   4007759.00748  21176479.242    21176479.0594   21176484.7624
        -0.000          -0.000
  -3613551.479 9  -2161253.26445  23705768.225    23705767.8594   23705777.2974
        -0.000          -0.000
 -12835594.340 9  -9989277.75148  20227916.689    20227916.5154   20227921.6124
        -0.000          -0.000
  -5732352.997 9  -4454946.46446  23441246.147    23441245.5334   23441252.9124
        -0.000          -0.000
 97  3  5 18 43 29.9970000  0  7 19  2 31 18  7 27 10               -0.002132497
  -3886002.404 9  -3021830.99849  20080593.167    20080593.1754   20080598.5284
        -0.000          -0.000
 -14146569.564 9 -11000306.26148  21440365.963    21440365.4844   21440371.6724
        -0.000          -0.000
  -2715894.595 9  -1959487.86747  21406845.553    21406845.2104   21406850.3854
        -0.000          -0.000
   5191674.711 9   4060984.02548  21189477.379    21189477.1804   21189482.9924
        -0.000          -0.000
  -3743251.999 8  -2262318.43045  23681086.732    23681086.4754   23681096.1674
        -0.000          -0.000
 -12902983.706 9 -10041788.93048  20215092.971    20215092.7734   20215097.8284
        -0.000          -0.000
  -5727512.167 9  -4451174.38946  23442167.365    23442166.7764   23442174.3254
        -0.000          -0.000
 97  3  5 18 43 59.9970000  0  7 19  2 31 18  7 27 10               -0.002146844
  -3889688.746 9  -3024703.45749  20079891.713    20079891.6804   20079897.0334
        -0.000          -0.000
 -14213289.453 9 -11052295.74848  21427669.568    21427669.1234   21427675.2924
        -0.000          -0.000
  -2682742.493 9  -1933655.07847  21413154.072    21413153.8424   21413159.0724
        -0.000          -0.000
   5260374.842 9   4114516.56048  21202550.547    21202550.3804   21202556.2684
        -0.000          -0.000
  -3872900.453 8  -2363342.97145  23656415.049    23656414.9364   23656424.7204
        -0.000          -0.000
 -12970137.169 9 -10094116.28248  20202313.987    20202313.8894   20202318.9484
        -0.000          -0.000
  -5722203.489 9  -4447037.78546  23443177.600    23443176.9964   23443184.5594
        -0.000          -0.000
 97  3  5 18 44 29.9970000  0  7 19  2 31 18  7 27 10               -0.002161156
  -3893062.431 9  -3027332.28648  20079249.762    20079249.6754   20079255.0444
        -0.000          -0.000
 -14279715.319 9 -11104056.12148  21415029.167    21415028.7244   21415034.8914
        -0.000          -0.000
  -2649006.920 9  -1907367.63047  21419573.833    21419573.5384   21419578.7644
        -0.000          -0.000
   5329451.526 9   4168342.51848  21215695.523    21215695.3304   21215701.1464
        -0.000          -0.000
  -4002477.835 8  -2464312.16345  23631757.140    23631756.9864   23631766.7054
        -0.000          -0.000
 -13037044.946 9 -10146252.19348  20189581.879    20189581.7444   20189586.7914
        -0.000          -0.000
  -5716422.594 9  -4442533.22146  23444277.719    23444277.0854   23444284.4184
        -0.000          -0.000
 97  3  5 18 44 59.9970000  0  7 19  2 31 18  7 27 10               -0.002175434
  -3896117.925 9  -3029713.17948  20078668.226    20078668.1874   20078673.6074
        -0.000          -0.000
 -14345863.880 9 -11155600.41048  21402441.586    21402441.0594   21402447.1864
        -0.000          -0.000
  -2614693.524 9  -1880629.93347  21426103.364    21426103.1284   21426108.4264
        -0.000          -0.000
   5398876.197 9   4222439.63948  21228906.558    21228906.4044   21228912.2604
        -0.000          -0.000
  -4131984.178 8  -2565225.99045  23607112.726    23607112.5664   23607122.0574
        -0.000          -0.000
 -13103715.827 9 -10198203.51248  20176894.746    20176894.6374   20176899.7334
        -0.000          -0.000
  -5710190.588 9  -4437677.13645  23445463.614    23445462.9934   23445470.1494
        -0.000          -0.000
 97  3  5 18 45 29.9970000  0  7 19  2 31 18  7 27 10               -0.002189685
  -3898841.936 9  -3031835.77848  20078149.825    20078149.8164   20078155.2674
        -0.000          -0.000
 -14411726.770 9 -11206922.09948  21389908.167    21389907.6554   21389913.8254
        -0.000          -0.000
  -2579799.649 9  -1853439.92447  21432743.406    21432743.1814   21432748.5184
        -0.000          -0.000
   5468642.084 9   4276802.63048  21242182.477    21242182.3734   21242188.2874
        -0.000          -0.000
  -4261425.138 8  -2666088.83545  23582480.794    23582480.6594   23582490.1484
        -0.000          -0.000
 -13170144.149 9 -10249965.83148  20164253.806    20164253.7284   20164258.8154
        -0.000          -0.000
  -5703513.197 9  -4432473.98145  23446734.338    23446733.5944   23446741.0024
        -0.000          -0.000
 97  3  5 18 45 59.9970000  0  7 19  2 31 18  7 27 10               -0.002203918
  -3901265.253 9  -3033724.06848  20077688.725    20077688.7254   20077694.1534
        -0.000          -0.000
 -14477327.211 9 -11258039.28948  21377424.726    21377424.2874   21377430.4654
        -0.000          -0.000
  -2544344.722 9  -1825812.71347  21439490.271    21439490.0204   21439495.3754
        -0.000          -0.000
   5538736.991 9   4331422.00148  21255521.224    21255521.0394   21255526.9744
        -0.000          -0.000
  -4390810.768 8  -2766908.55345  23557859.270    23557859.4234   23557868.8064
        -0.000          -0.000
 -13236334.004 9 -10301542.32249  20151658.238    20151658.1574   20151663.3354
        -0.000          -0.000
  -5696410.726 9  -4426939.61845  23448085.772    23448085.2274   23448092.6074
        -0.000          -0.000
 97  3  5 18 46 29.9970000  0  7 19  2 31 18  7 27 10               -0.002218133
  -3903392.701 9  -3035381.81548  20077283.938    20077283.8964   20077289.2844
        -0.000          -0.000
 -14542672.621 9 -11308957.75448  21364989.937    21364989.4464   21364995.6534
        -0.000          -0.000
  -2508327.028 9  -1797746.98547  21446344.311    21446343.9954   21446349.2644
        -0.000          -0.000
   5609176.236 9   4386309.69648  21268925.368    21268925.2104   21268931.0894
        -0.000          -0.000
  -4520141.131 8  -2867685.20945  23533248.504    23533248.3824   23533257.8864
        -0.000          -0.000
 -13302279.325 9 -10352928.27349  20139109.260    20139109.1554   20139114.3494
        -0.000          -0.000
  -5688881.639 9  -4421072.80345  23449518.607    23449518.1664   23449525.3464
        -0.000          -0.000
 97  3  5 18 46 59.9970000  0  7 19  2 31 18  7 27 10               -0.002232323
  -3905208.612 9  -3036796.80048  20076938.448    20076938.3754   20076943.7464
        -0.000          -0.000
 -14607742.271 9 -11359661.34248  21352607.496    21352607.0384   21352613.2464
        -0.000          -0.000
  -2471734.609 9  -1769233.42447  21453307.530    21453307.2644   21453312.5354
        -0.000          -0.000
   5679986.552 9   4441486.52447  21282400.120    21282400.0014   21282405.8994
        -0.000          -0.000
  -4649412.151 8  -2968415.61745  23508648.861    23508648.8424   23508658.2574
        -0.000          -0.000
 -13367968.665 9 -10404114.75949  20126609.072    20126608.9084   20126614.0514
        -0.000          -0.000
  -5680902.816 8  -4414855.53445  23451036.994    23451036.5554   23451043.6624
        -0.000          -0.000
 97  3  5 18 47 29.9970000  0  7 19  2 31 18  7 27 10               -0.002246490
  -3906736.002 9  -3037986.97148  20076647.875    20076647.7864   20076653.1144
        -0.000          -0.000
 -14672559.436 9 -11410168.17648  21340273.231    21340272.7474   21340278.8594
        -0.000          -0.000
  -2434589.468 9  -1740289.16747  21460376.047    21460375.7804   21460381.0304
        -0.000          -0.000
   5751153.328 9   4496941.12647  21295942.717    21295942.5954   21295948.4524
        -0.000          -0.000
  -4778632.223 8  -3069106.36546  23484058.925    23484058.7054   23484068.2954
        -0.000          -0.000
 -13433416.963 9 -10455113.41748  20114154.749    20114154.5414   20114159.5804
        -0.000          -0.000
  -5672474.461 8  -4408287.99845  23452640.923    23452640.3564   23452647.4534
        -0.000          -0.000
 97  3  5 18 47 59.9970000  0  7 19  2 31 18  7 27 10               -0.002260621
  -3907957.502 9  -3038938.78148  20076415.526    20076415.3474   20076420.6354
        -0.000          -0.000
 -14737112.470 9 -11460469.20548  21327989.226    21327988.7114   21327994.7964
        -0.000          -0.000
  -2396888.900 9  -1710912.10747  21467550.344    21467550.0544   21467555.2764
        -0.000          -0.000
   5822690.393 9   4552684.26647  21309555.707    21309555.6414   21309561.5574
        -0.000          -0.000
  -4907786.047 9  -3169745.47946  23459481.733    23459481.4394   23459490.8754
        -0.000          -0.000
 -13498626.620 9 -10505926.11848  20101745.725    20101745.5414   20101750.5754
        -0.000          -0.000
  -5663573.372 8  -4401352.08245  23454334.641    23454334.1624   23454341.3514
        -0.000          -0.000
 97  3  5 18 48 29.9970000  0  7 19  2 31 18  7 27 10               -0.002274699
  -3908851.826 9  -3039635.65548  20076245.316    20076245.1554   20076250.4594
        -0.000          -0.000
 -14801373.183 9 -11510542.45848  21315760.676    21315760.2364   21315766.3584
        -0.000          -0.000
  -2358614.697 9  -1681088.06947  21474833.801    21474833.4524   21474838.6074
        -0.000          -0.000
   5894608.464 9   4608724.29747  21323241.431    21323241.2974   21323247.1644
        -0.000          -0.000
  -5036853.190 8  -3270317.02646  23434921.016    23434920.6724   23434929.8324
        -0.000          -0.000
 -13563596.770 9 -10556552.20149  20089382.311    20089382.1404   20089387.2024
        -0.000          -0.000
  -5654179.758 8  -4394032.39145  23456122.577    23456121.9954   23456128.7864
        -0.000          -0.000
 97  3  5 18 48 59.9970000  0  7 19  2 31 18  7 27 10               -0.002288737
  -3909445.938 9  -3040098.59348  20076132.221    20076132.1134   20076137.3874
        -0.000          -0.000
 -14865358.159 9 -11560400.84948  21303584.770    21303584.2864   21303590.4254
        -0.000          -0.000
  -2319790.811 9  -1650835.69447  21482221.727    21482221.4084   21482226.6144
        -0.000          -0.000
   5966869.689 9   4665031.71847  21336992.270    21336992.1484   21336998.0384
        -0.000          -0.000
  -5165841.417 9  -3370827.08746  23410375.468    23410375.0054   23410383.9404
        -0.000          -0.000
 -13628358.888 9 -10607016.17049  20077058.544    20077058.3624   20077063.3924
        -0.000          -0.000
  -5644322.348 8  -4386351.33245  23457998.251    23457997.5774   23458004.2134
        -0.000          -0.000
 97  3  5 18 49 29.9970000  0  7 19  2 31 18  7 27 10               -0.002302749
  -3909745.684 9  -3040332.16448  20076075.150    20076075.1024   20076080.3274
        -0.000          -0.000
 -14929069.613 9 -11610046.11348  21291460.963    21291460.4294   21291466.5174
        -0.000          -0.000
  -2280429.507 9  -1620164.55547  21489711.959    21489711.6824   21489716.8674
        -0.000          -0.000
   6039464.890 9   4721599.37347  21350806.632    21350806.5044   21350812.4044
        -0.000          -0.000
  -5294750.035 9  -3471275.15945  23385844.941    23385844.5764   23385853.1784
        -0.000          -0.000
 -13692914.648 9 -10657319.34449  20064774.083    20064773.8164   20064778.8694
        -0.000          -0.000
  -5634029.654 8  -4378331.12245  23459956.883    23459956.3594   23459963.0384
        -0.000          -0.000
 97  3  5 18 49 59.9970000  0  7 19  2 31 18  7 27 10               -0.002316746
  -3909763.475 9  -3040346.02348  20076071.730    20076071.7054   20076076.9524
        -0.000          -0.000
 -14992515.301 9 -11659484.28648  21279387.626    21279387.0674   21279393.1564
        -0.000          -0.000
  -2240536.916 9  -1589079.44447  21497303.246    21497302.9274   21497308.2174
        -0.000          -0.000
   6112384.816 9   4778420.06047  21364682.860    21364682.7984   21364688.6264
        -0.000          -0.000
  -5423587.343 9  -3571667.64545  23361328.078    23361327.5314   23361335.8454
        -0.000          -0.000
 -13757266.464 9 -10707463.60249  20052528.262    20052528.0244   20052533.0914
        -0.000          -0.000
  -5623330.745 8  -4369994.32445  23461992.983    23461992.2814   23461999.3304
        -0.000          -0.000
 97  3  5 18 50 29.9970000  0  7 19  2 31 18  7 27 10               -0.002330734
  -3909504.619 9  -3040144.31448  20076120.990    20076120.9114   20076126.1584
        -0.000          -0.000
 -15055705.208 9 -11708723.15848  21267362.940    21267362.4314   21267368.4784
        -0.000          -0.000
  -2200114.525 9  -1557581.49047  21504995.394    21504995.1014   21505000.3994
        -0.000          -0.000
   6185611.264 9   4835479.60247  21378617.591    21378617.4214   21378623.1844
        -0.000          -0.000
  -5552343.895 9  -3671997.18345  23336826.612    23336825.7414   23336834.0534
        -0.000          -0.000
 -13821409.444 9 -10757445.13249  20040322.237    20040322.0044   20040327.1024
        -0.000          -0.000
  -5612253.904 8  -4361363.08345  23464100.650    23464100.0514   23464107.6844
        -0.000          -0.000
 97  3  5 18 50 59.9970000  0  7 19  2 31 18  7 27 10               -0.002344705
  -3908933.976 9  -3039699.66148  20076229.540    20076229.5154   20076234.7144
        -0.000          -0.000
 -15118609.724 9 -11757739.64148  21255392.718    21255392.1484   21255398.1354
        -0.000          -0.000
  -2159135.838 9  -1525650.06347  21512793.459    21512793.1634   21512798.3394
        -0.000          -0.000
   6259176.626 9   4892803.22847  21392616.548    21392616.4104   21392622.3034
        -0.000          -0.000
  -5680996.303 9  -3772245.59845  23312344.993    23312344.0004   23312352.0764
        -0.000          -0.000
 -13885302.075 9 -10807231.58349  20028163.884    20028163.6514   20028168.7734
        -0.000          -0.000
  -5600782.59617  -4352424.41145  23466283.114    23466282.4415   23466290.6394
        -0.000          -0.000
 97  3  5 18 51 29.9970000  0  7 19  2 31 18  7 27 10               -0.002358666
  -3908039.081 9  -3039002.34648  20076399.877    20076399.7984   20076405.0014
        -0.000          -0.000
 -15181222.019 9 -11806528.43448  21243477.911    21243477.3574   21243483.3444
        -0.000          -0.000
  -2117613.210 9  -1493294.78247  21520694.984    21520694.7034   21520699.7744
        -0.000          -0.000
   6333085.876 9   4950394.83647  21406680.952    21406680.9034   21406686.7924
        -0.000          -0.000
  -5809540.603 9  -3872409.78245  23287883.666    23287882.7054   23287890.7844
        -0.000          -0.000
 -13948919.253 9 -10856803.40149  20016057.883    20016057.6624   20016062.7654
        -0.000          -0.000
  -5588905.25618  -4343169.28345  23468543.085    23468542.2555   23468550.7044
        -0.000          -0.000
 97  3  5 18 51 59.9970000  0  7 19  2 31 18  7 27 10               -0.002372607
  -3906808.078 9  -3038043.12448  20076634.160    20076634.0454   20076639.2364
        -0.000          -0.000
 -15243548.630 9 -11855094.61448  21231617.559    21231617.0674   21231622.9864
        -0.000          -0.000
  -2075541.889 9  -1460511.95347  21528700.867    21528700.6104   21528705.6664
        -0.000          -0.000
   6407325.105 9   5008243.55347  21420808.385    21420808.2434   21420814.0404
        -0.000          -0.000
  -5937979.419 9  -3972491.79945  23263442.227    23263441.4554   23263449.4024
        -0.000          -0.000
 -14012258.150 9 -10906158.37449  20004004.851    20004004.6564   20004009.7174
        -0.000          -0.000
  -5576611.916 8  -4333590.07545  23470883.196    23470882.4354   23470890.2464
        -0.000          -0.000
 97  3  5 18 52 29.9970000  0  7 19  2 31 18  7 27 10               -0.002386530
  -3905220.246 9  -3036805.85648  20076936.294    20076936.1764   20076941.3754
        -0.000          -0.000
 -15305572.476 9 -11903424.86048  21219814.877    21219814.3084   21219820.2354
        -0.000          -0.000
  -2032926.177 9  -1427304.93647  21536810.300    21536810.0374   21536815.1674
        -0.000          -0.000
   6481893.843 9   5066349.03147  21434998.362    21434998.2304   21435003.9804
        -0.000          -0.000
  -6066305.501 9  -4072486.00445  23239021.994    23239021.4514   23239029.4204
        -0.000          -0.000
 -14075310.066 9 -10955289.72449  19992006.453    19992006.2324   19992011.2904
        -0.000          -0.000
  -5563882.241 8  -4323670.90345  23473305.191    23473304.5594   23473312.1974
        -0.000          -0.000
 97  3  5 18 52 59.9970000  0  7 19  2 31 18  7 27 10               -0.002400452
  -3903310.343 9  -3035317.62748  20077299.643    20077299.5854   20077304.8024
        -0.000          -0.000
 -15367324.706 9 -11951543.45648  21208063.737    21208063.1934   21208069.1494
        -0.000          -0.000
  -1989811.321 9  -1393708.96247  21545014.834    21545014.5474   21545019.7164
        -0.000          -0.000
   6556758.953 9   5124685.44747  21449244.727    21449244.6374   21449250.4704
        -0.000          -0.000
  -6194564.179 8  -4172427.66845  23214614.880    23214614.3374   23214622.2094
        -0.000          -0.000
 -14138107.359 9 -11004222.66449  19980056.508    19980056.2854   19980061.3564
        -0.000          -0.000
  -5550732.226 9  -4313424.21345  23475807.652    23475806.9064   23475814.2074
        -0.000          -0.000
 97  3  5 18 53 29.9970000  0  7 19  2 31 18  7 27 10               -0.002414362
  -3901072.104 9  -3033573.54948  20077725.582    20077725.5304   20077730.7744
        -0.000          -0.000
 -15428799.488 9 -11999445.85848  21196365.454    21196364.8924   21196370.8614
        -0.000          -0.000
  -1946189.302 9  -1359717.81547  21553315.810    21553315.5204   21553320.8444
        -0.000          -0.000
   6631923.082 9   5183254.87147  21463548.050    21463547.9054   21463553.8404
        -0.000          -0.000
  -6322739.690 8  -4272304.57145  23190223.546    23190223.2144   23190230.9714
        -0.000          -0.000
 -14200646.263 9 -11052954.26549  19968155.740    19968155.5444   19968160.5844
        -0.000          -0.000
  -5537143.543 8  -4302835.65645  23478393.638    23478392.9274   23478400.1134
        -0.000          -0.000
 97  3  5 18 53 59.9970000  0  7 19  2 31 18  7 27 10               -0.002428255
  -3898521.368 9  -3031585.97148  20078210.913    20078210.9044   20078216.2054
        -0.000          -0.000
 -15490014.812 9 -12047146.08348  21184716.541    21184715.9864   21184721.9194
        -0.000          -0.000
  -1902051.393 9  -1325324.67347  21561715.099    21561714.7464   21561720.0984
        -0.000          -0.000
   6707381.879 9   5242053.90047  21477907.333    21477907.2644   21477913.1994
        -0.000          -0.000
  -6450845.729 8  -4372127.33945  23165845.210    23165844.9704   23165852.8574
        -0.000          -0.000
 -14262956.528 9 -11101507.71449  19956298.455    19956298.2624   19956303.3164
        -0.000          -0.000
  -5523138.992 9  -4291923.06845  23481058.665    23481058.0114   23481065.3004
        -0.000          -0.000
 97  3  5 18 54 29.9970000  0  7 19  2 31 18  7 27 10               -0.002442125
  -3895666.689 9  -3029361.55548  20078754.176    20078754.1384   20078759.4384
        -0.000          -0.000
 -15550951.985 9 -12094629.56348  21173120.515    21173120.0044   21173125.9144
        -0.000          -0.000
  -1857386.641 9  -1290521.00547  21570214.646    21570214.2314   21570219.5654
        -0.000          -0.000
   6783159.965 9   5301101.72647  21492327.509    21492327.4114   21492333.3164
        -0.000          -0.000
  -6578862.386 8  -4471880.42745  23141484.032    23141483.9534   23141492.1814
        -0.000          -0.000
 -14325022.441 9 -11149870.75249  19944487.655    19944487.4994   19944492.5504
        -0.000          -0.000
  -5508711.563 9  -4280680.91445  23483804.029    23483803.2914   23483810.6604
        -0.000          -0.000
 97  3  5 18 54 59.9970000  0  7 19  2 31 18  7 27 10               -0.002455965
  -3892525.546 9  -3026913.92148  20079351.974    20079351.8944   20079357.1604
        -0.000          -0.000
 -15611627.870 9 -12141909.44348  21161574.220    21161573.7474   21161579.6224
        -0.000          -0.000
  -1812187.287 9  -1255300.74147  21578815.939    21578815.5174   21578820.7024
        -0.000          -0.000
   6859253.304 9   5360395.20747  21506807.609    21506807.5474   21506813.4304
        -0.000          -0.000
  -6706796.280 8  -4571569.06045  23117139.577    23117139.2864   23117147.1514
        -0.000          -0.000
 -14386847.735 9 -11198046.29649  19932722.661    19932722.5534   19932727.5974
        -0.000          -0.000
  -5493880.946 8  -4269124.58145  23486626.285    23486625.4584   23486632.8414
        -0.000          -0.000
 97  3  5 18 55 29.9970000  0  7 19  2 31 18  7 27 10               -0.002469794
  -3889130.190 9  -3024268.20048  20079997.996    20079997.9674   20080003.2374
        -0.000          -0.000
 -15672078.830 9 -12189014.04748  21150070.828    21150070.3214   21150076.2454
        -0.000          -0.000
  -1766474.537 9  -1219680.44647  21587514.767    21587514.3454   21587519.5414
        -0.000          -0.000
   6935638.151 9   5419915.83847  21521343.197    21521343.1144   21521349.0594
        -0.000          -0.000
  -6834662.888 8  -4671205.27645  23092807.580    23092807.0034   23092814.9174
        -0.000          -0.000
 -14448465.955 9 -11246060.48249  19920997.064    19920996.9614   19921002.0444
        -0.000          -0.000
  -5478693.501 9  -4257290.20545  23489516.338    23489515.4974   23489522.8754
        -0.000          -0.000
 97  3  5 18 55 59.9970000  0  7 19  2 31 18  7 27 10               -0.002483594
  -3885441.218 9  -3021393.68348  20080699.943    20080699.9714   20080705.2264
        -0.000          -0.000
 -15732269.930 9 -12235916.17048  21138616.834    21138616.2814   21138622.2374
        -0.000          -0.000
  -1720215.806 9  -1183634.71247  21596317.442    21596317.0614   21596322.3184
        -0.000          -0.000
   7012342.020 9   5479685.05247  21535939.454    21535939.3394   21535945.2964
        -0.000          -0.000
  -6962425.905 9  -4770760.79246  23068495.072    23068494.5034   23068502.4224
        -0.000          -0.000
 -14509838.367 9 -11293883.13549  19909318.296    19909318.1364   19909323.2424
        -0.000          -0.000
  -5463127.781 9  -4245161.11245  23492478.295    23492477.5064   23492485.0054
        -0.000          -0.000
 97  3  5 18 56 29.9970000  0  7 19  2 31 18  7 27 10               -0.002497365
  -3881455.425 9  -3018287.87648  20081458.419    20081458.4754   20081463.7334
        -0.000          -0.000
 -15792198.823 9 -12282613.96748  21127212.703    21127212.1664   21127218.1044
        -0.000          -0.000
  -1673423.342 9  -1147173.09247  21605221.731    21605221.3564   21605226.6864
        -0.000          -0.000
   7089345.446 9   5539687.69147  21550592.785    21550592.6354   21550598.5234
        -0.000          -0.000
  -7090075.871 9  -4870228.22646  23044204.055    23044203.5604   23044211.3464
        -0.000          -0.000
 -14570961.275 9 -11341511.36749  19897687.014    19897686.8384   19897691.9244
        -0.000          -0.000
  -5447180.517 9  -4232734.70245  23495513.192    23495512.3354   23495519.9764
        -0.000          -0.000
 97  3  5 18 56 59.9970000  0  7 19  2 31 18  7 27 10               -0.002511102
  -3877155.349 9  -3014937.17848  20082276.826    20082276.8094   20082282.0684
        -0.000          -0.000
 -15851875.058 9 -12329114.90748  21115856.687    21115856.1674   21115861.9974
        -0.000          -0.000
  -1626105.796 9  -1110302.30647  21614226.007    21614225.5834   21614230.9864
        -0.000          -0.000
   7166642.566 9   5599919.18447  21565301.922    21565301.8424   21565307.6514
        -0.000          -0.000
  -7217610.072 9  -4969605.43046  23019935.198    23019934.5914   23019942.3814
        -0.000          -0.000
 -14631841.806 9 -11388950.73949  19886101.844    19886101.7184   19886106.7794
        -0.000          -0.000
  -5430839.454 9  -4220001.44545  23498622.925    23498622.0424   23498629.5614
        -0.000          -0.000
 97  3  5 18 57 29.9970000  0  7 19  2 31 18  7 27 10               -0.002524819
  -3872568.188 9  -3011362.78248  20083149.769    20083149.7154   20083154.9404
        -0.000          -0.000
 -15911325.210 9 -12375439.66648  21104543.685    21104543.1694   21104549.0034
        -0.000          -0.000
  -1578303.376 9  -1073053.71547  21623322.492    21623322.0564   21623327.4464
        -0.000          -0.000
   7244206.465 9   5660358.54347  21580061.827    21580061.7444   21580067.6094
        -0.000          -0.000
  -7345045.160 9  -5068905.41446  22995685.059    22995684.4594   22995692.3144
        -0.000          -0.000
 -14692509.478 9 -11436224.24949  19874557.261    19874557.0904   19874562.1024
        -0.000          -0.000
  -5414118.034 8  -4206971.78545  23501804.746    23501804.0504   23501811.3374
        -0.000          -0.000
 97  3  5 18 57 59.9970000  0  7 19  2 31 18  7 27 10               -0.002538518
  -3867671.834 9  -3007547.45548  20084081.581    20084081.4904   20084086.7094
        -0.000          -0.000
 -15970532.811 9 -12421575.42648  21093276.805    21093276.2894   21093282.1804
        -0.000          -0.000
  -1530019.959 9  -1035430.31147  21632510.554    21632510.1154   21632515.4634
        -0.000          -0.000
   7322040.517 9   5721008.42947  21594873.275    21594873.1114   21594879.0224
        -0.000          -0.000
  -7472382.308 9  -5168129.07446  22971453.385    22971452.9544   22971460.6754
        -0.000          -0.000
 -14752947.559 9 -11483318.85749  19863056.300    19863056.1224   19863061.0964
        -0.000          -0.000
  -5397002.316 8  -4193634.90745  23505061.908    23505061.2854   23505068.4704
        -0.000          -0.000
 97  3  5 18 58 29.9970000  0  7 19  2 31 18  7 27 10               -0.002552212
  -3862484.361 9  -3003505.28048  20085068.706    20085068.6164   20085073.8634
        -0.000          -0.000
 -16029507.717 9 -12467529.86548  21082054.216    21082053.6984   21082059.5884
        -0.000          -0.000
  -1481284.698 9   -997454.81947  21641784.680    21641784.2254   21641789.4844
        -0.000          -0.000
   7400139.014 9   5781864.37347  21609734.845    21609734.7924   21609740.7194
        -0.000          -0.000
  -7599634.831 9  -5267286.78946  22947238.033    22947237.6584   22947245.2094
        -0.000          -0.000
 -14813164.806 9 -11530241.38749  19851597.385    19851597.2054   19851602.1314
        -0.000          -0.000
  -5379494.070 8  -4179992.14145  23508393.595    23508392.6294   23508400.1944
        -0.000          -0.000
 97  3  5 18 58 59.9970000  0  7 19  2 31 18  7 27 10               -0.002565904
  -3856987.250 9  -2999221.82948  20086114.827    20086114.7424   20086119.9294
        -0.000          -0.000
 -16088221.080 9 -12513280.52148  21070881.393    21070880.8634   21070886.8104
        -0.000          -0.000
  -1432092.207 9   -959123.05347  21651145.678    21651145.2444   21651150.4884
        -0.000          -0.000
   7478538.086 9   5842954.52047  21624653.826    21624653.6544   21624659.6734
        -0.000          -0.000
  -7726789.560 9  -5366368.27246  22923041.204    22923040.8294   22923048.2474
        -0.000          -0.000
 -14873131.295 9 -11576968.52249  19840186.110    19840185.9354   19840190.8804
        -0.000          -0.000
  -5361581.731 8  -4166034.49645  23511802.375    23511801.5674   23511809.0134
        -0.000          -0.000
 97  3  5 18 59 29.9970000  0  7 19  2 31 18  7 27 10               -0.002579597
  -3851156.821 9  -2994678.65448  20087224.370    20087224.2744   20087229.4414
        -0.000          -0.000
 -16146640.175 9 -12558801.87848  21059764.592    21059764.1384   21059770.0354
        -0.000          -0.000
  -1382423.324 9   -920420.07647  21660597.288    21660596.8614   21660602.1864
        -0.000          -0.000
   7557258.650 9   5904295.19647  21639633.878    21639633.7534   21639639.6654
        -0.000          -0.000
  -7853818.690 9  -5465351.90646  22898868.340    22898867.9044   22898875.2824
        -0.000          -0.000
 -14932800.598 9 -11623464.08649  19828831.430    19828831.2764   19828836.1714
        -0.000          -0.000
  -5343269.608 8  -4151765.34845  23515287.203    23515286.5054   23515293.7284
        -0.000          -0.000
 97  3  5 18 59 59.9970000  0  7 19  2 31 18  7 27 10               -0.002593312
  -3844988.629 9  -2989872.29148  20088398.139    20088398.0414   20088403.2024
        -0.000          -0.000
 -16204773.562 9 -12604100.59948  21048702.286    21048701.7274   21048707.6094
        -0.000          -0.000
  -1332300.604 9   -881363.46347  21670135.301    21670134.9384   21670140.3154
        -0.000          -0.000
   7636281.372 9   5965871.30347  21654671.398    21654671.3034   21654677.2544
        -0.000          -0.000
  -7980742.241 9  -5564253.26546  22874715.447    22874714.9554   22874722.5044
        -0.000          -0.000
 -14992178.180 9 -11669732.33749  19817532.306    19817532.1184   19817537.0354
        -0.000          -0.000
  -5324583.454 9  -4137204.74745  23518842.931    23518842.4434   23518849.7624
        -0.000          -0.000
 97  3  5 19  0 29.9970000  0  7 19  2 31 18  7 27 10               -0.002607054
  -3838514.335 9  -2984827.39448  20089630.181    20089630.0684   20089635.2664
        -0.000          -0.000
 -16262656.015 9 -12649203.79348  21037687.513    21037686.9924   21037692.8684
        -0.000          -0.000
  -1281735.592 9   -841962.20347  21679757.443    21679757.1374   21679762.6324
        -0.000          -0.000
   7715581.913 9   6027663.90547  21669761.827    21669761.7464   21669767.6934
        -0.000          -0.000
  -8107567.707 9  -5663078.15646  22850581.082    22850580.6924   22850588.4294
        -0.000          -0.000
 -15051280.641 9 -11715786.20449  19806285.427    19806285.2544   19806290.2214
        -0.000          -0.000
  -5305555.835 8  -4122378.03745  23522463.809    23522463.2684   23522470.5814
        -0.000          -0.000
 97  3  5 19  0 59.9970000  0  7 19  2 31 18  7 27 10               -0.002620817
  -3831724.623 9  -2979536.72148  20090922.212    20090922.1244   20090927.3344
        -0.000          -0.000
 -16320301.662 9 -12694122.46848  21026717.940    21026717.3974   21026723.1924
        -0.000          -0.000
  -1230713.353 9   -802204.66647  21689466.743    21689466.4054   21689471.9614
        -0.000          -0.000
   7795153.841 9   6089667.96247  21684903.910    21684903.8234   21684909.8714
        -0.000          -0.000
  -8234282.920 9  -5761817.18146  22826467.786    22826467.3964   22826474.9864
        -0.000          -0.000
 -15110106.592 9 -11761624.62049  19795091.272    19795091.0744   19795096.0414
        -0.000          -0.000
  -5286211.099 9  -4107304.20845  23526145.270    23526144.6094   23526151.6944
        -0.000          -0.000
 97  3  5 19  1 29.9970000  0  7 19  2 31 18  7 27 10               -0.002634571
  -3824586.053 9  -2973974.22148  20092280.590    20092280.5344   20092285.7424
        -0.000          -0.000
 -16377686.485 9 -12738837.90248  21015797.928    21015797.4064   21015803.2274
        -0.000          -0.000
  -1179194.156 9   -762059.88747  21699270.504    21699270.2674   21699275.8274
        -0.000          -0.000
   7875005.769 9   6151890.21447  21700099.314    21700099.1544   21700105.1884
        -0.000          -0.000
  -8360853.060 9  -5860443.13546  22802382.073    22802381.7904   22802389.4834
        -0.000          -0.000
 -15168631.948 9 -11807228.80049  19783954.256    19783954.0844   19783959.0524
        -0.000          -0.000
  -5266513.893 9  -4091955.83746  23529893.541    23529892.8044   23529900.3144
        -0.000          -0.000
 97  3  5 19  1 59.9970000  0  7 19  2 31 18  7 27 10               -0.002648308
  -3817129.092 9  -2968163.61448  20093699.555    20093699.5014   20093704.7504
        -0.000          -0.000
 -16434833.993 9 -12783368.41948  21004923.113    21004922.5854   21004928.4334
        -0.000          -0.000
  -1127192.820 9   -721539.41247  21709166.238    21709165.9074   21709171.3574
        -0.000          -0.000
   7955112.253 9   6214310.82247  21715343.076    21715343.0014   21715348.9534
        -0.000          -0.000
  -8487294.443 9  -5958968.74946  22778321.007    22778320.5974   22778328.4874
        -0.000          -0.000
 -15226904.523 9 -11852636.00649  19772865.422    19772865.2204   19772870.1934
        -0.000          -0.000
  -5246469.632 9  -4076336.98546  23533707.662    23533707.0844   23533714.4684
        -0.000          -0.000
 97  3  5 19  2 29.9970000  0  7 19  2 31 18  7 27 10               -0.002662025
  -3809381.908 9  -2962126.86648  20095173.742    20095173.7414   20095179.0794
        -0.000          -0.000
 -16491755.389 9 -12827722.74048  20994091.379    20994090.8734   20994096.6864
        -0.000          -0.000
  -1074709.471 9   -680643.34347  21719153.430    21719153.1934   21719158.6274
        -0.000          -0.000
   8035456.769 9   6276916.89347  21730632.004    21730631.9974   21730638.0174
        -0.000          -0.000
  -8613604.958 9  -6057392.41346  22754284.884    22754284.3574   22754292.1654
        -0.000          -0.000
 -15284938.484 9 -11897857.28149  19761821.879    19761821.6864   19761826.6974
        -0.000          -0.000
  -5226090.243 9  -4060456.97946  23537586.001    23537585.3884   23537592.4074
        -0.000          -0.000
 97  3  5 19  2 59.9970000  0  7 19  2 31 18  7 27 10               -0.002675706
  -3801322.168 9  -2955846.56448  20096707.559    20096707.4694   20096712.8104
        -0.000          -0.000
 -16548407.360 9 -12871867.12148  20983310.895    20983310.3574   20983316.1414
        -0.000          -0.000
  -1021725.724 9   -639357.35847  21729236.008    21729235.6234   21729241.0794
        -0.000          -0.000
   8116056.739 9   6339722.03747  21745969.813    21745969.6984   21745975.6964
        -0.000          -0.000
  -8739756.977 9  -6155692.59646  22730278.905    22730278.3764   22730286.0094
        -0.000          -0.000
 -15342708.633 9 -11942872.99249  19750828.577    19750828.4164   19750833.4014
        -0.000          -0.000
  -5205340.832 9  -4044288.64746  23541534.473    23541533.7454   23541541.0574
        -0.000          -0.000
 97  3  5 19  3 29.9970000  0  7 19  2 31 18  7 27 10               -0.002689358
  -3792973.612 9  -2949341.21248  20098296.226    20098296.1094   20098301.5244
        -0.000          -0.000
 -16604801.500 9 -12915810.60248  20972579.380    20972578.8564   20972584.7474
        -0.000          -0.000
   -968261.716 9   -597697.13547  21739409.885    21739409.5604   21739414.8924
        -0.000          -0.000
   8196897.081 9   6402714.46447  21761353.272    21761353.1484   21761359.2184
        -0.000          -0.000
  -8865776.046 9  -6253889.16446  22706298.180    22706297.8074   22706305.1174
        -0.000          -0.000
 -15400233.278 9 -11987697.39849  19739881.986    19739881.8044   19739886.8314
        -0.000          -0.000
  -5184224.275 9  -4027834.21346  23545552.791    23545552.1034   23545559.7314
        -0.000          -0.000
 97  3  5 19  3 59.9970000  0  7 19  2 31 18  7 27 10               -0.002702984
  -3784339.751 9  -2942613.55148  20099939.253    20099939.1324   20099944.4994
        -0.000          -0.000
 -16660957.849 9 -12959568.78148  20961893.075    20961892.6244   20961898.5124
        -0.000          -0.000
   -914321.272 9   -555665.69347  21749674.446    21749674.1544   21749679.4884
        -0.000          -0.000
   8277984.837 9   6465899.71247  21776783.848    21776783.7364   21776789.7394
        -0.000          -0.000
  -8991663.388 9  -6351983.06146  22682342.368    22682342.1114   22682349.4994
        -0.000          -0.000
 -15457515.270 9 -12032332.73249  19728981.614    19728981.4504   19728986.4384
        -0.000          -0.000
  -5162757.424 9  -4011106.80046  23549637.822    23549637.1654   23549644.7704
        -0.000          -0.000
 97  3  5 19  4 29.9970000  0  7 19  2 31 18  7 27 10               -0.002716586
  -3775408.051 9  -2935653.80548  20101638.847    20101638.7954   20101644.2004
        -0.000          -0.000
 -16716882.615 9 -13003146.51048  20951251.033    20951250.4914   20951256.3444
        -0.000          -0.000
   -859907.073 9   -513265.06347  21760029.208    21760028.8464   21760034.1494
        -0.000          -0.000
   8359321.004 9   6529278.49347  21792261.607    21792261.5014   21792267.5224
        -0.000          -0.000
  -9117417.297 9  -6449973.01346  22658412.159    22658411.9084   22658419.3774
        -0.000          -0.000
 -15514533.306 9 -12076762.37649  19718131.505    19718131.3224   19718136.2774
        -0.000          -0.000
  -5140942.620 9  -3994108.31746  23553789.108    23553788.4424   23553796.1484
        -0.000          -0.000
 97  3  5 19  4 59.9970000  0  7 19  2 31 18  7 27 10               -0.002730153
  -3766138.319 9  -2928430.65248  20103402.810    20103402.7344   20103408.1684
        -0.000          -0.000
 -16772559.037 9 -13046530.72748  20940656.078    20940655.5564   20940661.4124
        -0.000          -0.000
   -805001.784 9   -470481.76947  21770477.437    21770477.0724   21770482.4184
        -0.000          -0.000
   8440933.353 9   6592872.49147  21807791.841    21807791.7404   21807797.8674
        -0.000          -0.000
  -9243018.507 9  -6547843.98646  22634511.195    22634510.7354   22634518.2004
        -0.000          -0.000
 -15571258.886 9 -12120964.13949  19707337.088    19707336.8344   19707341.7854
        -0.000          -0.000
  -5118758.836 8  -3976822.26846  23558010.474    23558010.0094   23558017.6324
        -0.000          -0.000
 97  3  5 19  5 29.9970000  0  7 19  2 31 18  7 27 10               -0.002743685
  -3756534.660 9  -2920947.30348  20105230.402    20105230.3084   20105235.6674
        -0.000          -0.000
 -16828014.663 9 -13089742.88648  20930103.251    20930102.7314   20930108.5484
        -0.000          -0.000
   -749617.810 9   -427325.49147  21781016.607    21781016.3464   21781021.7714
        -0.000          -0.000
   8522817.851 9   6656678.55347  21823373.942    21823373.9124   21823380.0984
        -0.000          -0.000
  -9368484.543 9  -6645609.65846  22610635.457    22610635.2144   22610642.7024
        -0.000          -0.000
 -15627708.169 9 -12164950.60449  19696595.226    19696594.9214   19696599.8504
        -0.000          -0.000
  -5096213.684 8  -3959254.60445  23562300.709    23562299.9894   23562307.8664
        -0.000          -0.000
 97  3  5 19  5 59.9970000  0  7 19  2 31 18  7 27 10               -0.002757178
  -3746587.286 9  -2913196.12148  20107123.370    20107123.2884   20107128.6344
        -0.000          -0.000
 -16883239.584 9 -13132775.27348  20919594.358    20919593.8074   20919599.5474
        -0.000          -0.000
   -693756.062 9   -383796.90947  21791646.871    21791646.4774   21791651.9084
        -0.000          -0.000
   8604970.169 9   6720693.29147  21839007.245    21839006.9704   21839013.2144
        -0.000          -0.000
  -9493803.128 9  -6743260.42546  22586788.094    22586787.8324   22586795.3954
        -0.000          -0.000
 -15683875.660 9 -12208717.48849  19685906.811    19685906.5604   19685911.4994
        -0.000          -0.000
  -5073297.656 8  -3941397.95345  23566661.426    23566660.6514   23566668.6804
        -0.000          -0.000
 97  3  5 19  6 29.9970000  0  7 19  2 31 18  7 27 10               -0.002770637
  -3736300.689 9  -2905180.60848  20109080.855    20109080.7734   20109086.1374
        -0.000          -0.000
 -16938215.467 9 -13175613.60748  20909132.690    20909132.1894   20909137.9784
        -0.000          -0.000
   -637421.728 9   -339900.08047  21802366.747    21802366.5954   21802372.0724
        -0.000          -0.000
   8687376.943 9   6784906.34047  21854688.593    21854688.4544   21854694.6954
        -0.000          -0.000
  -9618972.212 9  -6840794.69146  22562969.175    22562968.8624   22562976.4634
        -0.000          -0.000
 -15739751.692 9 -12252257.25749  19675273.907    19675273.7214   19675278.6884
        -0.000          -0.000
  -5050004.688 8  -3923247.69545  23571093.930    23571093.2224   23571101.1344
        -0.000          -0.000
 97  3  5 19  6 59.9970000  0  7 19  2 31 18  7 27 10               -0.002784066
  -3725697.286 9  -2896918.23248  20111098.680    20111098.5264   20111103.9594
        -0.000          -0.000
 -16992942.609 9 -13218258.11348  20898718.404    20898717.9294   20898723.7884
        -0.000          -0.000
   -580627.536 9   -295644.90647  21813174.681    21813174.3734   21813179.6874
        -0.000          -0.000
   8770014.103 9   6849298.86347  21870413.797    21870413.6784   21870419.9734
        -0.000          -0.000
  -9744005.239 9  -6938222.96346  22539176.134    22539175.7444   22539183.1744
        -0.000          -0.000
 -15795357.038 9 -12295586.10349  19664692.516    19664692.3774   19664697.3414
        -0.000          -0.000
  -5026347.410 8  -3904813.51845  23575595.781    23575595.1344   23575602.8224
        -0.000          -0.000
 97  3  5 19  7 29.9970000  0  7 19  2 31 18  7 27 10               -0.002797480
  -3714820.729 9  -2888443.01148  20113168.404    20113168.3234   20113173.7314
        -0.000          -0.000
 -17047435.672 9 -13260720.21648  20888348.806    20888348.2974   20888354.1444
        -0.000          -0.000
   -523398.215 9   -251050.69047  21824065.022    21824064.7044   21824070.0604
        -0.000          -0.000
   8852848.774 9   6913845.33147  21886176.730    21886176.6854   21886182.9694
        -0.000          -0.000
  -9868915.994 9  -7035555.96846  22515406.373    22515405.9394   22515413.2644
        -0.000          -0.000
 -15850725.318 9 -12338730.22649  19654156.347    19654156.1414   19654161.0874
        -0.000          -0.000
  -5002347.820 8  -3886112.59845  23580162.762    23580162.0354   23580169.7924
        -0.000          -0.000
 97  3  5 19  7 59.9970000  0  7 19  2 31 18  7 27 10               -0.002810875
  -3703644.308 9  -2879734.12948  20115295.233    20115295.1714   20115300.5384
        -0.000          -0.000
 -17101654.336 9 -13302968.51548  20878031.286    20878030.8104   20878036.6604
        -0.000          -0.000
   -465718.030 9   -206105.14747  21835041.327    21835040.9664   21835046.1694
        -0.000          -0.000
   8935890.819 9   6978553.34247  21901979.054    21901978.9954   21901985.4344
        -0.000          -0.000
  -9993662.377 9  -7132760.87946  22491667.818    22491667.4634   22491674.8374
        -0.000          -0.000
 -15905822.668 9 -12381663.23449  19643671.734    19643671.4794   19643676.4044
        -0.000          -0.000
  -4978002.796 8  -3867142.46745  23584795.525    23584794.6664   23584802.5274
        -0.000          -0.000
 97  3  5 19  8 29.9970000  0  7 19  2 31 18  7 27 10               -0.002824274
  -3692187.399 9  -2870806.68548  20117475.425    20117475.3714   20117480.7694
        -0.000          -0.000
 -17155622.551 9 -13345021.64448  20867761.461    20867761.0094   20867766.8214
        -0.000          -0.000
   -407618.677 9   -160832.97647  21846097.347    21846097.0024   21846102.1084
        -0.000          -0.000
   9019121.428 9   7043408.34447  21917817.545    21917817.3514   21917823.7574
        -0.000          -0.000
 -10118250.429 9  -7229842.42846  22467959.404    22467959.1254   22467966.4044
        -0.000          -0.000
 -15960659.451 9 -12424393.20549  19633236.667    19633236.3934   19633241.3234
        -0.000          -0.000
  -4953348.968 8  -3847931.80245  23589487.132    23589486.2184   23589494.1384
        -0.000          -0.000
 97  3  5 19  8 59.9970000  0  7 19  2 31 18  7 27 10               -0.002837680
  -3680433.973 9  -2861648.18648  20119712.049    20119711.9434   20119717.3744
        -0.000          -0.000
 -17209345.942 9 -13386884.00948  20857538.289    20857537.7974   20857543.5994
        -0.000          -0.000
   -349103.720 9   -115236.95247  21857232.444    21857232.0534   21857237.2024
        -0.000          -0.000
   9102551.273 9   7108418.55247  21933693.571    21933693.4994   21933700.0024
        -0.000          -0.000
 -10242668.154 9  -7326791.28246  22444283.708    22444283.2064   22444290.4344
        -0.000          -0.000
 -16015232.409 9 -12466917.59349  19622851.701    19622851.4924   19622856.4294
        -0.000          -0.000
  -4928395.393 8  -3828487.51145  23594235.653    23594234.7114   23594242.4534
        -0.000          -0.000
 97  3  5 19  9 29.9970000  0  7 19  2 31 18  7 27 10               -0.002851104
  -3668372.803 9  -2852249.89148  20122007.219    20122007.1544   20122012.5274
        -0.000          -0.000
 -17262833.536 9 -13428562.63648  20847359.874    20847359.3844   20847365.1974
        -0.000          -0.000
   -290180.471 9    -69322.79247  21868445.064    21868444.7114   21868450.0384
        -0.000          -0.000
   9186189.950 9   7173591.50947  21949609.677    21949609.5814   21949615.9024
        -0.000          -0.000
 -10366907.793 9  -7423601.33146  22420641.649    22420641.1344   22420648.4984
        -0.000          -0.000
 -16069519.618 9 -12509219.32249  19612521.200    19612521.0144   19612525.9514
        -0.000          -0.000
  -4903161.744 8  -3808824.98245  23599037.524    23599036.6674   23599044.0954
        -0.000          -0.000
 97  3  5 19  9 59.9970000  0  7 19  2 31 18  7 27 10               -0.002864564
  -3655984.144 9  -2842596.41048  20124364.741    20124364.6724   20124369.9854
        -0.000          -0.000
 -17316092.774 9 -13470063.33748  20837225.038    20837224.5204   20837230.2994
        -0.000          -0.000
   -230863.493 9    -23101.82947  21879732.774    21879732.4764   21879737.8524
        -0.000          -0.000
   9270037.408 9   7238927.15647  21965565.358    21965565.3154   21965571.4864
        -0.000          -0.000
 -10490977.204 9  -7520278.75646  22397032.044    22397031.4584   22397038.8934
        -0.000          -0.000
 -16123495.773 9 -12551278.67949  19602249.849    19602249.6854   19602254.6154
        -0.000          -0.000
  -4877667.066 8  -3788958.99545  23603888.557    23603887.7284   23603895.6484
        -0.000          -0.000
 97  3  5 19 10 29.9970000  0  7 19  2 31 18  7 27 10               -0.002878047
  -3643269.135 9  -2832688.63248  20126784.361    20126784.2674   20126789.5874
        -0.000          -0.000
 -17369134.841 9 -13511394.81348  20827131.399    20827130.8974   20827136.6704
        -0.000          -0.000
   -171142.179 9     23434.19847  21891097.440    21891097.0694   21891102.5324
        -0.000          -0.000
   9354113.921 9   7304441.25347  21981564.726    21981564.5704   21981570.8084
        -0.000          -0.000
 -10614888.971 9  -7616833.32146  22373452.455    22373451.8014   22373459.1824
        -0.000          -0.000
 -16177154.589 9 -12593090.75349  19592038.982    19592038.7544   19592043.6864
        -0.000          -0.000
  -4851905.641 8  -3768885.23445  23608791.003    23608790.2454   23608798.1834
        -0.000          -0.000
 97  3  5 19 10 59.9970000  0  7 19  2 31 18  7 27 10               -0.002891537
  -3630223.046 9  -2822522.86648  20129266.917    20129266.8684   20129272.2394
        -0.000          -0.000
 -17421946.233 9 -13552546.54848  20817081.637    20817081.1654   20817087.0184
        -0.000          -0.000
   -110998.170 9     70299.60547  21902542.448    21902542.1364   21902547.6154
        -0.000          -0.000
   9438436.283 9   7370146.95447  21997610.828    21997610.6114   21997616.9144
        -0.000          -0.000
 -10738639.160 9  -7713261.97946  22349903.184    22349902.7554   22349910.1424
        -0.000          -0.000
 -16230492.250 9 -12634652.57749  19581889.089    19581888.9204   19581893.8634
        -0.000          -0.000
  -4825857.555 8  -3748588.13345  23613748.063    23613747.1634   23613755.3454
        -0.000          -0.000
 97  3  5 19 11 29.9970000  0  7 19  2 31 18  7 27 10               -0.002905026
  -3616863.728 9  -2812113.03348  20131809.180    20131809.1094   20131814.5194
        -0.000          -0.000
 -17474532.249 9 -13593522.65849  20807074.861    20807074.4324   20807080.2824
        -0.000          -0.000
    -50437.146 9    117489.94947  21914066.617    21914066.4474   21914072.0324
        -0.000          -0.000
   9523002.978 9   7436043.03947  22013703.350    22013703.2104   22013709.5794
        -0.000          -0.000
 -10862234.346 9  -7809569.80046  22326383.486    22326383.2364   22326390.8284
        -0.000          -0.000
 -16283520.051 9 -12675972.95349  19571798.240    19571798.0764   19571803.0174
        -0.000          -0.000
  -4799515.571 9  -3728061.95345  23618760.861    23618759.9334   23618767.9284
        -0.000          -0.000
 97  3  5 19 11 59.9970000  0  7 19  2 31 18  7 27 10               -0.002918496
  -3603193.593 9  -2801461.00648  20134410.527    20134410.4384   20134415.8784
        -0.000          -0.000
 -17526888.091 9 -13634319.41449  20797111.962    20797111.4994   20797117.3394
        -0.000          -0.000
     10545.935 9    165009.16847  21925671.316    21925671.2144   21925676.8384
        -0.000          -0.000
   9607811.097 9   7502127.24847  22029841.733    22029841.6984   22029848.0404
        -0.000          -0.000
 -10985667.004 9  -7905751.02946  22302895.110    22302894.7584   22302902.2674
        -0.000          -0.000
 -16336259.345 9 -12717068.52249  19561762.309    19561762.1444   19561767.0604
        -0.000          -0.000
  -4772856.646 8  -3707288.80045  23623833.534    23623832.7814   23623841.0534
        -0.000          -0.000
 97  3  5 19 12 29.9970000  0  7 19  2 31 18  7 27 10               -0.002931928
  -3589222.218 9  -2790574.25148  20137069.115    20137069.1274   20137074.5574
        -0.000          -0.000
 -17579003.837 9 -13674929.08449  20787194.629    20787194.1854   20787200.0014
        -0.000          -0.000
     71959.409 9    212863.75646  21937357.987    21937357.8734   21937363.3884
        -0.000          -0.000
   9692864.820 9   7568402.83847  22046027.166    22046026.8634   22046033.1984
        -0.000          -0.000
 -11108928.327 9  -8001798.73246  22279439.166    22279438.7464   22279446.3284
        -0.000          -0.000
 -16388724.423 9 -12757950.41249  19551778.576    19551778.3854   19551783.3214
        -0.000          -0.000
  -4745863.588 8  -3686255.30045  23628970.185    23628969.3264   23628977.4424
        -0.000          -0.000
 97  3  5 19 12 59.9970000  0  7 19  2 31 18  7 27 10               -0.002945334
  -3574950.607 9  -2779453.54448  20139785.015    20139784.9374   20139790.3434
        -0.000          -0.000
 -17630871.296 9 -13715345.28648  20777324.597    20777324.1284   20777329.8914
        -0.000          -0.000
    133787.426 9    261041.37347  21949123.583    21949123.3984   21949129.0084
        -0.000          -0.000
   9778135.908 9   7634847.78147  22062253.734    22062253.4894   22062259.7574
        -0.000          -0.000
 -11232011.119 9  -8097707.30246  22256017.105    22256016.7804   22256024.5104
        -0.000          -0.000
 -16440924.773 9 -12798626.02949  19541845.224    19541845.0324   19541849.9464
        -0.000          -0.000
  -4718543.482 8  -3664966.91445  23634168.790    23634168.1454   23634176.3964
        -0.000          -0.000
 97  3  5 19 13 29.9970000  0  7 19  2 31 18  7 27 10               -0.002958718
  -3560368.630 9  -2768090.99048  20142559.890    20142559.8064   20142565.2334
        -0.000          -0.000
 -17682486.591 9 -13755564.99248  20767502.556    20767502.0584   20767507.8474
        -0.000          -0.000
    196035.378 9    309546.19447  21960968.946    21960968.8674   21960974.5584
        -0.000          -0.000
   9863610.130 9   7701451.02947  22078518.926    22078518.7494   22078525.0754
        -0.000          -0.000
 -11354919.462 9  -8193479.93646  22232628.252    22232627.9824   22232635.7454
        -0.000          -0.000
 -16492852.541 9 -12839089.24149  19531963.782    19531963.5634   19531968.4594
        -0.000          -0.000
  -4690913.796 8  -3643437.33645  23639426.788    23639426.0754   23639434.5324
        -0.000          -0.000
 97  3  5 19 13 59.9970000  0  7 19  2 31 18  7 27 10               -0.002972097
  -3545465.976 9  -2756478.57048  20145395.806    20145395.7434   20145401.0764
        -0.000          -0.000
 -17733851.500 9 -13795589.60048  20757728.125    20757727.6444   20757733.4724
        -0.000          -0.000
    258696.003 9    358372.59947  21972893.070    21972892.8634   21972898.6514
        -0.000          -0.000
   9949264.143 9   7768194.37447  22094818.328    22094818.2354   22094824.5224
        -0.000          -0.000
 -11477664.337 9  -8289125.21546  22209270.673    22209270.3824   22209277.9564
        -0.000          -0.000
 -16544500.601 9 -12879334.50049  19522135.505    19522135.3074   19522140.1844
        -0.000          -0.000
  -4662996.988 8  -3621684.01045  23644739.287    23644738.5484   23644746.8394
        -0.000          -0.000
 97  3  5 19 14 29.9970000  0  7 19  2 31 18  7 27 10               -0.002985485
  -3530242.703 9  -2744616.31048  20148292.725    20148292.6774   20148297.9724
        -0.000          -0.000
 -17784973.080 9 -13835424.59448  20747999.980    20747999.4994   20748005.2934
        -0.000          -0.000
    321758.302 9    407511.96447  21984893.481    21984893.1964   21984899.1564
        -0.000          -0.000
  10035085.493 9   7835068.09547  22111149.577    22111149.4804   22111155.9634
        -0.000          -0.000
 -11600257.728 9  -8384652.42446  22185941.961    22185941.5834   22185949.1094
        -0.000          -0.000
 -16595858.078 9 -12919353.32349  19512362.586    19512362.3734   19512367.2284
        -0.000          -0.000
  -4634812.219 9  -3599721.91845  23650102.720    23650102.0444   23650110.0474
        -0.000          -0.000
 97  3  5 19 14 59.9970000  0  7 19  2 31 18  7 27 10               -0.002998870
  -3514679.482 9  -2732489.15948  20151254.333    20151254.2874   20151259.6314
        -0.000          -0.000
 -17835864.832 9 -13875080.50348  20738315.563    20738315.1134   20738320.9184
        -0.000          -0.000
    385236.228 9    456975.22647  21996973.019    21996972.7024   21996978.6734
        -0.000          -0.000
  10121083.587 9   7902079.54247  22127514.414    22127514.3514   22127520.8374
        -0.000          -0.000
 -11722684.785 9  -8480050.02446  22162644.933    22162644.4614   22162652.0214
        -0.000          -0.000
 -16646906.040 9 -12959130.97049  19502648.430    19502648.2584   19502653.0594
        -0.000          -0.000
  -4606359.526 9  -3577551.07845  23655517.423    23655516.7364   23655524.4524
        -0.000          -0.000
 97  3  5 19 15 29.9970000  0  7 19  2 31 18  7 27 10               -0.003012234
  -3498764.510 9  -2720087.91848  20154282.929    20154282.8004   20154288.2144
        -0.000          -0.000
 -17886531.538 9 -13914561.05049  20728674.046    20728673.5584   20728679.3664
        -0.000          -0.000
    449138.773 9    506769.34847  22009133.366    22009133.0544   22009139.0164
        -0.000          -0.000
  10207278.068 9   7969244.03447  22143916.950    22143916.7554   22143923.0504
        -0.000          -0.000
 -11844921.873 9  -8575299.61546  22139383.989    22139383.5534   22139390.8954
        -0.000          -0.000
 -16697628.565 9 -12998655.03749  19492996.313    19492996.1004   19493000.8754
        -0.000          -0.000
  -4577612.263 8  -3555150.64245  23660987.880    23660987.1104   23660994.6284
        -0.000          -0.000
 97  3  5 19 15 59.9960000  0  7 19  2 31 18  7 27 10               -0.003025580
  -3482512.887 9  -2707424.34848  20157375.478    20157375.4294   20157380.8624
        -0.000          -0.000
 -17936982.337 9 -13953873.36849  20719073.586    20719073.1244   20719078.9074
        -0.000          -0.000
    513434.959 9    556870.22147  22021368.860    22021368.3544   22021374.2554
        -0.000          -0.000
  10293662.306 9   8036556.36347  22160355.460    22160355.2054   22160361.3464
        -0.000          -0.000
 -11966960.652 9  -8670394.68446  22116160.840    22116160.3614   22116167.6454
        -0.000          -0.000
 -16748028.256 9 -13037927.53249  19483405.583    19483405.3794   19483410.1784
        -0.000          -0.000
  -4548563.231 8  -3532515.04145  23666515.636    23666514.9924   23666522.5394
        -0.000          -0.000
 97  3  5 19 16 29.9960000  0  7 19  2 31 18  7 27 10               -0.003038895
  -3465930.490 9  -2694503.03848  20160531.063    20160530.9854   20160536.3874
        -0.000          -0.000
 -17987217.601 9 -13993017.73449  20709514.151    20709513.6724   20709519.4514
        -0.000          -0.000
    578130.446 9    607282.22347  22033680.030    22033679.5414   22033685.4284
        -0.000          -0.000
  10380254.799 9   8104030.99247  22176833.476    22176833.2584   22176839.4384
        -0.000          -0.000
 -12088785.287 9  -8765322.89046  22092978.388    22092977.9004   22092985.0364
        -0.000          -0.000
 -16798109.988 9 -13076952.27449  19473875.360    19473875.1374   19473879.9644
        -0.000          -0.000
  -4519189.707 9  -3509626.66545  23672105.249    23672104.5534   23672112.3674
        -0.000          -0.000
 97  3  5 19 16 59.9960000  0  7 19  2 31 18  7 27 10               -0.003052184
  -3449040.205 9  -2681341.81548  20163745.137    20163745.1104   20163750.4994
        -0.000          -0.000
 -18037256.448 9 -14032009.04049  20699992.059    20699991.5944   20699997.3454
        -0.000          -0.000
    643204.059 9    657988.87247  22046063.121    22046062.7384   22046068.5084
        -0.000          -0.000
  10467025.870 9   8171644.75947  22193345.439    22193345.2474   22193351.5714
        -0.000          -0.000
 -12210399.299 9  -8860086.98746  22069835.880    22069835.5114   22069842.5594
        -0.000          -0.000
 -16847895.863 9 -13115746.46849  19464401.322    19464401.1364   19464406.0134
        -0.000          -0.000
  -4489507.712 9  -3486497.85045  23677753.433    23677752.8624   23677760.6024
        -0.000          -0.000
 97  3  5 19 17 29.9960000  0  7 19  2 31 18  7 27 10               -0.003065458
  -3431849.277 9  -2667946.32148  20167016.535    20167016.4554   20167021.8574
        -0.000          -0.000
 -18087073.529 9 -14070827.55049  20690512.217    20690511.7274   20690517.5244
        -0.000          -0.000
    708646.135 9    708982.64046  22058516.606    22058516.0874   22058521.6574
        -0.000          -0.000
  10553955.616 9   8239382.15447  22209887.627    22209887.4054   22209894.0014
        -0.000          -0.000
 -12331798.790 9  -8954683.92247  22046734.431    22046733.9044   22046740.9654
        -0.000          -0.000
 -16897386.395 9 -13154310.53049  19454983.553    19454983.3854   19454988.2974
        -0.000          -0.000
  -4459522.406 9  -3463132.69845  23683459.686    23683458.9134   23683466.8564
        -0.000          -0.000
 97  3  5 19 17 59.9960000  0  7 19  2 31 18  7 27 10               -0.003078730
  -3414358.088 9  -2654316.86048  20170345.032    20170344.9414   20170350.3664
        -0.000          -0.000
 -18136671.208 9 -14109475.10249  20681074.035    20681073.5514   20681079.3814
        -0.000          -0.000
    774460.305 9    760266.33646  22071040.570    22071040.0874   22071045.6754
        -0.000          -0.000
  10641033.647 9   8307235.12447  22226458.075    22226457.8634   22226464.3874
        -0.000          -0.000
 -12452998.080 9  -9049124.85447  22023671.020    22023670.4214   22023677.3924
        -0.000          -0.000
 -16946578.213 9 -13192641.83049  19445622.698    19445622.5164   19445627.4804
        -0.000          -0.000
  -4429264.692 8  -3439555.30845  23689217.521    23689217.0164   23689224.5624
        -0.000          -0.000
 97  3  5 19 18 29.9960000  0  7 19  2 31 18  7 27 10               -0.003091985
  -3396552.688 9  -2640442.56148  20173733.274    20173733.1754   20173738.6594
        -0.000          -0.000
 -18186042.588 9 -14147946.31749  20671679.021    20671678.5254   20671684.3374
        -0.000          -0.000
    840677.787 9    811864.31246  22083641.426    22083640.9934   22083646.5674
        -0.000          -0.000
  10728271.637 9   8375212.70947  22243058.809    22243058.7014   22243065.3064
        -0.000          -0.000
 -12573984.327 9  -9143399.79747  22000648.062    22000647.4284   22000654.3524
        -0.000          -0.000
 -16995453.970 9 -13230726.85249  19436322.018    19436321.8144   19436326.7824
        -0.000          -0.000
  -4398737.124 8  -3415767.61545  23695026.577    23695026.0064   23695033.4854
        -0.000          -0.000
 97  3  5 19 18 59.9960000  0  7 19  2 31 18  7 27 10               -0.003105226
  -3378419.124 9  -2626312.54948  20177184.013    20177183.9064   20177189.4434
        -0.000          -0.000
 -18235180.466 9 -14186235.58049  20662328.420    20662327.9584   20662333.6804
        -0.000          -0.000
    907304.172 9    863780.89046  22096319.901    22096319.5174   22096325.1754
        -0.000          -0.000
  10815671.644 9   8443316.54247  22259690.668    22259690.3974   22259697.0414
        -0.000          -0.000
 -12694752.106 9  -9237504.50747  21977666.700    21977666.0294   21977672.9714
        -0.000          -0.000
 -17043989.915 9 -13268547.08249  19427085.977    19427085.7284   19427090.6914
        -0.000          -0.000
  -4367945.764 8  -3391774.40345  23700885.712    23700885.2994   23700893.3664
        -0.000          -0.000
 97  3  5 19 19 29.9960000  0  7 19  2 31 18  7 27 10               -0.003118451
  -3359947.728 9  -2611919.28948  20180698.955    20180698.8534   20180704.4694
        -0.000          -0.000
 -18284071.946 9 -14224332.83849  20653024.680    20653024.2094   20653029.9304
        -0.000          -0.000
    974341.453 9    916017.67946  22109076.534    22109076.2654   22109081.9524
        -0.000          -0.000
  10903258.666 9   8511566.12746  22276358.027    22276357.7484   22276364.2354
        -0.000          -0.000
 -12815298.099 9  -9331436.41247  21954727.318    21954726.8394   21954733.7194
        -0.000          -0.000
 -17092170.828 9 -13306090.66049  19417917.414    19417917.1764   19417922.1444
        -0.000          -0.000
  -4336887.515 9  -3367573.22945  23706795.834    23706795.4664   23706803.7774
        -0.000          -0.000
 97  3  5 19 19 59.9960000  0  7 19  2 31 18  7 27 10               -0.003131650
  -3341135.556 9  -2597260.48748  20184278.754    20184278.6954   20184284.3464
        -0.000          -0.000
 -18332735.826 9 -14262252.74949  20643764.284    20643763.8104   20643769.5574
        -0.000          -0.000
   1041782.231 9    968568.86846  22121910.145    22121909.8014   22121915.5844
        -0.000          -0.000
  10991046.445 9   8579972.12646  22293063.729    22293063.3434   22293069.9314
        -0.000          -0.000
 -12935635.393 9  -9425205.67747  21931827.836    21931827.3324   21931834.2144
        -0.000          -0.000
 -17140014.350 9 -13343371.33649  19408813.090    19408812.8584   19408817.8224
        -0.000          -0.000
  -4305560.163 9  -3343162.34245  23712757.666    23712757.1194   23712765.1654
        -0.000          -0.000
 97  3  5 19 20 29.9960000  0  7 19  2 31 18  7 27 10               -0.003144841
  -3322009.697 9  -2582357.25148  20187918.224    20187918.2654   20187923.9244
        -0.000          -0.000
 -18381186.948 9 -14300006.87449  20634544.323    20634543.8534   20634549.5904
        -0.000          -0.000
   1109581.534 9   1021399.43146  22134811.800    22134811.5694   22134817.3864
        -0.000          -0.000
  11079009.439 9   8648514.68446  22309802.576    22309802.2054   22309808.6594
        -0.000          -0.000
 -13055786.502 9  -9518829.85347  21908963.862    21908963.3514   21908970.2394
        -0.000          -0.000
 -17187559.578 9 -13380419.57049  19399765.563    19399765.3324   19399770.3014
        -0.000          -0.000
  -4273976.678 9  -3318551.85745  23718768.161    23718767.5594   23718775.4344
        -0.000          -0.000
 97  3  5 19 20 59.9960000  0  7 19  2 31 18  7 27 10               -0.003157995
  -3302503.588 9  -2567157.73048  20191630.280    20191630.2754   20191635.8484
        -0.000          -0.000
 -18429364.940 9 -14337548.18249  20625376.407    20625375.9104   20625381.6084
        -0.000          -0.000
   1177776.588 9   1074538.35246  22147788.957    22147788.7554   22147794.4554
        -0.000          -0.000
  11167208.335 9   8717241.03946  22326586.334    22326586.0164   22326592.3334
        -0.000          -0.000
 -13175686.493 9  -9612258.38147  21886147.490    21886147.0864   21886153.9764
        -0.000          -0.000
 -17234755.767 9 -13417195.84349  19390784.413    19390784.1694   19390789.1544
        -0.000          -0.000
  -4242082.372 9  -3293699.17545  23724837.125    23724836.5974   23724844.4394
        -0.000          -0.000
 97  3  5 19 21 29.9960000  0  7 19  2 31 18  7 27 10               -0.003171154
  -3282687.959 9  -2551717.01048  20195401.165    20195401.1154   20195406.6634
        -0.000          -0.000
 -18477342.777 9 -14374933.48749  20616246.536    20616246.0404   20616251.7644
        -0.000          -0.000
   1246293.262 9   1127927.90646  22160827.387    22160827.0494   22160832.7874
        -0.000          -0.000
  11255565.995 9   8786091.09946  22343400.319    22343399.9664   22343406.1524
        -0.000          -0.000
 -13295415.140 9  -9705553.36347  21863363.891    21863363.4084   21863370.2594
        -0.000          -0.000
 -17281696.292 9 -13453772.88049  19381851.938    19381851.6934   19381856.6784
        -0.000          -0.000
  -4209961.282 9  -3268669.85145  23730949.587    23730949.0854   23730956.7874
        -0.000          -0.000
 97  3  5 19 21 59.9960000  0  7 19  2 31 18  7 27 10               -0.003184322
  -3262554.266 9  -2536028.46248  20199232.543    20199232.5224   20199238.0604
        -0.000          -0.000
 -18525115.789 9 -14412159.23649  20607155.641    20607155.1634   20607160.9454
        -0.000          -0.000
   1315136.456 9   1181571.88746  22173927.762    22173927.5304   22173933.2254
        -0.000          -0.000
  11344068.398 9   8855053.92946  22360241.639    22360241.3674   22360247.5484
        -0.000          -0.000
 -13414944.760 9  -9798693.28047  21840618.224    21840617.7354   21840624.5264
        -0.000          -0.000
 -17328363.155 9 -13490136.68949  19372971.597    19372971.3114   19372976.2894
        -0.000          -0.000
  -4177614.845 8  -3243464.87945  23737105.075    23737104.4554   23737112.5154
        -0.000          -0.000
 97  3  5 19 22 29.9960000  0  7 19  2 31 18  7 27 10               -0.003197493
  -3242081.941 9  -2520076.01548  20203128.330    20203128.2654   20203133.8204
        -0.000          -0.000
 -18572658.089 9 -14449205.19348  20598108.609    20598108.1364   20598113.9374
        -0.000          -0.000
   1384327.864 9   1235487.19246  22187094.429    22187094.1644   22187099.9344
        -0.000          -0.000
  11432721.266 9   8924134.08046  22377111.819    22377111.5284   22377117.7824
        -0.000          -0.000
 -13534238.673 9  -9891649.56747  21817917.385    21817916.8104   21817923.5394
        -0.000          -0.000
 -17374711.644 9 -13526252.39649  19364151.746    19364151.4774   19364156.4854
        -0.000          -0.000
  -4145040.435 8  -3218082.30645  23743303.382    23743303.0144   23743311.0324
        -0.000          -0.000
 97  3  5 19 22 59.9960000  0  7 19  2 31 18  7 27 10               -0.003210657
  -3221259.757 9  -2503850.97548  20207090.702    20207090.6524   20207096.1794
        -0.000          -0.000
 -18619963.082 9 -14486066.21949  20589106.805    20589106.2884   20589112.0524
        -0.000          -0.000
   1453889.938 9   1289691.34346  22200331.645    22200331.3804   22200337.2414
        -0.000          -0.000
  11521531.218 9   8993336.57146  22394011.828    22394011.5284   22394017.8484
        -0.000          -0.000
 -13653280.158 9  -9984409.11347  21795264.425    21795263.8834   21795270.7744
        -0.000          -0.000
 -17420720.237 9 -13562103.26649  19355396.493    19355396.3484   19355401.3234
        -0.000          -0.000
  -4112230.257 9  -3192515.96145  23749546.668    23749546.3914   23749555.0284
        -0.000          -0.000
 97  3  5 19 23 29.9960000  0  7 19  2 31 18  7 27 10               -0.003223768
  -3200047.655 9  -2487322.10048  20211127.275    20211127.2384   20211132.7424
        -0.000          -0.000
 -18666978.781 9 -14522701.84149  20580160.030    20580159.4924   20580165.2844
        -0.000          -0.000
   1523882.455 9   1344230.89246  22213650.895    22213650.5604   22213656.4274
        -0.000          -0.000
  11610540.722 9   9062694.57146  22410949.875    22410949.5024   22410955.8904
        -0.000          -0.000
 -13772025.838 9 -10076938.17347  21772667.789    21772667.2964   21772674.2274
        -0.000          -0.000
 -17466329.920 9 -13597643.29449  19346717.262    19346717.1064   19346722.0834
        -0.000          -0.000
  -4079118.806 9  -3166714.86545  23755847.974    23755847.5484   23755855.8174
        -0.000          -0.000
 97  3  5 19 23 59.9960000  0  7 19  2 31 18  7 27 10               -0.003236844
  -3178481.870 9  -2470517.62648  20215231.153    20215231.0974   20215236.5924
        -0.000          -0.000
 -18713734.017 9 -14559134.49649  20571262.796    20571262.2624   20571268.1104
        -0.000          -0.000
   1594279.913 9   1399085.99846  22227047.302    22227046.8864   22227052.7374
        -0.000          -0.000
  11699727.158 9   9132190.45546  22427921.219    22427921.0634   22427927.4784
        -0.000          -0.000
 -13890501.243 9 -10169256.61047  21750122.583    21750122.0644   21750129.0424
        -0.000          -0.000
 -17511541.366 9 -13632873.00849  19338113.793    19338113.6524   19338118.6264
        -0.000          -0.000
  -4045724.791 8  -3140693.64045  23762203.205    23762202.5704   23762210.3744
        -0.000          -0.000
 97  3  5 19 24 29.9960000  0  8 19  2 31 18  7 27 10 26            -0.003249870
  -3156640.391 9  -2453498.31748  20219387.502    20219387.3804   20219392.9144
        -0.000          -0.000
 -18760305.440 9 -14595423.92249  20562400.633    20562400.0874   20562405.8524
        -0.000          -0.000
   1664997.231 9   1454190.31246  22240504.438    22240503.9694   22240509.9404
        -0.000          -0.000
  11789023.330 9   9201771.81946  22444913.709    22444913.5604   22444919.9994
        -0.000          -0.000
 -14008806.578 9 -10261442.54547  21727609.816    21727609.3594   21727616.2214
        -0.000          -0.000
 -17556445.170 9 -13667863.00049  19329568.958    19329568.7484   19329573.7294
        -0.000          -0.000
  -4012122.268 8  -3114509.87745  23768597.585    23768597.0224   23768604.4854
        -0.000          -0.000
   -651517.94318   -495324.08455  23856986.139    23856985.1235   23856992.7575
        -0.000          -0.000
 97  3  5 19 24 59.9960000  0  9 19  2 31 18  7 15 27 10 26         -0.003263007
  -3134521.883 9  -2436263.14748  20223596.465    20223596.4054   20223601.9424
        -0.000          -0.000
 -18806673.136 9 -14631554.59749  20553577.163    20553576.5954   20553582.2524
        -0.000          -0.000
   1736045.875 9   1509552.83046  22254024.580    22254024.1494   22254030.0874
        -0.000          -0.000
  11878445.543 9   9271451.39946  22461930.181    22461929.9604   22461936.4544
        -0.000          -0.000
 -14126925.987 9 -10353483.61147  21705132.452    21705132.0304   21705138.7794
        -0.000          -0.000
  -4553507.62817  -3094490.77155  23593033.547    23593032.4355   23593040.1545
        -0.000          -0.000
 -17601026.710 9 -13702601.87049  19321085.418    19321085.1714   19321090.2024
        -0.000          -0.000
  -3978280.067 8  -3088139.37145  23775037.655    23775036.9064   23775044.5064
        -0.000          -0.000
   -762768.496 8   -582012.79245  23835815.377    23835814.9884   23835822.3484
        -0.000          -0.000
 97  3  5 19 25 29.9960000  0  8 19  2 31 18  7 15 27 26            -0.003276083
  -3112105.362 9  -2418795.76648  20227862.213    20227862.1824   20227867.6864
        -0.000          -0.000
 -18852821.518 9 -14667514.37849  20544795.383    20544794.8744   20544800.5214
        -0.000          -0.000
   1807433.157 9   1565179.23946  22267609.190    22267608.8254   22267614.7844
        -0.000          -0.000
  11968002.488 9   9341235.99246  22478972.334    22478972.2314   22478978.5154
        -0.000          -0.000
 -14244838.302 9 -10445363.27947  21682694.519    21682693.9044   21682700.7724
        -0.000          -0.000
  -4638483.269 8  -3160705.53645  23576862.778    23576861.8284   23576870.0544
        -0.000          -0.000
 -17645263.488 9 -13737072.09849  19312667.432    19312667.1994   19312672.2294
        -0.000          -0.000
   -873794.356 8   -668526.41645  23814688.169    23814687.8644   23814694.8424
        -0.000          -0.000
 97  3  5 19 25 59.9960000  0  8 19  2 31 18  7 15 27 26            -0.003289173
  -3089383.312 9  -2401090.30948  20232186.104    20232186.0194   20232191.5884
        -0.000          -0.000
 -18898753.543 9 -14703305.58149  20536054.871    20536054.3454   20536060.0304
        -0.000          -0.000
   1879151.376 9   1621063.47546  22281256.853    22281256.4974   22281262.5124
        -0.000          -0.000
  12057682.146 9   9411116.16746  22496037.938    22496037.7374   22496044.1234
        -0.000          -0.000
 -14362531.349 9 -10537072.12547  21660298.189    21660297.6184   21660304.4844
        -0.000          -0.000
  -4723254.885 8  -3226761.33145  23560731.518    23560730.4164   23560738.4284
        -0.000          -0.000
 -17689161.347 9 -13771278.23749  19304313.949    19304313.7524   19304318.7614
        -0.000          -0.000
   -984576.936 8   -754850.43245  23793607.082    23793606.8884   23793613.7574
        -0.000          -0.000
 97  3  5 19 26 29.9960000  0  8 19  2 31 18  7 15 27 26            -0.003302255
  -3066344.847 9  -2383138.29248  20236570.182    20236570.1244   20236575.6904
        -0.000          -0.000
 -18944468.321 9 -14738927.50149  20527355.654    20527355.1084   20527360.7994
        -0.000          -0.000
   1951196.730 9   1677202.65846  22294966.831    22294966.4254   22294972.4024
        -0.000          -0.000
  12147473.499 9   9481083.37546  22513124.495    22513124.4784   22513130.9644
        -0.000          -0.000
 -14479981.921 9 -10628591.99947  21637947.998    21637947.4914   21637954.3834
        -0.000          -0.000
  -4807816.673 8  -3292653.58245  23544640.155    23544639.1154   23544647.0524
        -0.000          -0.000
 -17732735.234 9 -13805231.92449  19296022.164    19296021.9624   19296026.9754
        -0.000          -0.000
  -1095111.170 8   -840980.90045  23772572.880    23772572.7714   23772580.1074
        -0.000          -0.000
 97  3  5 19 26 59.9960000  0  8 19  2 31 18  7 15 27 26            -0.003315315
  -3042970.229 9  -2364924.33348  20241018.254    20241018.2154   20241023.7844
        -0.000          -0.000
 -18989962.073 9 -14774377.18549  20518698.412    20518697.9014   20518703.6034
        -0.000          -0.000
   2023587.910 9   1733611.28446  22308742.441    22308742.0394   22308748.0884
        -0.000          -0.000
  12237386.596 9   9551145.47746  22530234.448    22530234.5334   22530240.9684
        -0.000          -0.000
 -14597160.780 9 -10719900.15747  21615649.664    21615649.0784   21615655.9414
        -0.000          -0.000
  -4892146.099 8  -3358364.79545  23528592.363    23528591.3954   23528599.7854
        -0.000          -0.000
 -17775967.133 9 -13838919.13249  19287795.472    19287795.2374   19287800.2624
        -0.000          -0.000
  -1205380.809 8   -926905.24445  23751589.017    23751588.8184   23751596.4064
        -0.000          -0.000
 97  3  5 19 27 29.9960000  0  8 19  2 31 18  7 15 27 26            -0.003328365
  -3019249.828 9  -2346440.93948  20245532.042    20245532.0904   20245537.6804
        -0.000          -0.000
 -19035265.654 9 -14809678.68949  20510077.433    20510076.9394   20510082.6234
        -0.000          -0.000
   2096311.269 9   1790278.75846  22322581.318    22322580.9884   22322587.0224
        -0.000          -0.000
  12327408.803 9   9621292.56946  22547365.340    22547365.1544   22547371.8824
        -0.000          -0.000
 -14714081.638 9 -10811007.27647  21593400.307    21593399.7404   21593406.5384
        -0.000          -0.000
  -4976251.904 8  -3423901.70945  23512587.875    23512586.6954   23512594.9934
        -0.000          -0.000
 -17818872.997 9 -13872352.28349  19279630.727    19279630.5004   19279635.5694
        -0.000          -0.000
  -1315403.752 8  -1012637.35145  23730651.769    23730651.8214   23730659.6654
        -0.000          -0.000
 97  3  5 19 27 59.9960000  0  8 19  2 31 18  7 15 27 26            -0.003341412
  -2995196.248 9  -2327697.92548  20250109.435    20250109.3914   20250114.9764
        -0.000          -0.000
 -19080389.413 9 -14844840.07549  20501490.665    20501490.1644   20501495.9104
        -0.000          -0.000
   2169356.755 9   1847197.24546  22336481.425    22336481.0764   22336487.2574
        -0.000          -0.000
  12417539.857 9   9691524.47846  22564516.850    22564516.6894   22564523.4704
        -0.000          -0.000
 -14830745.621 9 -10901914.24447  21571199.828    21571199.3004   21571206.1014
        -0.000          -0.000
  -5060138.683 8  -3489267.93245  23496624.571    23496623.4774   23496631.6364
        -0.000          -0.000
 -17861459.997 9 -13905536.97149  19271526.679    19271526.4504   19271531.5454
        -0.000          -0.000
  -1425201.570 8  -1098194.04945  23709758.046    23709757.9474   23709765.7764
        -0.000          -0.000
 97  3  5 19 28 29.9960000  0  8 19  2 31 18  7 15 27 26            -0.003354461
  -2970818.029 9  -2308701.94848  20254748.492    20254748.4594   20254754.0194
        -0.000          -0.000
 -19125336.510 9 -14879863.79749  20492937.559    20492937.0554   20492942.7844
        -0.000          -0.000
   2242713.133 9   1904357.98446  22350440.657    22350440.3824   22350446.5624
        -0.000          -0.000
  12507785.079 9   9761845.36246  22581689.950    22581689.8214   22581696.5654
        -0.000          -0.000
 -14947153.650 9 -10992621.76147  21549047.958    21549047.4654   21549054.3764
        -0.000          -0.000
  -5143806.026 8  -3554463.27945  23480702.723    23480702.0274   23480710.3014
        -0.000          -0.000
 -17903730.282 9 -13938474.87049  19263482.940    19263482.7284   19263487.8054
        -0.000          -0.000
  -1534790.742 8  -1183588.15745  23688904.352    23688903.9434   23688911.5884
        -0.000          -0.000
 97  3  5 19 28 59.9960000  0  8 19  2 31 18  7 15 27 26            -0.003367510
  -2946122.648 9  -2289458.83648  20259447.863    20259447.8264   20259453.3974
        -0.000          -0.000
 -19170101.280 9 -14914745.44749  20484419.133    20484418.5924   20484424.2974
        -0.000          -0.000
   2316375.022 9   1961756.78246  22364457.993    22364457.7884   22364464.0774
        -0.000          -0.000
  12598153.807 9   9832262.47046  22598886.424    22598886.4464   22598893.2704
        -0.000          -0.000
 -15063326.730 9 -11083146.19747  21526940.855    21526940.4994   21526947.3984
        -0.000          -0.000
  -5227251.486 8  -3619485.62945  23464824.075    23464823.1814   23464831.0484
        -0.000          -0.000
 -17945676.146 9 -13971159.98249  19255500.955    19255500.7644   19255505.7844
        -0.000          -0.000
  -1644159.900 8  -1268810.82945  23668092.277    23668091.9804   23668099.4014
        -0.000          -0.000
 97  3  5 19 29 29.9960000  0  8 19  2 31 18  7 15 27 26            -0.003380554
  -2921118.405 9  -2269975.04948  20264206.037    20264205.9724   20264211.6114
        -0.000          -0.000
 -19214666.735 9 -14949471.79449  20475938.610    20475938.0534   20475943.7744
        -0.000          -0.000
   2390338.153 9   2019390.31346  22378532.841    22378532.5844   22378538.8694
        -0.000          -0.000
  12688635.102 9   9902767.30246  22616104.754    22616104.4764   22616111.3774
        -0.000          -0.000
 -15179255.449 9 -11173480.21847  21504880.427    21504879.9224   21504886.7594
        -0.000          -0.000
  -5310469.685 8  -3684330.94445  23448987.770    23448987.3434   23448995.3134
        -0.000          -0.000
 -17987288.470 9 -14003585.18949  19247582.369    19247582.2064   19247587.2204
        -0.000          -0.000
  -1753278.997 9  -1353838.65845  23647327.367    23647327.4564   23647334.7104
        -0.000          -0.000
 97  3  5 19 29 59.9960000  0  8 19  2 31 18  7 15 27 26            -0.003393571
  -2895804.432 9  -2250249.91148  20269023.163    20269023.0974   20269028.7244
        -0.000          -0.000
 -19259002.637 9 -14984019.26249  20467501.752    20467501.2144   20467506.9694
        -0.000          -0.000
   2464617.223 9   2077270.04247  22392667.839    22392667.6084   22392673.8984
        -0.000          -0.000
  12779229.153 9   9973359.99246  22633344.376    22633344.0024   22633350.9254
        -0.000          -0.000
 -15294922.761 9 -11263610.55147  21482869.634    21482869.0994   21482875.9814
        -0.000          -0.000
  -5393447.420 8  -3748988.84245  23433198.135    23433197.2164   23433205.1474
        -0.000          -0.000
 -18028570.729 9 -14035753.19649  19239726.680    19239726.5044   19239731.5004
        -0.000          -0.000
  -1862105.657 9  -1438638.61245  23626618.447    23626618.5824   23626625.5624
        -0.000          -0.000
 97  3  5 19 30 29.9960000  0  8 19  2 31 18  7 15 27 26            -0.003406572
  -2870185.818 9  -2230287.39448  20273898.296    20273898.1924   20273903.8584
        -0.000          -0.000
 -19303125.251 9 -15018400.52649  20459105.523    20459105.0064   20459110.6814
        -0.000          -0.000
   2539188.873 9   2135377.74446  22406858.448    22406858.1654   22406864.5624
        -0.000          -0.000
  12869913.485 9  10044023.02446  22650600.978    22650600.7164   22650607.5354
        -0.000          -0.000
 -15410352.609 9 -11353555.85347  21460904.063    21460903.5264   21460910.2994
        -0.000          -0.000
  -5476198.165 8  -3813469.91145  23417450.526    23417449.9974   23417458.2794
        -0.000          -0.000
 -18069543.591 9 -14067680.12249  19231929.883    19231929.6524   19231934.6604
        -0.000          -0.000
  -1970643.758 9  -1523213.72146  23605964.293    23605964.5214   23605971.5354
        -0.000          -0.000
 97  3  5 19 30 59.9960000  0  8 19  2 31 18  7 15 27 26            -0.003419561
  -2844256.188 9  -2210082.52248  20278832.562    20278832.4664   20278838.1874
        -0.000          -0.000
 -19347036.714 9 -15052617.25249  20450749.398    20450748.9014   20450754.5834
        -0.000          -0.000
   2614039.365 9   2193702.74946  22421102.100    22421101.8344   22421108.1334
        -0.000          -0.000
  12960673.305 9  10114744.90646  22667872.059    22667871.7594   22667878.5944
        -0.000          -0.000
 -15525555.213 9 -11443324.09947  21438981.715    21438981.2124   21438987.8044
        -0.000          -0.000
  -5558725.115 8  -3877776.57945  23401746.420    23401745.7984   23401753.8504
        -0.000          -0.000
 -18110209.488 9 -14099367.85149  19224191.369    19224191.2094   19224196.2104
        -0.000          -0.000
  -2078891.279 9  -1607562.41846  23585365.406    23585365.5624   23585372.6284
        -0.000          -0.000
 97  3  5 19 31 29.9960000  0  8 19  2 31 18  7 15 27 26            -0.003432536
  -2817978.448 9  -2189606.40548  20283833.085    20283833.0044   20283838.6834
        -0.000          -0.000
 -19390726.920 9 -15086661.57549  20442435.439    20442434.9374   20442440.6424
        -0.000          -0.000
   2689180.459 9   2252254.18746  22435400.896    22435400.7654   22435407.0124
        -0.000          -0.000
  13051527.438 9  10185540.25046  22685160.845    22685160.6704   22685167.6504
        -0.000          -0.000
 -15640492.975 9 -11532885.94347  21417109.733    21417109.1944   21417115.8824
        -0.000          -0.000
  -5641005.173 8  -3941890.85945  23386088.882    23386088.2284   23386096.4214
        -0.000          -0.000
 -18150542.309 9 -14130796.04049  19216516.315    19216516.1234   19216521.1404
        -0.000          -0.000
  -2186845.276 9  -1691682.39845  23564822.236    23564822.4534   23564829.4554
        -0.000          -0.000
 97  3  5 19 31 59.9960000  0  8 19  2 31 18  7 15 27 26            -0.003445508
  -2791338.216 9  -2168847.82548  20288902.508    20288902.5054   20288908.1544
        -0.000          -0.000
 -19434202.744 9 -15120538.85049  20434162.278    20434161.7644   20434167.5094
        -0.000          -0.000
   2764606.595 9   2311027.72046  22449754.098    22449753.9284   22449760.1974
        -0.000          -0.000
  13142490.274 9  10256420.30646  22702470.484    22702470.4074   22702477.4434
        -0.000          -0.000
 -15755166.341 9 -11622241.78747  21395288.198    21395287.5814   21395294.2994
        -0.000          -0.000
  -5723035.698 9  -4005810.74045  23370479.101    23370478.5944   23370486.5744
        -0.000          -0.000
 -18190528.198 9 -14161953.88749  19208907.251    19208907.0504   19208912.1304
        -0.000          -0.000
  -2294543.286 9  -1775602.88845  23544328.284    23544328.4714   23544335.2034
        -0.000          -0.000
 97  3  5 19 32 29.9960000  0  8 19  2 31 18  7 15 27 26            -0.003458493
  -2764330.952 9  -2147803.23948  20294041.989    20294041.8874   20294047.4804
        -0.000          -0.000
 -19477467.067 9 -15154251.30949  20425929.296    20425928.8244   20425934.5754
        -0.000          -0.000
   2840311.461 9   2370018.47346  22464160.225    22464160.1064   22464166.3784
        -0.000          -0.000
  13233574.016 9  10327394.57246  22719803.199    22719803.1374   22719810.1874
        -0.000          -0.000
 -15869571.071 9 -11711388.29947  21373517.703    21373517.0824   21373523.8494
        -0.000          -0.000
  -5804807.395 8  -4069528.89245  23354918.480    23354917.8784   23354925.8494
        -0.000          -0.000
 -18230124.018 9 -14192807.78449  19201372.471    19201372.2374   19201377.3204
        -0.000          -0.000
  -2402005.630 9  -1859339.73545  23523878.519    23523878.9874   23523885.8444
        -0.000          -0.000
 97  3  5 19 32 59.9960000  0  8 19  2 31 18  7 15 27 26            -0.003471499
  -2736990.758 9  -2126499.23248  20299244.661    20299244.5954   20299250.1674
        -0.000          -0.000
 -19520536.635 9 -15187812.01949  20417733.444    20417732.9484   20417738.7354
        -0.000          -0.000
   2916292.274 9   2429224.21146  22478619.006    22478618.8064   22478625.1674
        -0.000          -0.000
  13324757.783 9  10398446.80346  22737154.998    22737154.9254   22737161.8234
        -0.000          -0.000
 -15983722.408 9 -11800337.36347  21351795.349    21351794.8104   21351801.5534
        -0.000          -0.000
  -5886333.626 9  -4133055.81445  23339404.362    23339403.8864   23339411.9684
        -0.000          -0.000
 -18269333.161 9 -14223360.38049  19193911.193    19193910.9624   19193916.0604
        -0.000          -0.000
  -2509254.583 9  -1942910.34745  23503469.889    23503470.3164   23503476.9774
        -0.000          -0.000
 97  3  5 19 33 29.9960000  0  8 19  2 31 18  7 15 27 26            -0.003484520
  -2709319.590 9  -2104937.32248  20304510.333    20304510.2704   20304515.8554
        -0.000          -0.000
 -19563412.109 9 -15221221.48649  20409574.544    20409574.0264   20409579.7994
        -0.000          -0.000
   2992576.899 9   2488666.70546  22493135.358    22493135.2964   22493141.7754
        -0.000          -0.000
  13416048.561 9  10469582.38946  22754527.117    22754526.9094   22754534.0014
        -0.000          -0.000
 -16097601.985 9 -11889074.67247  21330124.837    21330124.2834   21330131.0024
        -0.000          -0.000
  -5967605.221 8  -4196384.27245  23323939.162    23323938.4044   23323946.5234
        -0.000          -0.000
 -18308142.225 9 -14253601.22049  19186526.043    19186525.8454   19186530.9444
        -0.000          -0.000
  -2616287.616 9  -2026312.72745  23483102.062    23483102.5474   23483109.1644
        -0.000          -0.000
 97  3  5 19 33 59.9960000  0  8 19  2 31 18  7 15 27 26            -0.003497536
  -2681316.342 9  -2083116.64448  20309839.246    20309839.1414   20309844.7964
        -0.000          -0.000
 -19606060.609 9 -15254454.09149  20401458.776    20401458.2644   20401464.0854
        -0.000          -0.000
   3069202.699 9   2548375.03946  22507716.948    22507716.6924   22507723.2144
        -0.000          -0.000
  13507453.690 9  10540807.07146  22771920.793    22771920.6674   22771928.0634
        -0.000          -0.000
 -16211201.789 9 -11977593.98847  21308507.339    21308506.8984   21308513.6264
        -0.000          -0.000
  -6048598.877 9  -4259496.17945  23308526.378    23308525.7534   23308533.8324
        -0.000          -0.000
 -18346535.242 9 -14283517.86449  19179220.091    19179219.9024   19179225.0054
        -0.000          -0.000
  -2723060.783 9  -2109512.57245  23462783.748    23462784.0244   23462790.9014
        -0.000          -0.000
 97  3  5 19 34 29.9960000  0  8 19  2 31 18  7 15 27 26            -0.003510537
  -2653000.504 9  -2061052.40148  20315227.529    20315227.4414   20315233.1254
        -0.000          -0.000
 -19648497.501 9 -15287521.80649  20393383.230    20393382.7454   20393388.6254
        -0.000          -0.000
   3146163.356 9   2608344.29046  22522362.247    22522361.8534   22522368.3994
        -0.000          -0.000
  13598944.969 9  10612098.92246  22789331.219    22789331.0054   22789338.3844
        -0.000          -0.000
 -16324539.172 9 -12065908.79447  21286939.920    21286939.4194   21286946.2824
        -0.000          -0.000
  -6129326.998 9  -4322401.19845  23293164.267    23293163.6294   23293171.9034
        -0.000          -0.000
 -18384557.525 9 -14313145.62849  19171984.646    19171984.4914   19171989.5994
        -0.000          -0.000
  -2829553.096 9  -2192493.55945  23442518.736    23442519.0424   23442526.0734
        -0.000          -0.000
 97  3  5 19 34 59.9960000  0  8 19  2 31 18  7 15 27 26            -0.003523502
  -2624350.331 9  -2038727.63048  20320679.498    20320679.3864   20320685.0934
        -0.000          -0.000
 -19690702.344 9 -15320408.70449  20385352.015    20385351.4954   20385357.3684
        -0.000          -0.000
   3223480.245 9   2668591.15546  22537074.942    22537074.7874   22537081.3234
        -0.000          -0.000
  13690532.304 9  10683465.59346  22806760.089    22806759.5494   22806766.9284
        -0.000          -0.000
 -16437588.135 9 -12153998.87747  21265427.364    21265426.8814   21265433.6804
        -0.000          -0.000
  -6209766.369 9  -4385081.21145  23277857.227    23277856.6254   23277864.5894
        -0.000          -0.000
 -18422215.779 9 -14342489.73349  19164818.520    19164818.3624   19164823.4914
        -0.000          -0.000
  -2935728.325 9  -2275227.43445  23422314.393    23422314.6384   23422321.5254
        -0.000          -0.000
 97  3  5 19 35 29.9960000  0  8 19  2 31 18  7 15 27 26            -0.003536440
  -2595377.553 9  -2016151.47848  20326192.743    20326192.7104   20326198.4794
        -0.000          -0.000
 -19732701.765 9 -15353135.53649  20377359.727    20377359.2484   20377365.1344
        -0.000          -0.000
   3301122.610 9   2729091.65546  22551849.891    22551849.7694   22551856.2564
        -0.000          -0.000
  13782194.889 9  10754890.89946  22824202.700    22824202.3144   22824209.9394
        -0.000          -0.000
 -16550359.351 9 -12241872.53247  21243967.985    21243967.3184   21243974.0064
        -0.000          -0.000
  -6289931.019 9  -4447547.18045  23262602.599    23262601.9264   23262609.9154
        -0.000          -0.000
 -18459525.760 9 -14371562.45549  19157718.722    19157718.5474   19157723.6424
        -0.000          -0.000
  -3041587.297 9  -2357714.93945  23402170.125    23402170.1854   23402177.2034
        -0.000          -0.000
 97  3  5 19 35 59.9960000  0  8 19  2 31 18  7 15 27 26            -0.003549346
  -2566080.709 9  -1993322.80248  20331767.727    20331767.7104   20331773.5184
        -0.000          -0.000
 -19774499.541 9 -15385705.24249  20369405.905    20369405.3944   20369411.3024
        -0.000          -0.000
   3379067.863 9   2789828.15546  22566682.807    22566682.3614   22566688.7244
        -0.000          -0.000
  13873926.673 9  10826370.12545  22841658.843    22841658.3904   22841665.9334
        -0.000          -0.000
 -16662853.602 9 -12329530.37347  21222560.921    21222560.3974   21222566.9374
        -0.000          -0.000
  -6369817.167 9  -4509796.11345  23247400.781    23247400.0704   23247407.6544
        -0.000          -0.000
 -18496494.231 9 -14400369.06249  19150683.905    19150683.6984   19150688.7864
        -0.000          -0.000
  -3147114.302 9  -2439943.70045  23382089.076    23382089.1064   23382095.6024
        -0.000          -0.000
 97  3  5 19 36 29.9960000  0  8 19  2 31 18  7 15 27 26            -0.003562234
  -2536446.342 9  -1970231.13048  20337407.008    20337406.9664   20337412.7764
        -0.000          -0.000
 -19816117.903 9 -15418135.14449  20361486.244    20361485.7174   20361491.5684
        -0.000          -0.000
   3457288.263 9   2850779.03246  22581567.588    22581567.2774   22581573.6044
        -0.000          -0.000
  13965725.939 9  10897901.95445  22859128.098    22859127.3754   22859134.6414
        -0.000          -0.000
 -16775050.905 9 -12416956.82647  21201210.512    21201209.9384   21201216.4934
        -0.000          -0.000
  -6449421.152 9  -4571825.14745  23232252.431    23232252.0864   23232259.4884
        -0.000          -0.000
 -18533106.821 9 -14428898.35549  19143716.735    19143716.5314   19143721.6474
        -0.000          -0.000
  -3252329.439 8  -2521929.49545  23362067.241    23362067.3164   23362073.9984
        -0.000          -0.000
 97  3  5 19 36 59.9960000  0  8 19  2 31 18  7 15 27 26            -0.003575122
  -2506497.697 9  -1946894.56848  20343106.078    20343106.0714   20343111.7704
        -0.000          -0.000
 -19857578.876 9 -15450442.40149  20353596.535    20353595.9894   20353601.7874
        -0.000          -0.000
   3535753.856 9   2911920.95646  22596498.670    22596498.7894   22596505.2084
        -0.000          -0.000
  14057584.827 9  10969480.24645  22876608.269    22876607.8234   22876614.5064
        -0.000          -0.000
 -16886959.482 9 -12504158.30047  21179915.024    21179914.4304   21179921.0124
        -0.000          -0.000
  -6528752.419 9  -4633641.71145  23217156.196    23217155.7484   23217162.9994
        -0.000          -0.000
 -18569342.766 9 -14457134.16249  19136821.244    19136821.0744   19136826.1694
        -0.000          -0.000
  -3357258.791 8  -2603692.60445  23342099.612    23342099.7404   23342106.4344
        -0.000          -0.000
 97  3  5 19 37 29.9960000  0  8 19  2 31 18  7 15 27 26            -0.003587999
  -2476211.096 9  -1923294.66348  20348869.473    20348869.4414   20348875.0904
        -0.000          -0.000
 -19898864.319 9 -15482612.88649  20345740.116    20345739.6084   20345745.4794
        -0.000          -0.000
   3614465.519 9   2973254.65746  22611477.284    22611477.1704   22611483.6574
        -0.000          -0.000
  14149530.847 9  11041126.44445  22894105.028    22894104.6724   22894111.2524
        -0.000          -0.000
 -16998563.843 9 -12591122.71647  21158677.475    21158676.8534   21158683.4304
        -0.000          -0.000
  -6607790.647 9  -4695229.93145  23202115.778    23202115.3204   23202122.6184
        -0.000          -0.000
 -18605181.775 9 -14485060.67449  19130001.380    19130001.1964   19130006.2534
        -0.000          -0.000
  -3461885.032 8  -2685219.47745  23322189.709    23322189.9444   23322196.6544
        -0.000          -0.000
 97  3  5 19 37 59.9960000  0  8 19  2 31 18  7 15 27 26            -0.003600874
  -2445586.499 9  -1899431.38448  20354697.247    20354697.1864   20354702.8144
        -0.000          -0.000
 -19939972.620 9 -15514645.34049  20337917.503    20337917.0134   20337922.8244
        -0.000          -0.000
   3693405.760 8   3034766.50446  22626499.220    22626499.0614   22626505.4434
        -0.000          -0.000
  14241555.489 9  11112833.84245  22911616.377    22911616.1784   22911623.1384
        -0.000          -0.000
 -17109867.817 9 -12677853.05147  21137497.047    21137496.3264   21137502.9564
        -0.000          -0.000
  -6686543.762 9  -4756595.96145  23187129.592    23187129.1254   23187136.2544
        -0.000          -0.000
 -18640645.195 9 -14512694.52149  19123252.934    19123252.7484   19123257.7874
        -0.000          -0.000
  -3566223.150 8  -2766521.85345  23302334.832    23302335.0204   23302341.9194
        -0.000          -0.000
 97  3  5 19 38 29.9960000  0  8 19  2 31 18  7 15 27 26            -0.003613743
  -2414615.914 9  -1875298.50148  20360590.773    20360590.6864   20360596.3734
        -0.000          -0.000
 -19980878.012 9 -15546519.68449  20330133.523    20330133.0024   20330138.7484
        -0.000          -0.000
   3772594.536 9   3096471.95546  22641568.052    22641568.1484   22641574.5554
        -0.000          -0.000
  14333666.914 9  11184608.89446  22929144.853    22929144.6134   22929151.5784
        -0.000          -0.000
 -17220868.742 9 -12764347.26147  21116374.044    21116373.4794   21116380.0964
        -0.000          -0.000
  -6765000.837 8  -4817731.30445  23172199.623    23172199.0024   23172206.0104
        -0.000          -0.000
 -18675723.135 9 -14540027.99549  19116577.844    19116577.6394   19116582.6694
        -0.000          -0.000
  -3670267.893 8  -2847595.58745  23282535.622    23282535.7764   23282543.0784
        -0.000          -0.000
 97  3  5 19 38 59.9960000  0  8 19  2 31 18  7 15 27 26            -0.003626583
  -2383289.850 9  -1850888.62448  20366551.867    20366551.8804   20366557.6454
        -0.000          -0.000
 -20021551.407 9 -15578213.24649  20322393.571    20322393.0704   20322398.8634
        -0.000          -0.000
   3852064.637 9   3158396.66946  22656690.892    22656690.8694   22656697.2134
        -0.000          -0.000
  14425883.016 9  11256465.53446  22946693.197    22946692.7054   22946699.8084
        -0.000          -0.000
 -17331572.825 9 -12850610.15547  21095307.501    21095307.1124   21095313.7854
        -0.000          -0.000
  -6843146.384 9  -4878623.96645  23157328.677    23157328.2764   23157335.6494
        -0.000          -0.000
 -18710425.716 9 -14567068.97849  19109974.142    19109973.9404   19109979.0024
        -0.000          -0.000
  -3773986.050 8  -2928414.89445  23262798.603    23262798.8404   23262806.1974
        -0.000          -0.000
 97  3  5 19 39 29.9960000  0  8 19  2 31 18  7 15 27 26            -0.003639394
  -2351602.629 9  -1826197.33048  20372581.865    20372581.8054   20372587.6154
        -0.000          -0.000
 -20061988.486 9 -15609722.67049  20314698.666    20314698.1774   20314704.0074
        -0.000          -0.000
   3931816.822 9   3220541.17546  22671867.431    22671867.3934   22671873.5824
        -0.000          -0.000
  14518180.795 9  11328385.79846  22964257.069    22964256.5664   22964263.7364
        -0.000          -0.000
 -17441974.279 9 -12936637.22547  21074298.892    21074298.3874   21074305.0874
        -0.000          -0.000
  -6920982.811 9  -4939275.65645  23142517.263    23142516.6084   23142523.9664
        -0.000          -0.000
 -18744775.556 9 -14593835.10149  19103437.580    19103437.3854   19103442.4334
        -0.000          -0.000
  -3877374.117 9  -3008976.95945  23243124.871    23243124.8594   23243132.0644
        -0.000          -0.000
 97  3  5 19 39 59.9960000  0  8 19  2 31 18  7 15 27 26            -0.003652186
  -2319560.070 9  -1801229.15148  20378679.464    20378679.3444   20378685.1824
        -0.000          -0.000
 -20102193.494 9 -15641051.26149  20307047.936    20307047.4444   20307053.2204
        -0.000          -0.000
   4011862.808 9   3282914.61646  22687099.785    22687099.5584   22687105.8974
        -0.000          -0.000
  14610542.730 9  11400356.03446  22981832.886    22981832.6084   22981839.7894
        -0.000          -0.000
 -17552078.665 9 -13022432.83347  21053346.760    21053346.2324   21053352.9234
        -0.000          -0.000
  -6998514.462 8  -4999689.92345  23127763.505    23127762.9444   23127770.4694
        -0.000          -0.000
 -18778768.054 9 -14620322.77549  19096968.985    19096968.8334   19096973.8704
        -0.000          -0.000
  -3980440.183 9  -3089288.15246  23223512.099    23223512.0274   23223519.1114
        -0.000          -0.000
 97  3  5 19 40 29.9960000  0  8 19  2 31 18  7 15 27 26            -0.003664958
  -2287179.818 9  -1775997.82548  20384841.304    20384841.1384   20384846.9744
        -0.000          -0.000
 -20142167.957 9 -15672200.20949  20299441.034    20299440.5504   20299446.3824
        -0.000          -0.000
   4092205.356 9   3345519.13346  22702388.637    22702388.1534   22702394.6634
        -0.000          -0.000
  14702961.090 9  11472370.23346  22999419.474    22999419.2334   22999426.4344
        -0.000          -0.000
 -17661896.709 9 -13108005.32447  21032449.066    21032448.4994   21032455.1544
        -0.000          -0.000
  -7075738.009 9  -5059864.07745  23113068.114    23113067.8564   23113075.0314
        -0.000          -0.000
 -18812389.861 9 -14646521.59949  19090570.959    19090570.8134   19090575.8504
        -0.000          -0.000
  -4083179.286 9  -3169344.55246  23203961.134    23203961.4924   23203968.4764
        -0.000          -0.000
 97  3  5 19 40 59.9960000  0  8 19  2 31 18  7 15 27 26            -0.003677699
  -2254453.988 9  -1750497.22548  20391068.819    20391068.7074   20391074.5304
        -0.000          -0.000
 -20181915.394 9 -15703172.24749  20291877.271    20291876.8264   20291882.7134
        -0.000          -0.000
   4172843.161 9   3408353.71146  22717733.471    22717733.0504   22717739.6094
        -0.000          -0.000
  14795449.748 9  11544439.24546  23017019.429    23017019.3694   23017026.4644
        -0.000          -0.000
 -17771397.606 9 -13193330.65947  21011611.678    21011611.0944   21011617.7854
        -0.000          -0.000
  -7152634.746 8  -5119783.62245  23098435.176    23098434.8964   23098442.3934
        -0.000          -0.000
 -18845613.286 9 -14672409.98949  19084248.798    19084248.5904   19084253.6604
        -0.000          -0.000
  -4185573.002 9  -3249131.82946  23184476.336    23184476.7414   23184483.6974
        -0.000          -0.000
 97  3  5 19 41 29.9960000  0  8 19  2 31 18  7 15 27 26            -0.003690418
  -2221388.777 9  -1724732.17348  20397360.863    20397360.8014   20397366.6534
        -0.000          -0.000
 -20221430.516 9 -15733963.25749  20284357.833    20284357.3814   20284363.2134
        -0.000          -0.000
   4253760.986 9   3471406.47146  22733131.904    22733131.2614   22733137.8374
        -0.000          -0.000
  14888000.912 9  11616556.96246  23034631.322    23034631.3164   23034638.3724
        -0.000          -0.000
 -17880555.988 9 -13278389.11547  20990839.565    20990839.0244   20990845.6384
        -0.000          -0.000
  -7229203.146 8  -5179447.30345  23083864.961    23083864.4244   23083872.0104
        -0.000          -0.000
 -18878417.599 9 -14697971.80149  19078006.331    19078006.1614   19078011.2384
        -0.000          -0.000
  -4287628.831 9  -3328655.80346  23165055.959    23165056.1054   23165063.1604
        -0.000          -0.000
 97  3  5 19 41 59.9960000  0  8 19  2 31 18  7 15 27 26            -0.003703129
  -2187998.403 9  -1698713.73248  20403714.921    20403714.8324   20403720.6984
        -0.000          -0.000
 -20260727.885 9 -15764584.59249  20276879.849    20276879.3784   20276885.1944
        -0.000          -0.000
   4334942.566 9   3534664.77546  22748580.290    22748579.5964   22748586.1884
        -0.000          -0.000
  14980610.603 9  11688720.26646  23052254.546    23052254.4464   23052261.6184
        -0.000          -0.000
 -17989393.328 9 -13363197.39847  20970128.561    20970127.9134   20970134.5524
        -0.000          -0.000
  -7305450.575 8  -5238860.96145  23069355.505    23069354.9784   23069362.6634
        -0.000          -0.000
 -18910801.945 9 -14723206.36349  19071843.784    19071843.6384   19071848.7094
        -0.000          -0.000
  -4389370.458 9  -3407934.95146  23145695.225    23145695.3594   23145702.3714
        -0.000          -0.000
 97  3  5 19 42 29.9960000  0  8 19  2 31 18  7 15 27 26            -0.003715831
  -2154303.063 9  -1672457.67448  20410126.969    20410126.8834   20410132.7324
        -0.000          -0.000
 -20299830.016 9 -15795053.80049  20269438.875    20269438.4804   20269444.3594
        -0.000          -0.000
   4416364.247 9   3598110.19146  22764074.096    22764073.6104   22764080.2424
        -0.000          -0.000
  15073272.953 9  11760924.59446  23069887.581    23069887.5094   23069894.6964
        -0.000          -0.000
 -18097894.433 9 -13447743.69247  20949481.319    20949480.6974   20949487.4144
        -0.000          -0.000
  -7381376.884 8  -5298024.29645  23054907.250    23054906.5684   23054913.9894
        -0.000          -0.000
 -18942772.455 9 -14748118.46849  19065759.951    19065759.8194   19065764.9204
        -0.000          -0.000
  -4490797.420 9  -3486968.89746  23126394.022    23126394.3104   23126401.2704
        -0.000          -0.000
 97  3  5 19 42 59.9960000  0  8 19  2 31 18  7 15 27 26            -0.003728508
  -2120273.402 9  -1645941.09648  20416602.627    20416602.5604   20416608.4454
        -0.000          -0.000
 -20338724.319 9 -15825361.06249  20262037.559    20262037.1444   20262043.0294
        -0.000          -0.000
   4498033.618 9   3661748.59846  22779615.249    22779614.8504   22779621.4914
        -0.000          -0.000
  15166023.881 9  11833197.94346  23087537.745    23087537.5214   23087544.7144
        -0.000          -0.000
 -18206028.966 9 -13532004.35047  20928903.818    20928903.3814   20928910.0214
        -0.000          -0.000
  -7456958.698 8  -5356919.23745  23040524.378    23040523.9274   23040531.3814
        -0.000          -0.000
 -18974316.058 9 -14772697.90949  19059757.457    19059757.2954   19059762.3924
        -0.000          -0.000
  -4591896.671 9  -3565747.49946  23107155.612    23107155.8794   23107162.6704
        -0.000          -0.000
 97  3  5 19 43 29.9960000  0  8 19  2 31 18  7 15 27 26            -0.003741171
  -2085908.671 9  -1619163.43148  20423142.059    20423141.9934   20423147.8584
        -0.000          -0.000
 -20377421.987 9 -15855515.10249  20254673.699    20254673.2524   20254679.0914
        -0.000          -0.000
   4579942.144 8   3725573.36046  22795202.151    22795201.6504   22795208.1234
        -0.000          -0.000
  15258853.061 9  11905532.25746  23105203.041    23105202.5314   23105209.5804
        -0.000          -0.000
 -18313820.049 9 -13615997.37947  20908392.014    20908391.4724   20908398.0194
        -0.000          -0.000
  -7532202.621 8  -5415550.85745  23026205.914    23026205.2704   23026212.6804
        -0.000          -0.000
 -19005446.335 9 -14796955.28449  19053833.654    19053833.4164   19053838.5384
        -0.000          -0.000
  -4692686.651 9  -3644285.11046  23087975.892    23087976.1574   23087982.8234
        -0.000          -0.000
 97  3  5 19 43 59.9960000  0  8 19  2 31 18  7 15 27 26            -0.003753817
  -2051199.921 9  -1592117.69448  20429747.008    20429746.8914   20429752.8074
        -0.000          -0.000
 -20415942.225 9 -15885530.87749  20247343.543    20247343.0564   20247348.9274
        -0.000          -0.000
   4662089.057 8   3789583.88946  22810834.157    22810833.6794   22810840.3314
        -0.000          -0.000
  15351767.776 8  11977933.24845  23122884.475    23122883.6514   23122890.7184
        -0.000          -0.000
 -18421273.692 9 -13699727.45647  20887944.155    20887943.6974   20887950.3694
        -0.000          -0.000
  -7607101.967 8  -5473914.00845  23011952.596    23011952.0074   23011959.8284
        -0.000          -0.000
 -19036156.218 9 -14820885.07349  19047989.720    19047989.5414   19047994.6784
        -0.000          -0.000
  -4793159.491 9  -3722575.57846  23068856.445    23068856.7034   23068863.5094
        -0.000          -0.000
 97  3  5 19 44 29.9960000  0  8 19  2 31 18  7 15 27 26            -0.003766437
  -2016149.252 9  -1564805.52348  20436416.948    20436416.8234   20436422.7564
        -0.000          -0.000
 -20454280.778 9 -15915405.08149  20240047.929    20240047.4774   20240053.3094
        -0.000          -0.000
   4744484.018 8   3853787.66146  22826513.224    22826512.8144   22826519.7054
        -0.000          -0.000
  15444764.008 8  12050397.76645  23140580.937    23140580.2794   23140587.4234
        -0.000          -0.000
 -18528389.445 9 -13783194.25747  20867560.589    20867560.2084   20867566.9884
        -0.000          -0.000
  -7681654.529 8  -5532006.91845  22997765.726    22997765.2284   22997773.0814
        -0.000          -0.000
 -19066448.656 9 -14844489.58449  19042225.310    19042225.1124   19042230.2514
        -0.000          -0.000
  -4893288.708 9  -3800598.30846  23049802.239    23049802.6244   23049809.5354
        -0.000          -0.000
 97  3  5 19 44 59.9960000  0  8 19  2 31 18  7 15 27 26            -0.003779035
  -1980753.238 9  -1537224.26148  20443152.517    20443152.4504   20443158.3854
        -0.000          -0.000
 -20492423.153 9 -15945126.42049  20232789.751    20232789.2814   20232795.1154
        -0.000          -0.000
   4827133.343 8   3918189.65846  22842240.872    22842240.4954   22842247.4634
        -0.000          -0.000
  15537822.510 8  12122910.74645  23158289.244    23158288.8904   23158295.9544
        -0.000          -0.000
 -18635189.797 9 -13866415.28848  20847237.253    20847236.7784   20847243.5694
        -0.000          -0.000
  -7755864.567 8  -5589832.92945  22983643.990    22983643.5544   22983651.4394
        -0.000          -0.000
 -19096327.688 9 -14867771.96349  19036539.547    19036539.3284   19036544.4564
        -0.000          -0.000
  -4993077.121 9  -3878355.46546  23030813.112    23030813.4994   23030820.4194
        -0.000          -0.000
 97  3  5 19 45 29.9960000  0  8 19  2 31 18  7 15 27 26            -0.003791625
  -1945013.104 9  -1509374.84848  20449953.702    20449953.6114   20449959.5414
        -0.000          -0.000
 -20530370.728 9 -15974695.97449  20225568.554    20225568.0914   20225573.9784
        -0.000          -0.000
   4910030.329 8   3982784.67145  22858015.642    22858015.4254   22858022.3434
        -0.000          -0.000
  15630905.180 8  12195442.53445  23176002.309    23176001.9574   23176009.0414
        -0.000          -0.000
 -18741676.692 9 -13949392.07748  20826973.482    20826973.0664   20826979.7864
        -0.000          -0.000
  -7829739.860 8  -5647398.10345  22969586.180    22969585.9264   22969593.3914
        -0.000          -0.000
 -19125800.763 9 -14890738.00849  19030930.982    19030930.7614   19030935.9404
        -0.000          -0.000
  -5092529.646 9  -3955850.88846  23011888.135    23011888.3214   23011895.1794
        -0.000          -0.000
 97  3  5 19 45 59.9960000  0  8 19  2 31 18  7 15 27 26            -0.003804204
  -1908932.728 9  -1481260.30948  20456819.711    20456819.5584   20456825.4574
        -0.000          -0.000
 -20568111.408 9 -16004104.31249  20218386.766    20218386.3024   20218392.1694
        -0.000          -0.000
   4993167.774 8   4047567.03745  22873836.105    22873836.0924   22873842.8104
        -0.000          -0.000
  15724003.938 8  12267986.92845  23193718.502    23193718.2634   23193725.1614
        -0.000          -0.000
 -18847838.376 9 -14032115.45148  20806771.750    20806771.1924   20806777.7904
        -0.000          -0.000
  -7903279.701 8  -5704701.87845  22955592.220    22955591.7454   22955599.1404
        -0.000          -0.000
 -19154875.796 9 -14913393.89049  19025398.191    19025397.9814   19025403.1874
        -0.000          -0.000
  -5191632.671 9  -4033073.99346  22993029.288    22993029.5774   22993036.2744
        -0.000          -0.000
 97  3  5 19 46 29.9960000  0  8 19  2 31 18  7 15 27 26            -0.003816761
  -1872502.026 9  -1452872.78648  20463752.158    20463752.0894   20463758.0624
        -0.000          -0.000
 -20605619.267 9 -16033331.21749  20211249.356    20211248.8144   20211254.6214
        -0.000          -0.000
   5076556.104 9   4112544.92145  22889704.907    22889704.6574   22889711.3004
        -0.000          -0.000
  15817123.444 8  12340547.47845  23211438.504    23211438.2564   23211444.9304
        -0.000          -0.000
 -18953662.570 9 -14114575.84248  20786634.057    20786633.5234   20786640.1124
        -0.000          -0.000
  -7976468.817 8  -5761732.36245  22941664.489    22941664.1374   22941671.7384
        -0.000          -0.000
 -19183561.073 9 -14935746.06849  19019939.593    19019939.3604   19019944.5994
        -0.000          -0.000
  -5290373.465 9  -4110014.85146  22974239.617    22974239.8054   22974246.4744
        -0.000          -0.000
 97  3  5 19 46 59.9960000  0  8 19  2 31 18  7 15 27 26            -0.003829302
  -1835710.651 9  -1424204.22248  20470753.460    20470753.3224   20470759.2934
        -0.000          -0.000
 -20642893.074 9 -16062375.75549  20204156.320    20204155.8344   20204161.6754
        -0.000          -0.000
   5160182.452 8   4177708.25445  22905618.765    22905618.4204   22905624.8384
        -0.000          -0.000
  15910267.602 8  12413127.28945  23229163.152    23229162.9454   23229169.7714
        -0.000          -0.000
 -19059136.774 9 -14196763.52648  20766563.004    20766562.4784   20766569.0204
        -0.000          -0.000
  -8049300.433 8  -5818484.26045  22927804.929    22927804.5524   22927812.4014
        -0.000          -0.000
 -19211860.149 9 -14957797.31549  19014554.508    19014554.2484   19014559.4764
        -0.000          -0.000
  -5388765.633 9  -4186684.04946  22955515.932    22955516.2474   22955522.9054
        -0.000          -0.000
 97  3  5 19 47 29.9960000  0  8 19  2 31 18  7 15 27 26            -0.003841820
  -1798550.792 9  -1395248.53148  20477824.824    20477824.6674   20477830.6264
        -0.000          -0.000
 -20679948.607 9 -16091250.20449  20197104.918    20197104.4064   20197110.2944
        -0.000          -0.000
   5244040.947 8   4243052.47645  22921576.512    22921576.2134   22921582.5934
        -0.000          -0.000
  16003455.361 8  12485741.02145  23246895.934    23246895.9594   23246902.8234
        -0.000          -0.000
 -19164261.808 9 -14278679.11748  20746558.517    20746557.9474   20746564.4374
        -0.000          -0.000
  -8121772.884 8  -5874956.29945  22914013.937    22914013.4584   22914021.4394
        -0.000          -0.000
 -19239765.284 9 -14979541.59949  19009244.345    19009244.1044   19009249.2804
        -0.000          -0.000
  -5486798.365 9  -4263073.13146  22936860.795    22936861.1814   22936867.9384
        -0.000          -0.000
 97  3  5 19 47 59.9960000  0  8 19  2 31 18  7 15 27 26            -0.003854321
  -1761057.088 9  -1366032.68548  20484959.523    20484959.4684   20484965.4584
        -0.000          -0.000
 -20716817.924 9 -16119979.55649  20190088.988    20190088.4434   20190094.3344
        -0.000          -0.000
   5328116.936 8   4308566.17245  22937575.408    22937575.2184   22937581.7614
        -0.000          -0.000
  16096663.998 8  12558371.03845  23264633.006    23264632.9194   23264639.8964
        -0.000          -0.000
 -19269062.431 9 -14360341.92448  20726615.597    20726614.9934   20726621.4874
        -0.000          -0.000
  -8193906.817 8  -5931164.55745  22900287.310    22900286.9614   22900294.8574
        -0.000          -0.000
 -19267294.028 9 -15000992.58249  19004005.811    19004005.5514   19004010.7874
        -0.000          -0.000
  -5584480.898 9  -4339189.32846  22918272.517    22918272.7304   22918279.5204
        -0.000          -0.000
 97  3  5 19 48 29.9960000  0  8 19  2 31 18  7 15 27 26            -0.003866792
  -1723213.664 9  -1336544.35348  20492160.882    20492160.8324   20492166.8644
        -0.000          -0.000
 -20753484.776 9 -16148551.13549  20183111.551    20183111.0234   20183116.8744
        -0.000          -0.000
   5412439.935 8   4374272.36545  22953621.455    22953621.3284   22953627.8154
        -0.000          -0.000
  16189911.834 8  12631031.59645  23282378.027    23282377.6754   23282384.7324
        -0.000          -0.000
 -19373528.034 9 -14441743.67948  20706736.373    20706735.7554   20706742.2844
        -0.000          -0.000
  -8265680.151 9  -5987091.81045  22886629.654    22886629.2464   22886636.7664
        -0.000          -0.000
 -19294415.703 9 -15022126.36749  18998844.654    18998844.4244   18998849.7094
        -0.000          -0.000
  -5681787.616 9  -4415012.72646  22899755.599    22899755.7694   22899762.4674
        -0.000          -0.000
 97  3  5 19 48 59.9960000  0  8 19  2 31 18  7 15 27 26            -0.003879229
  -1685003.551 9  -1306770.28248  20499431.979    20499431.9784   20499437.9884
        -0.000          -0.000
 -20789941.267 9 -16176958.80449  20176174.078    20176173.5864   20176179.4344
        -0.000          -0.000
   5497018.257 8   4440177.48345  22969716.315    22969716.1464   22969722.5084
        -0.000          -0.000
  16283206.684 9  12703728.79445  23300131.718    23300131.3544   23300138.3154
        -0.000          -0.000
 -19477639.916 9 -14522869.82148  20686924.578    20686923.9814   20686930.4254
        -0.000          -0.000
  -8337078.724 8  -6042727.07845  22873043.045    22873042.5134   22873050.1494
        -0.000          -0.000
 -19321096.446 9 -15042916.57149  18993767.483    18993767.2494   18993772.5594
        -0.000          -0.000
  -5778698.665 9  -4490527.81646  22881313.917    22881314.2864   22881320.7984
        -0.000          -0.000
 97  3  5 19 49 29.9960000  0  8 19  2 31 18  7 15 27 26            -0.003891650
  -1646456.655 9  -1276733.77348  20506767.338    20506767.2804   20506773.2964
        -0.000          -0.000
 -20826214.495 9 -16205223.67049  20169271.454    20169270.9744   20169276.8644
        -0.000          -0.000
   5581822.075 8   4506258.30945  22985853.819    22985853.8244   22985860.1924
        -0.000          -0.000
  16376515.344 9  12776436.76245  23317887.859    23317887.5324   23317894.4284
        -0.000          -0.000
 -19581415.628 9 -14603733.99648  20667176.516    20667176.0414   20667182.5114
        -0.000          -0.000
  -8408118.888 8  -6098083.03345  22859524.444    22859523.7924   22859531.4824
        -0.000          -0.000
 -19347347.705 9 -15063372.11949  18988772.042    18988771.8374   18988777.0964
        -0.000          -0.000
  -5875234.666 9  -4565750.60046  22862943.843    22862944.0534   22862950.5784
        -0.000          -0.000
 97  3  5 19 49 59.9960000  0  8 19  2 31 18  7 15 27 26            -0.003904063
  -1607586.164 9  -1246445.12748  20514164.239    20514164.2104   20514170.2224
        -0.000          -0.000
 -20862301.194 9 -16233343.18849  20162404.447    20162403.9784   20162409.8354
        -0.000          -0.000
   5666829.473 8   4572497.76645  23002030.230    23002030.2864   23002036.6654
        -0.000          -0.000
  16469822.030 9  12849143.19145  23335643.613    23335643.2604   23335650.1774
        -0.000          -0.000
 -19684842.834 9 -14684326.62548  20647495.070    20647494.5174   20647500.9614
        -0.000          -0.000
  -8478797.489 9  -6153157.27245  22846074.379    22846073.9724   22846081.9574
        -0.000          -0.000
 -19373181.016 9 -15083501.99149  18983856.169    18983855.9604   18983861.2294
        -0.000          -0.000
  -5971413.414 9  -4640695.01446  22844641.325    22844641.7944   22844648.4164
        -0.000          -0.000
 97  3  5 19 50 29.9960000  0  8 19  2 31 18  7 15 27 26            -0.003916476
  -1568392.375 9  -1215904.55248  20521622.592    20521622.5864   20521628.5904
        -0.000          -0.000
 -20898215.546 9 -16261328.40249  20155570.256    20155569.7304   20155575.5904
        -0.000          -0.000
   5752016.459 8   4638877.17445  23018241.186    23018241.0534   23018247.1404
        -0.000          -0.000
  16563133.782 9  12921853.54445  23353400.550    23353399.8884   23353406.8844
        -0.000          -0.000
 -19787928.828 9 -14764653.36148  20627878.437    20627877.8584   20627884.3174
        -0.000          -0.000
  -8549114.581 9  -6207949.80646  22832693.753    22832693.3054   22832701.1794
        -0.000          -0.000
 -19398594.409 9 -15103304.65349  18979020.128    18979019.9384   18979025.2314
        -0.000          -0.000
  -6067256.248 9  -4715377.68046  22826403.399    22826403.5994   22826410.1344
        -0.000          -0.000
 97  3  5 19 50 59.9960000  0  8 19  2 31 18  7 15 27 26            -0.003928895
  -1528878.107 9  -1185114.26548  20529142.093    20529141.9614   20529148.0124
        -0.000          -0.000
 -20933974.704 9 -16289192.69749  20148765.454    20148765.0204   20148770.8634
        -0.000          -0.000
   5837369.868 8   4705386.25345  23034483.485    23034483.2794   23034489.4094
        -0.000          -0.000
  16656450.210 9  12994567.52345  23371157.994    23371157.4044   23371164.5824
        -0.000          -0.000
 -19890662.759 9 -14844705.77348  20608328.796    20608328.2514   20608334.6324
        -0.000          -0.000
  -8619063.661 9  -6262455.59446  22819383.077    22819382.5004   22819390.4824
        -0.000          -0.000
 -19423585.392 9 -15122778.16249  18974264.543    18974264.3504   18974269.6444
        -0.000          -0.000
  -6162775.507 9  -4789808.24146  22808226.756    22808226.9834   22808233.4354
        -0.000          -0.000
 97  3  5 19 51 29.9960000  0  8 19  2 31 18  7 15 27 26            -0.003941315
  -1489044.298 9  -1154074.96648  20536722.133    20536722.0634   20536728.1394
        -0.000          -0.000
 -20969576.514 9 -16316934.37549  20141990.671    20141990.2504   20141996.0574
        -0.000          -0.000
   5922892.405 8   4772027.10945  23050757.815    23050757.6234   23050763.8524
        -0.000          -0.000
  16749782.011 9  13067293.49946  23388918.519    23388917.9094   23388925.2504
        -0.000          -0.000
 -19993031.262 9 -14924473.41948  20588848.722    20588848.1674   20588854.5404
        -0.000          -0.000
  -8688636.204 9  -6316667.98846  22806143.699    22806143.2954   22806151.2904
        -0.000          -0.000
 -19448139.816 9 -15141911.49449  18969592.023    18969591.8254   18969597.1074
        -0.000          -0.000
  -6257965.132 9  -4863981.95146  22790112.691    22790112.9534   22790119.2344
        -0.000          -0.000
 97  3  5 19 51 59.9960000  0  8 19  2 31 18  7 15 27 26            -0.003953722
  -1448865.485 9  -1122766.84048  20544367.952    20544367.8904   20544373.8834
        -0.000          -0.000
 -21005000.438 9 -16344537.44649  20135249.748    20135249.3074   20135255.0954
        -0.000          -0.000
   6008596.310 8   4838809.33245  23067066.847    23067066.5634   23067072.9174
        -0.000          -0.000
  16843149.327 8  13140047.12546  23406686.094    23406685.2094   23406692.6864
        -0.000          -0.000
 -20095026.749 9 -15003950.40948  20569439.548    20569438.9844   20569445.4904
        -0.000          -0.000
  -8757818.813 9  -6370576.48246  22792979.004    22792978.3104   22792986.1264
        -0.000          -0.000
 -19472226.446 9 -15160680.31949  18965008.493    18965008.3284   18965013.5654
        -0.000          -0.000
  -6352791.104 9  -4937872.27546  22772067.979    22772068.1854   22772074.3664
        -0.000          -0.000
 97  3  5 19 52 29.9960000  0  8 19  2 31 18  7 15 27 26            -0.003966131
  -1408371.612 9  -1091213.22048  20552073.745    20552073.6664   20552079.6204
        -0.000          -0.000
 -21040264.562 9 -16372015.99649  20128539.261    20128538.7524   20128544.5934
        -0.000          -0.000
   6094468.836 8   4905722.96145  23083407.581    23083407.4504   23083413.6524
        -0.000          -0.000
  16936523.942 8  13212806.44745  23424454.482    23424453.9084   23424461.4024
        -0.000          -0.000
 -20196682.426 9 -15083162.61848  20550095.011    20550094.5254   20550101.0224
        -0.000          -0.000
  -8826635.789 9  -6424200.12746  22779883.433    22779882.9454   22779890.5424
        -0.000          -0.000
 -19495867.054 9 -15179101.58649  18960509.943    18960509.7424   18960514.9674
        -0.000          -0.000
  -6447264.291 9  -5011487.68846  22754090.230    22754090.4814   22754096.7414
        -0.000          -0.000
 97  3  5 19 52 59.9960000  0  8 19  2 31 18  7 15 27 26            -0.003978531
  -1367555.922 9  -1059408.82948  20559840.677    20559840.6194   20559846.6434
        -0.000          -0.000
 -21075346.548 9 -16399352.60949  20121863.433    20121862.9344   20121868.7874
        -0.000          -0.000
   6180515.994 8   4972772.67445  23099781.548    23099781.5644   23099787.9934
        -0.000          -0.000
  17029900.398 8  13285567.22545  23442223.743    23442223.1364   23442230.4774
        -0.000          -0.000
 -20297985.370 9 -15162099.96348  20530817.772    20530817.2414   20530823.7284
        -0.000          -0.000
  -8895081.814 9  -6477534.69046  22766858.673    22766858.0924   22766865.5804
        -0.000          -0.000
 -19519064.609 9 -15197177.61049  18956095.541    18956095.3784   18956100.6744
        -0.000          -0.000
  -6541357.760 9  -5084807.23046  22736184.790    22736184.9184   22736191.3314
        -0.000          -0.000
 97  3  5 19 53 29.9960000  0  8 19  2 31 18  7 15 27 26            -0.003990920
  -1326407.611 9  -1027345.23748  20567671.024    20567670.8684   20567676.9484
        -0.000          -0.000
 -21110225.172 9 -16426530.76449  20115226.236    20115225.7194   20115231.6004
        -0.000          -0.000
   6266734.957 8   5039956.23645  23116188.713    23116188.4444   23116195.0624
        -0.000          -0.000
  17123270.047 8  13358322.67545  23459991.351    23459990.9464   23459998.1584
        -0.000          -0.000
 -20398930.624 9 -15240758.59448  20511608.595    20511608.0494   20511614.4874
        -0.000          -0.000
  -8963152.857 9  -6530577.02946  22753905.111    22753904.6204   22753912.2964
        -0.000          -0.000
 -19541824.422 9 -15214912.54549  18951764.589    18951764.3964   18951769.6454
        -0.000          -0.000
  -6635057.661 9  -5157820.09846  22718354.040    22718354.2814   22718360.8554
        -0.000          -0.000
 97  3  5 19 53 59.9960000  0  8 19  2 31 18  7 15 27 26            -0.004003305
  -1284943.112 9   -995035.27448  20575561.338    20575561.2954   20575567.4724
        -0.000          -0.000
 -21144915.207 9 -16453561.97549  20108624.857    20108624.3894   20108630.2524
        -0.000          -0.000
   6353123.241 8   5107271.71045  23132627.919    23132627.8644   23132634.1404
        -0.000          -0.000
  17216605.606 8  13431051.55545  23477752.187    23477752.1604   23477759.5814
        -0.000          -0.000
 -20499531.700 9 -15319149.03248  20492464.796    20492464.2824   20492470.7544
        -0.000          -0.000
  -9030857.658 9  -6583334.02546  22741021.352    22741020.7404   22741028.5084
        -0.000          -0.000
 -19564187.491 9 -15232338.32549  18947509.010    18947508.8034   18947514.0404
        -0.000          -0.000
  -6728379.311 9  -5230538.22946  22700595.530    22700595.7354   22700602.3584
        -0.000          -0.000
 97  3  5 19 54 29.9950000  0  8 19  2 31 18  7 15 27 26            -0.004015666
  -1243158.245 9   -962475.68448  20583512.804    20583512.7414   20583518.9084
        -0.000          -0.000
 -21179406.152 9 -16480438.04849  20102061.529    20102061.0134   20102066.8464
        -0.000          -0.000
   6439716.806 8   5174747.17245  23149105.860    23149106.1984   23149112.2214
        -0.000          -0.000
  17309911.600 7  13503757.38245  23495507.166    23495507.6694   23495515.3374
        -0.000          -0.000
 -20599744.084 9 -15397236.60348  20473394.990    20473394.4644   20473400.9684
        -0.000          -0.000
  -9098168.698 9  -6635784.17446  22728212.271    22728211.8664   22728219.6864
        -0.000          -0.000
 -19586159.992 9 -15249459.76449  18943327.826    18943327.6374   18943332.8574
        -0.000          -0.000
  -6821310.546 9  -5302952.13546  22682911.390    22682911.4774   22682918.1614
        -0.000          -0.000
 97  3  5 19 54 59.9950000  0  8 19  2 31 18  7 15 27 26            -0.004028005
  -1201037.587 9   -929654.43047  20591528.104    20591528.0224   20591534.1814
        -0.000          -0.000
 -21213716.843 9 -16507173.65549  20095532.420    20095531.9034   20095537.7654
        -0.000          -0.000
   6526518.199 8   5242384.54945  23165623.784    23165624.0034   23165630.1934
        -0.000          -0.000
  17403184.780 8  13576437.60445  23513256.396    23513256.9414   23513264.5994
        -0.000          -0.000
 -20699559.664 9 -15475014.97448  20454400.772    20454400.2434   20454406.7184
        -0.000          -0.000
  -9165085.192 9  -6687926.89346  22715478.679    22715478.2624   22715485.8084
        -0.000          -0.000
 -19607743.137 9 -15266277.80749  18939220.707    18939220.5014   18939225.7504
        -0.000          -0.000
  -6913856.074 9  -5375065.47946  22665300.357    22665300.6394   22665307.3164
        -0.000          -0.000
 97  3  5 19 55 29.9950000  0  8 19  2 31 18  7 15 27 26            -0.004040326
  -1158592.257 9   -896580.18347  20599605.181    20599605.1004   20599611.2844
        -0.000          -0.000
 -21247857.617 9 -16533776.86149  20089035.613    20089035.1304   20089041.0134
        -0.000          -0.000
   6613528.126 8   5310184.41945  23182181.455    23182181.4194   23182187.9044
        -0.000          -0.000
  17496418.021 8  13649086.79545  23530998.165    23530998.4494   23531006.4044
        -0.000          -0.000
 -20798989.997 9 -15552493.13848  20435479.857    20435479.2924   20435485.7864
        -0.000          -0.000
  -9231607.876 9  -6739762.73746  22702819.961    22702819.3654   22702826.9354
        -0.000          -0.000
 -19628941.268 9 -15282795.84149  18935186.796    18935186.6434   18935191.9044
        -0.000          -0.000
  -7006028.441 9  -5446888.05046  22647760.568    22647760.8114   22647767.5594
        -0.000          -0.000
 97  3  5 19 55 59.9950000  0  8 19  2 31 18  7 15 27 26            -0.004052632
  -1115828.971 9   -863258.18947  20607742.893    20607742.7664   20607748.9184
        -0.000          -0.000
 -21281836.565 9 -16560253.97449  20082569.584    20082569.1174   20082575.0254
        -0.000          -0.000
   6700750.564 8   5378149.93145  23198779.492    23198779.3004   23198785.8644
        -0.000          -0.000
  17589613.792 8  13721706.75245  23548732.390    23548732.7134   23548741.1134
        -0.000          -0.000
 -20898043.580 9 -15629677.74348  20416630.611    20416629.9914   20416636.4884
        -0.000          -0.000
  -9297741.493 9  -6791295.41146  22690234.930    22690234.4274   22690242.2214
        -0.000          -0.000
 -19649743.075 9 -15299005.05749  18931228.308    18931228.1934   18931233.4954
        -0.000          -0.000
  -7097830.001 9  -5518421.70646  22630291.267    22630291.5664   22630298.2374
        -0.000          -0.000
 97  3  5 19 56 29.9950000  0  8 19  2 31 18  7 15 27 26            -0.004064923
  -1072723.008 9   -829669.16847  20615945.741    20615945.6184   20615951.8014
        -0.000          -0.000
 -21315636.249 9 -16586591.39949  20076137.717    20076137.2594   20076143.1474
        -0.000          -0.000
   6788171.771 8   5446270.32045  23215415.390    23215415.1324   23215421.7174
        -0.000          -0.000
  17682788.552 7  13794310.30545  23566462.970    23566462.6284   23566471.8284
        -0.000          -0.000
 -20996715.011 9 -15706564.56748  20397853.894    20397853.3904   20397859.8974
        -0.000          -0.000
  -9363475.151 9  -6842516.44146  22677726.306    22677725.7474   22677733.5994
        -0.000          -0.000
 -19670108.107 9 -15314873.92349  18927352.968    18927352.8264   18927358.1904
        -0.000          -0.000
  -7189251.851 9  -5589659.47446  22612894.399    22612894.5494   22612901.1444
        -0.000          -0.000
 97  3  5 19 56 59.9950000  0  7 19  2 31  7 15 27 26               -0.004077219
  -1029266.409 9   -795806.93447  20624215.219    20624215.1734   20624221.3234
        -0.000          -0.000
 -21349261.648 9 -16612793.00849  20069739.094    20069738.5994   20069744.4524
        -0.000          -0.000
   6875762.082 8   5514522.44945  23232083.319    23232083.0434   23232089.9774
        -0.000          -0.000
 -21095034.845 9 -15783177.42048  20379144.241    20379143.7524   20379150.2544
        -0.000          -0.000
  -9428819.018 9  -6893433.72346  22665291.642    22665291.1364   22665298.8084
        -0.000          -0.000
 -19690025.312 9 -15330393.83849  18923562.838    18923562.6604   18923568.0544
        -0.000          -0.000
  -7280300.543 9  -5660606.46846  22595568.498    22595568.6634   22595575.1574
        -0.000          -0.000
 97  3  5 19 57 29.9950000  0  7 19  2 31  7 15 27 26               -0.004089474
   -985445.016 9   -761660.43547  20632554.239    20632554.1704   20632560.2994
        -0.000          -0.000
 -21382689.078 9 -16638840.35649  20063378.069    20063377.5634   20063383.4364
        -0.000          -0.000
   6963524.928 8   5582909.00445  23248784.047    23248783.7624   23248790.6204
        -0.000          -0.000
 -21192989.147 9 -15859505.44448  20360504.223    20360503.7274   20360510.1074
        -0.000          -0.000
  -9493753.542 9  -6944032.03746  22652935.178    22652934.5604   22652942.1704
        -0.000          -0.000
 -19709469.174 9 -15345544.92149  18919862.753    18919862.6324   18919868.0154
        -0.000          -0.000
  -7370955.746 9  -5731246.83346  22578317.381    22578317.6064   22578323.8744
        -0.000          -0.000
 97  3  5 19 57 59.9950000  0  7 19  2 31  7 15 27 26               -0.004101734
   -941269.082 9   -727237.67147  20640960.710    20640960.6604   20640966.7884
        -0.000          -0.000
 -21415942.842 9 -16664752.38449  20057050.090    20057049.6234   20057055.5004
        -0.000          -0.000
   7051436.374 8   5651411.36645  23265513.472    23265513.0394   23265519.4754
        -0.000          -0.000
 -21290572.992 9 -15935544.79448  20341934.733    20341934.1624   20341940.4974
        -0.000          -0.000
  -9558285.266 9  -6994316.49046  22640655.105    22640654.4704   22640662.2984
        -0.000          -0.000
 -19728447.751 9 -15360333.43249  18916251.301    18916251.1724   18916256.5394
        -0.000          -0.000
  -7461225.213 9  -5801586.63546  22561139.476    22561139.8284   22561146.0714
        -0.000          -0.000
 97  3  5 19 58 29.9950000  0  7 19  2 31  7 15 27 26               -0.004113986
   -896747.292 9   -692545.41447  20649432.822    20649432.8254   20649439.0654
        -0.000          -0.000
 -21449040.005 9 -16690542.38249  20050751.861    20050751.4044   20050757.3174
        -0.000          -0.000
   7139481.372 8   5720017.79745  23282268.114    23282267.5814   23282273.9454
        -0.000          -0.000
 -21387781.183 9 -16011291.43148  20323436.560    20323436.0084   20323442.3684
        -0.000          -0.000
  -9622410.528 9  -7044284.22946  22628452.534    22628451.8494   22628459.7504
        -0.000          -0.000
 -19746985.258 9 -15374778.26549  18912723.765    18912723.6244   18912728.9044
        -0.000          -0.000
  -7551105.219 9  -5871622.97346  22544035.876    22544036.1794   22544042.5094
        -0.000          -0.000
 97  3  5 19 58 59.9950000  0  6 19  2  7 15 27 26                  -0.004126261
   -851897.961 9   -657597.93247  20657967.443    20657967.4074   20657973.6864
        -0.000          -0.000
 -21481988.282 9 -16716216.37249  20044481.988    20044481.5644   20044487.4984
        -0.000          -0.000
 -21484625.484 9 -16086754.51848  20305007.629    20305007.1364   20305013.5994
        -0.000          -0.000
  -9686130.239 9  -7093935.93846  22616326.923    22616326.3734   22616334.3094
        -0.000          -0.000
 -19765110.468 9 -15388901.82849  18909274.752    18909274.5814   18909279.8104
        -0.000          -0.000
  -7640581.251 9  -5941344.53246  22527009.130    22527009.3564   22527015.8034
        -0.000          -0.000
 97  3  5 19 59 29.9950000  0  6 19  2  7 15 27 26                  -0.004138463
   -806741.223 9   -622410.90547  20666560.610    20666560.5284   20666566.7734
        -0.000          -0.000
 -21514790.871 9 -16741776.83449  20038239.964    20038239.4854   20038245.3884
        -0.000          -0.000
 -21581104.747 9 -16161933.16248  20286648.200    20286647.7264   20286654.2284
        -0.000          -0.000
  -9749446.450 9  -7143273.22646  22604278.334    22604277.6444   22604285.6264
        -0.000          -0.000
 -19782840.667 9 -15402717.58249  18905900.809    18905900.6374   18905905.8774
        -0.000          -0.000
  -7729649.908 9  -6010748.64346  22510059.854    22510060.1204   22510066.5644
        -0.000          -0.000
 97  3  5 19 59 59.9950000  0  6 19  2  7 15 27 26                  -0.004150639
   -761277.581 9   -586984.74347  20675212.059    20675211.9884   20675218.2104
        -0.000          -0.000
 -21547431.859 9 -16767211.37449  20032028.569    20032028.0764   20032033.9834
        -0.000          -0.000
 -21677216.564 9 -16236825.47748  20268358.761    20268358.2474   20268364.7244
        -0.000          -0.000
  -9812353.778 9  -7192291.93446  22592307.441    22592306.8124   22592314.5804
        -0.000          -0.000
 -19800171.725 9 -15416222.32049  18902602.797    18902602.6404   18902607.8834
        -0.000          -0.000
  -7818309.924 9  -6079834.32746  22493188.292    22493188.6394   22493195.0744
        -0.000          -0.000
 97  3  5 20  0 29.9950000  0  6 19  2  7 15 27 26                  -0.004162792
   -715500.481 9   -551314.31147  20683923.191    20683923.1284   20683929.3804
        -0.000          -0.000
 -21579877.530 9 -16792493.71649  20025854.367    20025853.8904   20025859.7724
        -0.000          -0.000
 -21772962.771 9 -16311432.89848  20250138.813    20250138.3114   20250144.8294
        -0.000          -0.000
  -9874845.906 9  -7240987.08746  22580415.559    22580414.8134   22580422.7224
        -0.000          -0.000
 -19817101.407 9 -15429414.29549  18899381.189    18899381.0614   18899386.2944
        -0.000          -0.000
  -7906555.969 9  -6148597.43346  22476395.617    22476395.8954   22476402.4184
        -0.000          -0.000
 97  3  5 20  0 59.9950000  0  6 19  2  7 15 27 26                  -0.004174939
   -669402.760 9   -515394.06347  20692695.272    20692695.2354   20692701.5204
        -0.000          -0.000
 -21612110.597 9 -16817610.40549  20019720.643    20019720.1864   20019726.0734
        -0.000          -0.000
 -21868339.861 9 -16385752.70448  20231989.097    20231988.6164   20231995.1164
        -0.000          -0.000
  -9936923.621 9  -7289359.32446  22568602.653    22568602.0514   22568609.8324
        -0.000          -0.000
 -19833612.861 9 -15442280.38149  18896239.141    18896239.0464   18896244.2914
        -0.000          -0.000
  -7994399.082 9  -6217046.58546  22459679.591    22459679.8774   22459686.5064
        -0.000          -0.000
 97  3  5 20  1 29.9950000  0  6 19  2  7 15 27 26                  -0.004187087
   -622978.313 9   -479219.22047  20701529.600    20701529.5394   20701535.8544
        -0.000          -0.000
 -21644112.407 9 -16842546.89449  20013630.914    20013630.4624   20013636.3864
        -0.000          -0.000
 -21963310.407 9 -16459755.71448  20213916.875    20213916.3674   20213922.8504
        -0.000          -0.000
  -9998575.169 9  -7337399.46646  22556870.666    22556870.0644   22556878.0104
        -0.000          -0.000
 -19849675.280 9 -15454796.56949  18893182.587    18893182.5024   18893187.7574
        -0.000          -0.000
  -8081850.089 9  -6285190.18846  22443038.173    22443038.4484   22443045.2134
        -0.000          -0.000
 97  3  5 20  1 59.9950000  0  6 19  2  7 15 27 26                  -0.004199245
   -576232.634 9   -442794.06847  20710425.053    20710424.9814   20710431.2714
        -0.000          -0.000
 -21675877.705 9 -16867299.08549  20007586.196    20007585.7164   20007591.6854
        -0.000          -0.000
 -22057863.526 9 -16533433.46248  20195924.074    20195923.4834   20195929.9434
        -0.000          -0.000
 -10059799.984 9  -7385107.09646  22545219.654    22545219.1914   22545227.3374
        -0.000          -0.000
 -19865286.449 9 -15466961.13249  18890211.907    18890211.7694   18890217.0784
        -0.000          -0.000
  -8168918.476 9  -6353035.63346  22426469.665    22426469.8594   22426476.4184
        -0.000          -0.000
 97  3  5 20  2 29.9950000  0  6 19  2  7 15 27 26                  -0.004211405
   -529167.875 9   -406120.27647  20719381.257    20719381.1904   20719387.4524
        -0.000          -0.000
 -21707427.442 9 -16891883.30249  20001582.497    20001582.0034   20001587.9284
        -0.000          -0.000
 -22151997.793 9 -16606784.83148  20178010.808    20178010.2944   20178016.7024
        -0.000          -0.000
 -10120594.241 9  -7432479.23145  22533650.654    22533650.3584   22533658.4114
        -0.000          -0.000
 -19880447.220 9 -15478774.73549  18887326.950    18887326.7764   18887332.1014
        -0.000          -0.000
  -8255596.246 9  -6420576.72046  22409975.240    22409975.5274   22409982.1334
        -0.000          -0.000
 97  3  5 20  2 59.9950000  0  6 19  2  7 15 27 26                  -0.004223555
   -481783.838 9   -369197.69747  20728398.235    20728398.1484   20728404.4714
        -0.000          -0.000
 -21738782.760 9 -16916316.02549  19995615.809    19995615.3144   19995621.1514
        -0.000          -0.000
 -22245706.284 9 -16679804.42348  20160178.638    20160178.1694   20160184.5354
        -0.000          -0.000
 -10180949.881 9  -7479509.57645  22522165.613    22522165.3394   22522173.1084
        -0.000          -0.000
 -19895140.413 9 -15490223.99049  18884530.868    18884530.7414   18884536.0984
        -0.000          -0.000
  -8341867.579 9  -6487801.08646  22393558.454    22393558.6724   22393565.2964
        -0.000          -0.000
 97  3  5 20  3 29.9950000  0  6 19  2  7 15 27 26                  -0.004235701
   -434093.657 9   -332036.56447  20737473.439    20737473.3464   20737479.6994
        -0.000          -0.000
 -21769953.012 9 -16940604.53349  19989684.259    19989683.7504   19989689.6594
        -0.000          -0.000
 -22339009.384 9 -16752508.12548  20142423.656    20142423.2014   20142429.6464
        -0.000          -0.000
 -10240865.744 8  -7526197.25145  22510763.987    22510763.5924   22510771.5144
        -0.000          -0.000
 -19909369.701 9 -15501311.76249  18881823.145    18881823.0164   18881828.3824
        -0.000          -0.000
  -8427721.781 9  -6554700.41946  22377220.719    22377220.9834   22377227.7414
        -0.000          -0.000
 97  3  5 20  3 59.9950000  0  6 19  2  7 15 27 26                  -0.004247829
   -386081.415 9   -294624.47647  20746609.943    20746609.8414   20746616.2024
        -0.000          -0.000
 -21800972.308 9 -16964775.41549  19983781.528    19983781.0264   19983786.9394
        -0.000          -0.000
 -22431940.490 9 -16824921.97048  20124739.438    20124738.9534   20124745.4224
        -0.000          -0.000
 -10300341.554 9  -7572541.97945  22499445.863    22499445.6694   22499453.3974
        -0.000          -0.000
 -19923148.106 9 -15512048.18849  18879201.217    18879201.1014   18879206.4684
        -0.000          -0.000
  -8513140.837 9  -6621260.70046  22360966.057    22360966.2064   22360972.9304
        -0.000          -0.000
 97  3  5 20  4 29.9950000  0  6 19  2  7 15 27 26                  -0.004259948
   -337756.230 9   -256968.54347  20755805.942    20755805.8454   20755812.1734
        -0.000          -0.000
 -21831878.144 9 -16988857.88549  19977900.302    19977899.8384   19977905.7434
        -0.000          -0.000
 -22524528.100 9 -16897068.15248  20107120.442    20107120.0214   20107126.4814
        -0.000          -0.000
 -10359396.042 9  -7618558.43745  22488208.130    22488207.8584   22488215.7134
        -0.000          -0.000
 -19936494.076 9 -15522447.65549  18876661.567    18876661.4594   18876666.8064
        -0.000          -0.000
  -8598140.527 9  -6687494.19246  22344791.054    22344791.3524   22344797.9894
        -0.000          -0.000
 97  3  5 20  4 59.9950000  0  6 19  2  7 15 27 26                  -0.004272047
   -289087.362 9   -219044.80347  20765067.368    20765067.2334   20765073.5834
        -0.000          -0.000
 -21862635.266 9 -17012824.47949  19972047.434    19972046.9694   19972052.7954
        -0.000          -0.000
 -22616749.041 9 -16968928.61448  20089571.380    20089570.9794   20089577.3974
        -0.000          -0.000
 -10418002.379 9  -7664225.64545  22477055.780    22477055.4694   22477063.3704
        -0.000          -0.000
 -19949380.358 9 -15532488.92349  18874209.408    18874209.3074   18874214.6004
        -0.000          -0.000
  -8682699.422 9  -6753384.19646  22328700.258    22328700.4124   22328706.7814
        -0.000          -0.000
 97  3  5 20  5 29.9950000  0  6 19  2  7 15 27 26                  -0.004284132
   -240074.388 9   -180852.92747  20774394.154    20774394.1164   20774400.4484
        -0.000          -0.000
 -21893244.196 9 -17036675.59149  19966222.823    19966222.3324   19966228.1174
        -0.000          -0.000
 -22708602.670 9 -17040502.85748  20072092.285    20072091.7804   20072098.2204
        -0.000          -0.000
 -10476162.907 8  -7709545.51445  22465988.152    22465987.7104   22465995.8884
        -0.000          -0.000
 -19961817.109 9 -15542179.91349  18871842.766    18871842.6554   18871847.9544
        -0.000          -0.000
  -8766829.348 9  -6818939.97646  22312690.847    22312691.0164   22312697.2814
        -0.000          -0.000
 97  3  5 20  5 59.9950000  0  6 19  2  7 15 27 26                  -0.004296198
   -190714.399 9   -142390.65247  20783787.089    20783787.0144   20783793.3654
        -0.000          -0.000
 -21923724.738 9 -17060426.66349  19960422.556    19960422.1074   19960427.9174
        -0.000          -0.000
 -22800068.043 9 -17111774.57548  20054687.001    20054686.5294   20054692.9574
        -0.000          -0.000
 -10533881.175 8  -7754520.78245  22455004.740    22455004.2044   22455012.4444
        -0.000          -0.000
 -19973804.861 9 -15551521.03349  18869561.629    18869561.4944   18869566.7954
        -0.000          -0.000
  -8850542.765 9  -6884171.18046  22296760.646    22296760.8854   22296767.0564
        -0.000          -0.000
 97  3  5 20  6 29.9950000  0  6 19  2  7 15 27 26                  -0.004308252
   -141008.160 9   -103658.56847  20793245.881    20793245.8464   20793252.2314
        -0.000          -0.000
 -21954033.052 9 -17084043.53449  19954655.029    19954654.5904   19954660.4084
        -0.000          -0.000
 -22891098.453 9 -17182707.35548  20037364.532    20037364.0224   20037370.4184
        -0.000          -0.000
 -10591136.702 9  -7799135.42645  22444109.399    22444108.9564   22444116.7964
        -0.000          -0.000
 -19985299.492 9 -15560477.90549  18867374.349    18867374.1984   18867379.5004
        -0.000          -0.000
  -8933831.729 9  -6949071.64546  22280911.264    22280911.3864   22280917.6234
        -0.000          -0.000
 97  3  5 20  6 59.9950000  0  6 19  2  7 15 27 26                  -0.004320299
    -90969.322 9    -64667.32547  20802767.988    20802767.9334   20802774.2854
        -0.000          -0.000
 -21984169.408 9 -17107526.40849  19948920.248    19948919.7904   19948925.6104
        -0.000          -0.000
 -22981695.929 9 -17253302.77648  20020124.411    20020123.9464   20020130.3134
        -0.000          -0.000
 -10647934.998 9  -7843393.80745  22433301.262    22433300.6984   22433308.4934
        -0.000          -0.000
 -19996305.756 9 -15569054.22749  18865279.933    18865279.7884   18865285.0824
        -0.000          -0.000
  -9016699.423 9  -7013643.83846  22265141.905    22265142.0734   22265148.4054
        -0.000          -0.000
 97  3  5 20  7 29.9950000  0  6 19  2  7 15 27 26                  -0.004332335
    -40602.266 9    -25420.31547  20812352.646    20812352.5284   20812358.8714
        -0.000          -0.000
 -22014136.773 9 -17130877.60049  19943217.671    19943217.2284   19943223.0634
        -0.000          -0.000
 -23071845.521 9 -17323549.20848  20002969.532    20002969.0524   20002975.4304
        -0.000          -0.000
 -10704278.468 8  -7887297.76145  22422579.529    22422578.9424   22422586.7074
        -0.000          -0.000
 -20006828.028 9 -15577253.41849  18863277.645    18863277.4654   18863282.7714
        -0.000          -0.000
  -9099142.493 9  -7077885.17046  22249453.445    22249453.5944   22249460.0144
        -0.000          -0.000
 97  3  5 20  7 59.9950000  0  6 19  2  7 15 27 26                  -0.004344366
     10076.456 9     14069.54547  20821996.522    20821996.4524   20822002.7804
        -0.000          -0.000
 -22043941.196 9 -17154101.82349  19937546.119    19937545.6344   19937551.4894
        -0.000          -0.000
 -23161547.225 9 -17393446.62548  19985899.845    19985899.3404   19985905.7854
        -0.000          -0.000
 -10760175.491 9  -7930853.86245  22411942.365    22411941.9854   22411949.9064
        -0.000          -0.000
 -20016881.060 9 -15585086.96149  18861364.662    18861364.4694   18861369.7794
        -0.000          -0.000
  -9181170.864 9  -7141803.34246  22233843.910    22233844.2404   22233850.3924
        -0.000          -0.000
 97  3  5 20  8 29.9950000  0  6 19  2  7 15 27 26                  -0.004356387
     61075.020 9     53808.63047  20831701.310    20831701.2134   20831707.5754
        -0.000          -0.000
 -22073547.610 9 -17177171.75949  19931912.226    19931911.7054   19931917.5894
        -0.000          -0.000
 -23250797.979 9 -17462992.66348  19968916.046    19968915.5274   19968921.9534
        -0.000          -0.000
 -10815610.005 9  -7974049.55745  22401393.549    22401393.1284   22401400.8974
        -0.000          -0.000
 -20026465.533 9 -15592555.40149  18859540.793    18859540.6224   18859545.9124
        -0.000          -0.000
  -9262773.827 9  -7205390.06546  22218315.594    22218315.8504   22218321.7514
        -0.000          -0.000
 97  3  5 20  8 59.9950000  0  6 19  2  7 15 27 26                  -0.004368382
    112405.467 9     93806.32747  20841469.135    20841469.0614   20841475.4564
        -0.000          -0.000
 -22102952.062 9 -17200084.31749  19926316.672    19926316.1884   19926322.1144
        -0.000          -0.000
 -23339604.532 9 -17532192.55848  19952016.697    19952016.1374   19952022.5914
        -0.000          -0.000
 -10870573.209 9  -8016878.04045  22390934.680    22390934.0284   22390941.5614
        -0.000          -0.000
 -20035607.006 9 -15599678.63649  18857801.209    18857801.0564   18857806.3754
        -0.000          -0.000
  -9343936.455 9  -7268633.64646  22202870.880    22202871.1524   22202876.9774
        -0.000          -0.000
 97  3  5 20  9 29.9950000  0  6 19  2  7 15 27 26                  -0.004380357
    164054.983 9    134052.64347  20851297.738    20851297.6374   20851304.0384
        -0.000          -0.000
 -22132161.474 9 -17222844.89849  19920758.348    19920757.8564   19920763.7664
        -0.000          -0.000
 -23427979.521 9 -17601056.17248  19935199.476    19935198.9494   19935205.3644
        -0.000          -0.000
 -10925065.756 8  -8059339.71945  22380564.882    22380564.3974   22380571.7794
        -0.000          -0.000
 -20044316.370 9 -15606465.17249  18856143.819    18856143.7034   18856149.0254
        -0.000          -0.000
  -9424666.950 9  -7331540.49146  22187508.410    22187508.6784   22187514.5614
        -0.000          -0.000
